<?xml version="1.0" encoding="UTF-8" standalone="no" ?>
<gpx xmlns="http://www.topografix.com/GPX/1/1" xmlns:xsi="http://www.w3.org/2001/XMLSchema-instance" xsi:schemaLocation="http://www.topografix.com/GPX/1/1 http://www.topografix.com/GPX/1/1/gpx.xsd" version="1.1" creator="VisuGPX - https://www.visugpx.com">
  <metadata>
    <name>Barbython 2012</name>
    <desc><![CDATA[Course de 10 km pour le téléthon]]></desc>
  </metadata>
  <trk>
    <name><![CDATA[Barbython 2012_1]]></name>
    <trkseg>
      <trkpt lat="45.57169" lon="5.97922">
        <ele>315</ele>
        <time>2012-12-02T10:09:07Z</time>
      </trkpt>
      <trkpt lat="45.57169" lon="5.97922">
        <ele>315</ele>
        <time>2012-12-02T10:09:08.19Z</time>
      </trkpt>
      <trkpt lat="45.57169" lon="5.97922">
        <ele>315</ele>
        <time>2012-12-02T10:09:10.21Z</time>
      </trkpt>
      <trkpt lat="45.57169" lon="5.97922">
        <ele>315</ele>
        <time>2012-12-02T10:09:12.2Z</time>
      </trkpt>
      <trkpt lat="45.57169" lon="5.97922">
        <ele>315</ele>
        <time>2012-12-02T10:09:14.24Z</time>
      </trkpt>
      <trkpt lat="45.57169" lon="5.97922">
        <ele>315</ele>
        <time>2012-12-02T10:09:16.28Z</time>
      </trkpt>
      <trkpt lat="45.57169" lon="5.97922">
        <ele>315</ele>
        <time>2012-12-02T10:09:18.27Z</time>
      </trkpt>
      <trkpt lat="45.57169" lon="5.97922">
        <ele>315</ele>
        <time>2012-12-02T10:09:20.22Z</time>
      </trkpt>
      <trkpt lat="45.57169" lon="5.97922">
        <ele>315</ele>
        <time>2012-12-02T10:09:22.24Z</time>
      </trkpt>
      <trkpt lat="45.57169" lon="5.97922">
        <ele>315</ele>
        <time>2012-12-02T10:09:24.24Z</time>
      </trkpt>
      <trkpt lat="45.57169" lon="5.97922">
        <ele>315</ele>
        <time>2012-12-02T10:09:26.22Z</time>
      </trkpt>
      <trkpt lat="45.57169" lon="5.97922">
        <ele>315</ele>
        <time>2012-12-02T10:09:28.23Z</time>
      </trkpt>
      <trkpt lat="45.57169" lon="5.97922">
        <ele>315</ele>
        <time>2012-12-02T10:09:30.23Z</time>
      </trkpt>
      <trkpt lat="45.57169" lon="5.97922">
        <ele>315</ele>
        <time>2012-12-02T10:09:32.22Z</time>
      </trkpt>
      <trkpt lat="45.57169" lon="5.97922">
        <ele>315</ele>
        <time>2012-12-02T10:09:34.24Z</time>
      </trkpt>
      <trkpt lat="45.57169" lon="5.97922">
        <ele>315</ele>
        <time>2012-12-02T10:09:36.23Z</time>
      </trkpt>
      <trkpt lat="45.57169" lon="5.97922">
        <ele>315</ele>
        <time>2012-12-02T10:09:38.23Z</time>
      </trkpt>
      <trkpt lat="45.57169" lon="5.97922">
        <ele>315</ele>
        <time>2012-12-02T10:09:40.23Z</time>
      </trkpt>
      <trkpt lat="45.57169" lon="5.97922">
        <ele>315</ele>
        <time>2012-12-02T10:09:42.23Z</time>
      </trkpt>
      <trkpt lat="45.57169" lon="5.97922">
        <ele>315</ele>
        <time>2012-12-02T10:09:44.26Z</time>
      </trkpt>
      <trkpt lat="45.57169" lon="5.97922">
        <ele>315</ele>
        <time>2012-12-02T10:09:46.24Z</time>
      </trkpt>
      <trkpt lat="45.57169" lon="5.97922">
        <ele>315</ele>
        <time>2012-12-02T10:09:48.21Z</time>
      </trkpt>
      <trkpt lat="45.57169" lon="5.97922">
        <ele>315</ele>
        <time>2012-12-02T10:09:50.23Z</time>
      </trkpt>
      <trkpt lat="45.57169" lon="5.97922">
        <ele>315</ele>
        <time>2012-12-02T10:09:52.22Z</time>
      </trkpt>
      <trkpt lat="45.57169" lon="5.97922">
        <ele>315</ele>
        <time>2012-12-02T10:09:54.25Z</time>
      </trkpt>
      <trkpt lat="45.57169" lon="5.97922">
        <ele>315</ele>
        <time>2012-12-02T10:09:56.28Z</time>
      </trkpt>
      <trkpt lat="45.57169" lon="5.97922">
        <ele>315</ele>
        <time>2012-12-02T10:09:58.21Z</time>
      </trkpt>
      <trkpt lat="45.57169" lon="5.97922">
        <ele>315</ele>
        <time>2012-12-02T10:10:00.22Z</time>
      </trkpt>
      <trkpt lat="45.57169" lon="5.97922">
        <ele>315</ele>
        <time>2012-12-02T10:10:02.23Z</time>
      </trkpt>
      <trkpt lat="45.57169" lon="5.97922">
        <ele>315</ele>
        <time>2012-12-02T10:10:04.22Z</time>
      </trkpt>
      <trkpt lat="45.57169" lon="5.97922">
        <ele>315</ele>
        <time>2012-12-02T10:10:06.22Z</time>
      </trkpt>
      <trkpt lat="45.57169" lon="5.97922">
        <ele>315</ele>
        <time>2012-12-02T10:10:08.24Z</time>
      </trkpt>
      <trkpt lat="45.57169" lon="5.97922">
        <ele>315</ele>
        <time>2012-12-02T10:10:10.24Z</time>
      </trkpt>
      <trkpt lat="45.57169" lon="5.97922">
        <ele>315</ele>
        <time>2012-12-02T10:10:12.23Z</time>
      </trkpt>
      <trkpt lat="45.57169" lon="5.97922">
        <ele>315</ele>
        <time>2012-12-02T10:10:14.21Z</time>
      </trkpt>
      <trkpt lat="45.57169" lon="5.97922">
        <ele>315</ele>
        <time>2012-12-02T10:10:16.21Z</time>
      </trkpt>
      <trkpt lat="45.57169" lon="5.97922">
        <ele>315</ele>
        <time>2012-12-02T10:10:18.24Z</time>
      </trkpt>
      <trkpt lat="45.57169" lon="5.97922">
        <ele>315</ele>
        <time>2012-12-02T10:10:20.22Z</time>
      </trkpt>
      <trkpt lat="45.57169" lon="5.97922">
        <ele>315</ele>
        <time>2012-12-02T10:10:22.22Z</time>
      </trkpt>
      <trkpt lat="45.57169" lon="5.97922">
        <ele>315</ele>
        <time>2012-12-02T10:10:24.25Z</time>
      </trkpt>
      <trkpt lat="45.57169" lon="5.97922">
        <ele>315</ele>
        <time>2012-12-02T10:10:26.29Z</time>
      </trkpt>
      <trkpt lat="45.57169" lon="5.97922">
        <ele>315</ele>
        <time>2012-12-02T10:10:28.22Z</time>
      </trkpt>
      <trkpt lat="45.57169" lon="5.97922">
        <ele>315</ele>
        <time>2012-12-02T10:10:30.24Z</time>
      </trkpt>
      <trkpt lat="45.57169" lon="5.97922">
        <ele>315</ele>
        <time>2012-12-02T10:10:32.23Z</time>
      </trkpt>
      <trkpt lat="45.57169" lon="5.97922">
        <ele>315</ele>
        <time>2012-12-02T10:10:34.25Z</time>
      </trkpt>
      <trkpt lat="45.57169" lon="5.97922">
        <ele>315</ele>
        <time>2012-12-02T10:10:36.22Z</time>
      </trkpt>
      <trkpt lat="45.57169" lon="5.97922">
        <ele>315</ele>
        <time>2012-12-02T10:10:38.25Z</time>
      </trkpt>
      <trkpt lat="45.57169" lon="5.97922">
        <ele>315</ele>
        <time>2012-12-02T10:10:40.25Z</time>
      </trkpt>
      <trkpt lat="45.57169" lon="5.97922">
        <ele>315</ele>
        <time>2012-12-02T10:10:42.26Z</time>
      </trkpt>
      <trkpt lat="45.57169" lon="5.97922">
        <ele>315</ele>
        <time>2012-12-02T10:10:44.24Z</time>
      </trkpt>
      <trkpt lat="45.57169" lon="5.97922">
        <ele>315</ele>
        <time>2012-12-02T10:10:46.25Z</time>
      </trkpt>
      <trkpt lat="45.57169" lon="5.97922">
        <ele>315</ele>
        <time>2012-12-02T10:10:48.22Z</time>
      </trkpt>
      <trkpt lat="45.57169" lon="5.97922">
        <ele>315</ele>
        <time>2012-12-02T10:10:50.29Z</time>
      </trkpt>
      <trkpt lat="45.57169" lon="5.97922">
        <ele>315</ele>
        <time>2012-12-02T10:10:52.22Z</time>
      </trkpt>
      <trkpt lat="45.57169" lon="5.97922">
        <ele>315</ele>
        <time>2012-12-02T10:10:54.24Z</time>
      </trkpt>
      <trkpt lat="45.57169" lon="5.97922">
        <ele>315</ele>
        <time>2012-12-02T10:10:56.26Z</time>
      </trkpt>
      <trkpt lat="45.57169" lon="5.97922">
        <ele>315</ele>
        <time>2012-12-02T10:10:58.26Z</time>
      </trkpt>
      <trkpt lat="45.57169" lon="5.97922">
        <ele>315</ele>
        <time>2012-12-02T10:11:00.22Z</time>
      </trkpt>
      <trkpt lat="45.57169" lon="5.97922">
        <ele>315</ele>
        <time>2012-12-02T10:11:02.24Z</time>
      </trkpt>
      <trkpt lat="45.57169" lon="5.97922">
        <ele>315</ele>
        <time>2012-12-02T10:11:04.23Z</time>
      </trkpt>
      <trkpt lat="45.57169" lon="5.97922">
        <ele>315</ele>
        <time>2012-12-02T10:11:06.23Z</time>
      </trkpt>
      <trkpt lat="45.57169" lon="5.97922">
        <ele>315</ele>
        <time>2012-12-02T10:11:08.21Z</time>
      </trkpt>
      <trkpt lat="45.57169" lon="5.97922">
        <ele>315</ele>
        <time>2012-12-02T10:11:10.24Z</time>
      </trkpt>
      <trkpt lat="45.57169" lon="5.97922">
        <ele>315</ele>
        <time>2012-12-02T10:11:12.25Z</time>
      </trkpt>
      <trkpt lat="45.57169" lon="5.97922">
        <ele>315</ele>
        <time>2012-12-02T10:11:14.24Z</time>
      </trkpt>
      <trkpt lat="45.57169" lon="5.97922">
        <ele>315</ele>
        <time>2012-12-02T10:11:16.24Z</time>
      </trkpt>
      <trkpt lat="45.57169" lon="5.97922">
        <ele>315</ele>
        <time>2012-12-02T10:11:18.24Z</time>
      </trkpt>
      <trkpt lat="45.57169" lon="5.97922">
        <ele>315</ele>
        <time>2012-12-02T10:11:20.2Z</time>
      </trkpt>
      <trkpt lat="45.57169" lon="5.97922">
        <ele>315</ele>
        <time>2012-12-02T10:11:22.23Z</time>
      </trkpt>
      <trkpt lat="45.57169" lon="5.97922">
        <ele>315</ele>
        <time>2012-12-02T10:11:24.22Z</time>
      </trkpt>
      <trkpt lat="45.57169" lon="5.97922">
        <ele>315</ele>
        <time>2012-12-02T10:11:26.21Z</time>
      </trkpt>
      <trkpt lat="45.57169" lon="5.97922">
        <ele>315</ele>
        <time>2012-12-02T10:11:28.22Z</time>
      </trkpt>
      <trkpt lat="45.57169" lon="5.97922">
        <ele>315</ele>
        <time>2012-12-02T10:11:30.26Z</time>
      </trkpt>
      <trkpt lat="45.57169" lon="5.97922">
        <ele>315</ele>
        <time>2012-12-02T10:11:32.26Z</time>
      </trkpt>
      <trkpt lat="45.57169" lon="5.97922">
        <ele>315</ele>
        <time>2012-12-02T10:11:34.24Z</time>
      </trkpt>
      <trkpt lat="45.57169" lon="5.97922">
        <ele>315</ele>
        <time>2012-12-02T10:11:36.22Z</time>
      </trkpt>
      <trkpt lat="45.57169" lon="5.97922">
        <ele>315</ele>
        <time>2012-12-02T10:11:38.22Z</time>
      </trkpt>
      <trkpt lat="45.57169" lon="5.97922">
        <ele>315</ele>
        <time>2012-12-02T10:11:40.21Z</time>
      </trkpt>
      <trkpt lat="45.57169" lon="5.97922">
        <ele>315</ele>
        <time>2012-12-02T10:11:42.25Z</time>
      </trkpt>
      <trkpt lat="45.57169" lon="5.97922">
        <ele>315</ele>
        <time>2012-12-02T10:11:44.27Z</time>
      </trkpt>
      <trkpt lat="45.57169" lon="5.97922">
        <ele>315</ele>
        <time>2012-12-02T10:11:46.26Z</time>
      </trkpt>
      <trkpt lat="45.57169" lon="5.97922">
        <ele>315</ele>
        <time>2012-12-02T10:11:48.24Z</time>
      </trkpt>
      <trkpt lat="45.57169" lon="5.97922">
        <ele>315</ele>
        <time>2012-12-02T10:11:50.22Z</time>
      </trkpt>
      <trkpt lat="45.57169" lon="5.97922">
        <ele>315</ele>
        <time>2012-12-02T10:11:52.24Z</time>
      </trkpt>
      <trkpt lat="45.57169" lon="5.97922">
        <ele>315</ele>
        <time>2012-12-02T10:11:54.26Z</time>
      </trkpt>
      <trkpt lat="45.57169" lon="5.97922">
        <ele>315</ele>
        <time>2012-12-02T10:11:56.21Z</time>
      </trkpt>
      <trkpt lat="45.57154" lon="5.97912">
        <ele>315</ele>
        <time>2012-12-02T10:11:58.24Z</time>
      </trkpt>
      <trkpt lat="45.5715" lon="5.97911">
        <ele>315</ele>
        <time>2012-12-02T10:12:00.25Z</time>
      </trkpt>
      <trkpt lat="45.57145" lon="5.97912">
        <ele>314</ele>
        <time>2012-12-02T10:12:02.28Z</time>
      </trkpt>
      <trkpt lat="45.5714" lon="5.97912">
        <ele>314</ele>
        <time>2012-12-02T10:12:04.22Z</time>
      </trkpt>
      <trkpt lat="45.57135" lon="5.97912">
        <ele>314</ele>
        <time>2012-12-02T10:12:06.24Z</time>
      </trkpt>
      <trkpt lat="45.5713" lon="5.97914">
        <ele>314</ele>
        <time>2012-12-02T10:12:08.27Z</time>
      </trkpt>
      <trkpt lat="45.57124" lon="5.97914">
        <ele>314</ele>
        <time>2012-12-02T10:12:10.26Z</time>
      </trkpt>
      <trkpt lat="45.5712" lon="5.97916">
        <ele>314</ele>
        <time>2012-12-02T10:12:12.23Z</time>
      </trkpt>
      <trkpt lat="45.57116" lon="5.97918">
        <ele>314</ele>
        <time>2012-12-02T10:12:14.24Z</time>
      </trkpt>
      <trkpt lat="45.57111" lon="5.97923">
        <ele>314</ele>
        <time>2012-12-02T10:12:16.24Z</time>
      </trkpt>
      <trkpt lat="45.57108" lon="5.97927">
        <ele>314</ele>
        <time>2012-12-02T10:12:18.26Z</time>
      </trkpt>
      <trkpt lat="45.57103" lon="5.9793">
        <ele>314</ele>
        <time>2012-12-02T10:12:20.26Z</time>
      </trkpt>
      <trkpt lat="45.57098" lon="5.97935">
        <ele>314</ele>
        <time>2012-12-02T10:12:22.24Z</time>
      </trkpt>
      <trkpt lat="45.57095" lon="5.97939">
        <ele>314</ele>
        <time>2012-12-02T10:12:24.23Z</time>
      </trkpt>
      <trkpt lat="45.5709" lon="5.97941">
        <ele>314</ele>
        <time>2012-12-02T10:12:26.28Z</time>
      </trkpt>
      <trkpt lat="45.57087" lon="5.97943">
        <ele>314</ele>
        <time>2012-12-02T10:12:28.23Z</time>
      </trkpt>
      <trkpt lat="45.57083" lon="5.97946">
        <ele>314</ele>
        <time>2012-12-02T10:12:30.24Z</time>
      </trkpt>
      <trkpt lat="45.57078" lon="5.9795">
        <ele>314</ele>
        <time>2012-12-02T10:12:32.25Z</time>
      </trkpt>
      <trkpt lat="45.57074" lon="5.97953">
        <ele>314</ele>
        <time>2012-12-02T10:12:34.27Z</time>
      </trkpt>
      <trkpt lat="45.57069" lon="5.97957">
        <ele>314</ele>
        <time>2012-12-02T10:12:36.24Z</time>
      </trkpt>
      <trkpt lat="45.57066" lon="5.97958">
        <ele>314</ele>
        <time>2012-12-02T10:12:38.25Z</time>
      </trkpt>
      <trkpt lat="45.57063" lon="5.97961">
        <ele>314</ele>
        <time>2012-12-02T10:12:40.24Z</time>
      </trkpt>
      <trkpt lat="45.57062" lon="5.97963">
        <ele>314</ele>
        <time>2012-12-02T10:12:42.25Z</time>
      </trkpt>
      <trkpt lat="45.57062" lon="5.97967">
        <ele>314</ele>
        <time>2012-12-02T10:12:44.23Z</time>
      </trkpt>
      <trkpt lat="45.57061" lon="5.97973">
        <ele>313</ele>
        <time>2012-12-02T10:12:46.22Z</time>
      </trkpt>
      <trkpt lat="45.57058" lon="5.97978">
        <ele>313</ele>
        <time>2012-12-02T10:12:48.25Z</time>
      </trkpt>
      <trkpt lat="45.57056" lon="5.97984">
        <ele>313</ele>
        <time>2012-12-02T10:12:50.28Z</time>
      </trkpt>
      <trkpt lat="45.57055" lon="5.9799">
        <ele>313</ele>
        <time>2012-12-02T10:12:52.25Z</time>
      </trkpt>
      <trkpt lat="45.57055" lon="5.97995">
        <ele>313</ele>
        <time>2012-12-02T10:12:54.23Z</time>
      </trkpt>
      <trkpt lat="45.57055" lon="5.98001">
        <ele>313</ele>
        <time>2012-12-02T10:12:56.22Z</time>
      </trkpt>
      <trkpt lat="45.57055" lon="5.98008">
        <ele>314</ele>
        <time>2012-12-02T10:12:58.23Z</time>
      </trkpt>
      <trkpt lat="45.57055" lon="5.98015">
        <ele>314</ele>
        <time>2012-12-02T10:13:00.23Z</time>
      </trkpt>
      <trkpt lat="45.57053" lon="5.98022">
        <ele>314</ele>
        <time>2012-12-02T10:13:02.25Z</time>
      </trkpt>
      <trkpt lat="45.57051" lon="5.98028">
        <ele>314</ele>
        <time>2012-12-02T10:13:04.24Z</time>
      </trkpt>
      <trkpt lat="45.57051" lon="5.98034">
        <ele>314</ele>
        <time>2012-12-02T10:13:06.26Z</time>
      </trkpt>
      <trkpt lat="45.57053" lon="5.98041">
        <ele>314</ele>
        <time>2012-12-02T10:13:08.24Z</time>
      </trkpt>
      <trkpt lat="45.57056" lon="5.98049">
        <ele>314</ele>
        <time>2012-12-02T10:13:10.24Z</time>
      </trkpt>
      <trkpt lat="45.57058" lon="5.98056">
        <ele>314</ele>
        <time>2012-12-02T10:13:12.23Z</time>
      </trkpt>
      <trkpt lat="45.57055" lon="5.98062">
        <ele>314</ele>
        <time>2012-12-02T10:13:14.28Z</time>
      </trkpt>
      <trkpt lat="45.57049" lon="5.98068">
        <ele>314</ele>
        <time>2012-12-02T10:13:16.23Z</time>
      </trkpt>
      <trkpt lat="45.57042" lon="5.98071">
        <ele>314</ele>
        <time>2012-12-02T10:13:18.24Z</time>
      </trkpt>
      <trkpt lat="45.57035" lon="5.98073">
        <ele>314</ele>
        <time>2012-12-02T10:13:20.21Z</time>
      </trkpt>
      <trkpt lat="45.57029" lon="5.98076">
        <ele>314</ele>
        <time>2012-12-02T10:13:22.25Z</time>
      </trkpt>
      <trkpt lat="45.57023" lon="5.98078">
        <ele>314</ele>
        <time>2012-12-02T10:13:24.24Z</time>
      </trkpt>
      <trkpt lat="45.57019" lon="5.98082">
        <ele>314</ele>
        <time>2012-12-02T10:13:26.27Z</time>
      </trkpt>
      <trkpt lat="45.57014" lon="5.98084">
        <ele>314</ele>
        <time>2012-12-02T10:13:28.23Z</time>
      </trkpt>
      <trkpt lat="45.57009" lon="5.98087">
        <ele>314</ele>
        <time>2012-12-02T10:13:30.23Z</time>
      </trkpt>
      <trkpt lat="45.57005" lon="5.9809">
        <ele>314</ele>
        <time>2012-12-02T10:13:32.22Z</time>
      </trkpt>
      <trkpt lat="45.57" lon="5.98094">
        <ele>314</ele>
        <time>2012-12-02T10:13:34.25Z</time>
      </trkpt>
      <trkpt lat="45.56994" lon="5.98097">
        <ele>314</ele>
        <time>2012-12-02T10:13:36.26Z</time>
      </trkpt>
      <trkpt lat="45.56988" lon="5.98097">
        <ele>314</ele>
        <time>2012-12-02T10:13:38.3Z</time>
      </trkpt>
      <trkpt lat="45.56984" lon="5.9809">
        <ele>313</ele>
        <time>2012-12-02T10:13:40.23Z</time>
      </trkpt>
      <trkpt lat="45.56981" lon="5.98082">
        <ele>313</ele>
        <time>2012-12-02T10:13:42.24Z</time>
      </trkpt>
      <trkpt lat="45.56977" lon="5.98077">
        <ele>312</ele>
        <time>2012-12-02T10:13:44.24Z</time>
      </trkpt>
      <trkpt lat="45.56975" lon="5.98072">
        <ele>312</ele>
        <time>2012-12-02T10:13:46.24Z</time>
      </trkpt>
      <trkpt lat="45.56974" lon="5.98066">
        <ele>312</ele>
        <time>2012-12-02T10:13:48.2Z</time>
      </trkpt>
      <trkpt lat="45.56973" lon="5.98061">
        <ele>311</ele>
        <time>2012-12-02T10:13:50.25Z</time>
      </trkpt>
      <trkpt lat="45.56973" lon="5.98053">
        <ele>311</ele>
        <time>2012-12-02T10:13:52.26Z</time>
      </trkpt>
      <trkpt lat="45.56968" lon="5.98044">
        <ele>311</ele>
        <time>2012-12-02T10:13:54.25Z</time>
      </trkpt>
      <trkpt lat="45.56966" lon="5.98039">
        <ele>310</ele>
        <time>2012-12-02T10:13:56.25Z</time>
      </trkpt>
      <trkpt lat="45.56964" lon="5.98033">
        <ele>310</ele>
        <time>2012-12-02T10:13:58.24Z</time>
      </trkpt>
      <trkpt lat="45.56962" lon="5.98027">
        <ele>310</ele>
        <time>2012-12-02T10:14:00.23Z</time>
      </trkpt>
      <trkpt lat="45.56961" lon="5.98023">
        <ele>310</ele>
        <time>2012-12-02T10:14:02.25Z</time>
      </trkpt>
      <trkpt lat="45.56959" lon="5.98018">
        <ele>309</ele>
        <time>2012-12-02T10:14:04.22Z</time>
      </trkpt>
      <trkpt lat="45.56957" lon="5.98011">
        <ele>309</ele>
        <time>2012-12-02T10:14:06.25Z</time>
      </trkpt>
      <trkpt lat="45.56956" lon="5.98006">
        <ele>309</ele>
        <time>2012-12-02T10:14:08.25Z</time>
      </trkpt>
      <trkpt lat="45.56956" lon="5.98">
        <ele>309</ele>
        <time>2012-12-02T10:14:10.25Z</time>
      </trkpt>
      <trkpt lat="45.56956" lon="5.97992">
        <ele>309</ele>
        <time>2012-12-02T10:14:12.25Z</time>
      </trkpt>
      <trkpt lat="45.56953" lon="5.97986">
        <ele>309</ele>
        <time>2012-12-02T10:14:14.25Z</time>
      </trkpt>
      <trkpt lat="45.56951" lon="5.9798">
        <ele>309</ele>
        <time>2012-12-02T10:14:16.25Z</time>
      </trkpt>
      <trkpt lat="45.56952" lon="5.97974">
        <ele>309</ele>
        <time>2012-12-02T10:14:18.25Z</time>
      </trkpt>
      <trkpt lat="45.56953" lon="5.97968">
        <ele>308</ele>
        <time>2012-12-02T10:14:20.22Z</time>
      </trkpt>
      <trkpt lat="45.56957" lon="5.97963">
        <ele>309</ele>
        <time>2012-12-02T10:14:22.21Z</time>
      </trkpt>
      <trkpt lat="45.5696" lon="5.97957">
        <ele>309</ele>
        <time>2012-12-02T10:14:24.24Z</time>
      </trkpt>
      <trkpt lat="45.56962" lon="5.97946">
        <ele>309</ele>
        <time>2012-12-02T10:14:26.24Z</time>
      </trkpt>
      <trkpt lat="45.56965" lon="5.9794">
        <ele>309</ele>
        <time>2012-12-02T10:14:28.23Z</time>
      </trkpt>
      <trkpt lat="45.56967" lon="5.97934">
        <ele>309</ele>
        <time>2012-12-02T10:14:30.23Z</time>
      </trkpt>
      <trkpt lat="45.5697" lon="5.97929">
        <ele>310</ele>
        <time>2012-12-02T10:14:32.23Z</time>
      </trkpt>
      <trkpt lat="45.56972" lon="5.97924">
        <ele>310</ele>
        <time>2012-12-02T10:14:34.25Z</time>
      </trkpt>
      <trkpt lat="45.56975" lon="5.97919">
        <ele>310</ele>
        <time>2012-12-02T10:14:36.22Z</time>
      </trkpt>
      <trkpt lat="45.56977" lon="5.97913">
        <ele>310</ele>
        <time>2012-12-02T10:14:38.26Z</time>
      </trkpt>
      <trkpt lat="45.56977" lon="5.97903">
        <ele>310</ele>
        <time>2012-12-02T10:14:40.24Z</time>
      </trkpt>
      <trkpt lat="45.56979" lon="5.97896">
        <ele>310</ele>
        <time>2012-12-02T10:14:42.25Z</time>
      </trkpt>
      <trkpt lat="45.56981" lon="5.9789">
        <ele>310</ele>
        <time>2012-12-02T10:14:44.25Z</time>
      </trkpt>
      <trkpt lat="45.56984" lon="5.97883">
        <ele>310</ele>
        <time>2012-12-02T10:14:46.24Z</time>
      </trkpt>
      <trkpt lat="45.56987" lon="5.97876">
        <ele>310</ele>
        <time>2012-12-02T10:14:48.24Z</time>
      </trkpt>
      <trkpt lat="45.56988" lon="5.97868">
        <ele>310</ele>
        <time>2012-12-02T10:14:50.25Z</time>
      </trkpt>
      <trkpt lat="45.5699" lon="5.97861">
        <ele>310</ele>
        <time>2012-12-02T10:14:52.23Z</time>
      </trkpt>
      <trkpt lat="45.56993" lon="5.97858">
        <ele>310</ele>
        <time>2012-12-02T10:14:54.21Z</time>
      </trkpt>
      <trkpt lat="45.56995" lon="5.97854">
        <ele>310</ele>
        <time>2012-12-02T10:14:56.22Z</time>
      </trkpt>
      <trkpt lat="45.56997" lon="5.97851">
        <ele>310</ele>
        <time>2012-12-02T10:14:58.23Z</time>
      </trkpt>
      <trkpt lat="45.56999" lon="5.97846">
        <ele>310</ele>
        <time>2012-12-02T10:15:00.22Z</time>
      </trkpt>
      <trkpt lat="45.57002" lon="5.9784">
        <ele>310</ele>
        <time>2012-12-02T10:15:02.21Z</time>
      </trkpt>
      <trkpt lat="45.57005" lon="5.97835">
        <ele>310</ele>
        <time>2012-12-02T10:15:04.21Z</time>
      </trkpt>
      <trkpt lat="45.57007" lon="5.9783">
        <ele>310</ele>
        <time>2012-12-02T10:15:06.23Z</time>
      </trkpt>
      <trkpt lat="45.5701" lon="5.97825">
        <ele>310</ele>
        <time>2012-12-02T10:15:08.19Z</time>
      </trkpt>
      <trkpt lat="45.57013" lon="5.9782">
        <ele>310</ele>
        <time>2012-12-02T10:15:10.21Z</time>
      </trkpt>
      <trkpt lat="45.57015" lon="5.97815">
        <ele>311</ele>
        <time>2012-12-02T10:15:12.23Z</time>
      </trkpt>
      <trkpt lat="45.57019" lon="5.9781">
        <ele>311</ele>
        <time>2012-12-02T10:15:14.23Z</time>
      </trkpt>
      <trkpt lat="45.57021" lon="5.97804">
        <ele>311</ele>
        <time>2012-12-02T10:15:16.21Z</time>
      </trkpt>
      <trkpt lat="45.57024" lon="5.97801">
        <ele>310</ele>
        <time>2012-12-02T10:15:18.24Z</time>
      </trkpt>
      <trkpt lat="45.57026" lon="5.97797">
        <ele>310</ele>
        <time>2012-12-02T10:15:20.22Z</time>
      </trkpt>
      <trkpt lat="45.57027" lon="5.97791">
        <ele>310</ele>
        <time>2012-12-02T10:15:22.24Z</time>
      </trkpt>
      <trkpt lat="45.57025" lon="5.97784">
        <ele>310</ele>
        <time>2012-12-02T10:15:24.21Z</time>
      </trkpt>
      <trkpt lat="45.57024" lon="5.97778">
        <ele>310</ele>
        <time>2012-12-02T10:15:26.21Z</time>
      </trkpt>
      <trkpt lat="45.57024" lon="5.97774">
        <ele>310</ele>
        <time>2012-12-02T10:15:28.22Z</time>
      </trkpt>
      <trkpt lat="45.57026" lon="5.97769">
        <ele>310</ele>
        <time>2012-12-02T10:15:30.3Z</time>
      </trkpt>
      <trkpt lat="45.57025" lon="5.97765">
        <ele>310</ele>
        <time>2012-12-02T10:15:32.23Z</time>
      </trkpt>
      <trkpt lat="45.57021" lon="5.97757">
        <ele>310</ele>
        <time>2012-12-02T10:15:34.23Z</time>
      </trkpt>
      <trkpt lat="45.57019" lon="5.97754">
        <ele>310</ele>
        <time>2012-12-02T10:15:36.22Z</time>
      </trkpt>
      <trkpt lat="45.57016" lon="5.97751">
        <ele>310</ele>
        <time>2012-12-02T10:15:38.25Z</time>
      </trkpt>
      <trkpt lat="45.57013" lon="5.97747">
        <ele>309</ele>
        <time>2012-12-02T10:15:40.22Z</time>
      </trkpt>
      <trkpt lat="45.57009" lon="5.9774">
        <ele>309</ele>
        <time>2012-12-02T10:15:42.23Z</time>
      </trkpt>
      <trkpt lat="45.57006" lon="5.97734">
        <ele>309</ele>
        <time>2012-12-02T10:15:44.25Z</time>
      </trkpt>
      <trkpt lat="45.57004" lon="5.97728">
        <ele>309</ele>
        <time>2012-12-02T10:15:46.25Z</time>
      </trkpt>
      <trkpt lat="45.57002" lon="5.97724">
        <ele>309</ele>
        <time>2012-12-02T10:15:48.27Z</time>
      </trkpt>
      <trkpt lat="45.56998" lon="5.97717">
        <ele>309</ele>
        <time>2012-12-02T10:15:50.24Z</time>
      </trkpt>
      <trkpt lat="45.56997" lon="5.97708">
        <ele>308</ele>
        <time>2012-12-02T10:15:52.22Z</time>
      </trkpt>
      <trkpt lat="45.56996" lon="5.97701">
        <ele>308</ele>
        <time>2012-12-02T10:15:54.26Z</time>
      </trkpt>
      <trkpt lat="45.56994" lon="5.97697">
        <ele>308</ele>
        <time>2012-12-02T10:15:56.23Z</time>
      </trkpt>
      <trkpt lat="45.56989" lon="5.97696">
        <ele>308</ele>
        <time>2012-12-02T10:15:58.24Z</time>
      </trkpt>
      <trkpt lat="45.56983" lon="5.97694">
        <ele>308</ele>
        <time>2012-12-02T10:16:00.23Z</time>
      </trkpt>
      <trkpt lat="45.56978" lon="5.9769">
        <ele>308</ele>
        <time>2012-12-02T10:16:02.26Z</time>
      </trkpt>
      <trkpt lat="45.56975" lon="5.97683">
        <ele>307</ele>
        <time>2012-12-02T10:16:04.23Z</time>
      </trkpt>
      <trkpt lat="45.56971" lon="5.97678">
        <ele>307</ele>
        <time>2012-12-02T10:16:06.26Z</time>
      </trkpt>
      <trkpt lat="45.56971" lon="5.9767">
        <ele>307</ele>
        <time>2012-12-02T10:16:08.22Z</time>
      </trkpt>
      <trkpt lat="45.56973" lon="5.97658">
        <ele>307</ele>
        <time>2012-12-02T10:16:10.25Z</time>
      </trkpt>
      <trkpt lat="45.56973" lon="5.97648">
        <ele>307</ele>
        <time>2012-12-02T10:16:12.23Z</time>
      </trkpt>
      <trkpt lat="45.56973" lon="5.97641">
        <ele>307</ele>
        <time>2012-12-02T10:16:14.23Z</time>
      </trkpt>
      <trkpt lat="45.56975" lon="5.97635">
        <ele>307</ele>
        <time>2012-12-02T10:16:16.25Z</time>
      </trkpt>
      <trkpt lat="45.56975" lon="5.97626">
        <ele>307</ele>
        <time>2012-12-02T10:16:18.32Z</time>
      </trkpt>
      <trkpt lat="45.56979" lon="5.97619">
        <ele>307</ele>
        <time>2012-12-02T10:16:20.27Z</time>
      </trkpt>
      <trkpt lat="45.56984" lon="5.97613">
        <ele>307</ele>
        <time>2012-12-02T10:16:22.28Z</time>
      </trkpt>
      <trkpt lat="45.56987" lon="5.97607">
        <ele>307</ele>
        <time>2012-12-02T10:16:24.24Z</time>
      </trkpt>
      <trkpt lat="45.56991" lon="5.97601">
        <ele>307</ele>
        <time>2012-12-02T10:16:26.25Z</time>
      </trkpt>
      <trkpt lat="45.56996" lon="5.97595">
        <ele>307</ele>
        <time>2012-12-02T10:16:28.24Z</time>
      </trkpt>
      <trkpt lat="45.57" lon="5.97591">
        <ele>307</ele>
        <time>2012-12-02T10:16:30.29Z</time>
      </trkpt>
      <trkpt lat="45.57002" lon="5.97587">
        <ele>307</ele>
        <time>2012-12-02T10:16:32.26Z</time>
      </trkpt>
      <trkpt lat="45.57005" lon="5.97582">
        <ele>307</ele>
        <time>2012-12-02T10:16:34.3Z</time>
      </trkpt>
      <trkpt lat="45.57009" lon="5.9758">
        <ele>307</ele>
        <time>2012-12-02T10:16:36.27Z</time>
      </trkpt>
      <trkpt lat="45.57014" lon="5.97579">
        <ele>307</ele>
        <time>2012-12-02T10:16:38.25Z</time>
      </trkpt>
      <trkpt lat="45.57017" lon="5.97576">
        <ele>307</ele>
        <time>2012-12-02T10:16:40.23Z</time>
      </trkpt>
      <trkpt lat="45.57021" lon="5.97573">
        <ele>307</ele>
        <time>2012-12-02T10:16:42.25Z</time>
      </trkpt>
      <trkpt lat="45.57025" lon="5.9757">
        <ele>307</ele>
        <time>2012-12-02T10:16:44.23Z</time>
      </trkpt>
      <trkpt lat="45.57028" lon="5.97566">
        <ele>307</ele>
        <time>2012-12-02T10:16:46.31Z</time>
      </trkpt>
      <trkpt lat="45.57032" lon="5.97562">
        <ele>307</ele>
        <time>2012-12-02T10:16:48.27Z</time>
      </trkpt>
      <trkpt lat="45.57036" lon="5.97559">
        <ele>308</ele>
        <time>2012-12-02T10:16:50.29Z</time>
      </trkpt>
      <trkpt lat="45.5704" lon="5.97555">
        <ele>308</ele>
        <time>2012-12-02T10:16:52.22Z</time>
      </trkpt>
      <trkpt lat="45.57044" lon="5.97551">
        <ele>308</ele>
        <time>2012-12-02T10:16:54.31Z</time>
      </trkpt>
      <trkpt lat="45.57047" lon="5.97548">
        <ele>308</ele>
        <time>2012-12-02T10:16:56.23Z</time>
      </trkpt>
      <trkpt lat="45.57051" lon="5.97544">
        <ele>308</ele>
        <time>2012-12-02T10:16:58.26Z</time>
      </trkpt>
      <trkpt lat="45.57055" lon="5.9754">
        <ele>308</ele>
        <time>2012-12-02T10:17:00.23Z</time>
      </trkpt>
      <trkpt lat="45.57057" lon="5.97534">
        <ele>308</ele>
        <time>2012-12-02T10:17:02.28Z</time>
      </trkpt>
      <trkpt lat="45.57061" lon="5.97529">
        <ele>308</ele>
        <time>2012-12-02T10:17:04.27Z</time>
      </trkpt>
      <trkpt lat="45.57065" lon="5.97525">
        <ele>308</ele>
        <time>2012-12-02T10:17:06.3Z</time>
      </trkpt>
      <trkpt lat="45.57068" lon="5.97522">
        <ele>308</ele>
        <time>2012-12-02T10:17:08.25Z</time>
      </trkpt>
      <trkpt lat="45.57072" lon="5.97519">
        <ele>308</ele>
        <time>2012-12-02T10:17:10.3Z</time>
      </trkpt>
      <trkpt lat="45.57075" lon="5.97513">
        <ele>308</ele>
        <time>2012-12-02T10:17:12.25Z</time>
      </trkpt>
      <trkpt lat="45.57078" lon="5.97507">
        <ele>308</ele>
        <time>2012-12-02T10:17:14.25Z</time>
      </trkpt>
      <trkpt lat="45.57082" lon="5.97502">
        <ele>308</ele>
        <time>2012-12-02T10:17:16.25Z</time>
      </trkpt>
      <trkpt lat="45.57085" lon="5.97498">
        <ele>308</ele>
        <time>2012-12-02T10:17:18.27Z</time>
      </trkpt>
      <trkpt lat="45.57089" lon="5.97494">
        <ele>308</ele>
        <time>2012-12-02T10:17:20.28Z</time>
      </trkpt>
      <trkpt lat="45.57092" lon="5.9749">
        <ele>308</ele>
        <time>2012-12-02T10:17:22.29Z</time>
      </trkpt>
      <trkpt lat="45.57095" lon="5.97485">
        <ele>308</ele>
        <time>2012-12-02T10:17:24.29Z</time>
      </trkpt>
      <trkpt lat="45.57099" lon="5.97482">
        <ele>308</ele>
        <time>2012-12-02T10:17:26.26Z</time>
      </trkpt>
      <trkpt lat="45.57103" lon="5.97479">
        <ele>308</ele>
        <time>2012-12-02T10:17:28.25Z</time>
      </trkpt>
      <trkpt lat="45.57105" lon="5.97474">
        <ele>307</ele>
        <time>2012-12-02T10:17:30.25Z</time>
      </trkpt>
      <trkpt lat="45.57108" lon="5.9747">
        <ele>308</ele>
        <time>2012-12-02T10:17:32.26Z</time>
      </trkpt>
      <trkpt lat="45.57111" lon="5.97467">
        <ele>308</ele>
        <time>2012-12-02T10:17:34.27Z</time>
      </trkpt>
      <trkpt lat="45.57114" lon="5.97467">
        <ele>308</ele>
        <time>2012-12-02T10:17:36.35Z</time>
      </trkpt>
      <trkpt lat="45.57119" lon="5.97466">
        <ele>308</ele>
        <time>2012-12-02T10:17:38.31Z</time>
      </trkpt>
      <trkpt lat="45.57123" lon="5.97463">
        <ele>308</ele>
        <time>2012-12-02T10:17:40.28Z</time>
      </trkpt>
      <trkpt lat="45.57127" lon="5.97458">
        <ele>308</ele>
        <time>2012-12-02T10:17:42.34Z</time>
      </trkpt>
      <trkpt lat="45.57131" lon="5.97454">
        <ele>308</ele>
        <time>2012-12-02T10:17:44.26Z</time>
      </trkpt>
      <trkpt lat="45.57134" lon="5.9745">
        <ele>308</ele>
        <time>2012-12-02T10:17:46.25Z</time>
      </trkpt>
      <trkpt lat="45.57137" lon="5.97444">
        <ele>308</ele>
        <time>2012-12-02T10:17:48.24Z</time>
      </trkpt>
      <trkpt lat="45.57138" lon="5.97436">
        <ele>308</ele>
        <time>2012-12-02T10:17:50.24Z</time>
      </trkpt>
      <trkpt lat="45.57138" lon="5.97427">
        <ele>308</ele>
        <time>2012-12-02T10:17:52.24Z</time>
      </trkpt>
      <trkpt lat="45.5714" lon="5.97421">
        <ele>308</ele>
        <time>2012-12-02T10:17:54.24Z</time>
      </trkpt>
      <trkpt lat="45.57141" lon="5.97414">
        <ele>308</ele>
        <time>2012-12-02T10:17:56.23Z</time>
      </trkpt>
      <trkpt lat="45.57142" lon="5.97408">
        <ele>308</ele>
        <time>2012-12-02T10:17:58.25Z</time>
      </trkpt>
      <trkpt lat="45.57144" lon="5.97402">
        <ele>308</ele>
        <time>2012-12-02T10:18:00.23Z</time>
      </trkpt>
      <trkpt lat="45.57146" lon="5.97396">
        <ele>308</ele>
        <time>2012-12-02T10:18:02.25Z</time>
      </trkpt>
      <trkpt lat="45.57147" lon="5.9739">
        <ele>308</ele>
        <time>2012-12-02T10:18:04.25Z</time>
      </trkpt>
      <trkpt lat="45.57149" lon="5.97386">
        <ele>308</ele>
        <time>2012-12-02T10:18:06.34Z</time>
      </trkpt>
      <trkpt lat="45.57151" lon="5.9738">
        <ele>308</ele>
        <time>2012-12-02T10:18:08.27Z</time>
      </trkpt>
      <trkpt lat="45.57152" lon="5.97372">
        <ele>308</ele>
        <time>2012-12-02T10:18:10.29Z</time>
      </trkpt>
      <trkpt lat="45.57153" lon="5.97364">
        <ele>308</ele>
        <time>2012-12-02T10:18:12.25Z</time>
      </trkpt>
      <trkpt lat="45.57154" lon="5.97355">
        <ele>308</ele>
        <time>2012-12-02T10:18:14.24Z</time>
      </trkpt>
      <trkpt lat="45.57156" lon="5.9735">
        <ele>308</ele>
        <time>2012-12-02T10:18:16.24Z</time>
      </trkpt>
      <trkpt lat="45.57159" lon="5.97345">
        <ele>308</ele>
        <time>2012-12-02T10:18:18.22Z</time>
      </trkpt>
      <trkpt lat="45.57162" lon="5.9734">
        <ele>308</ele>
        <time>2012-12-02T10:18:20.23Z</time>
      </trkpt>
      <trkpt lat="45.57167" lon="5.97339">
        <ele>308</ele>
        <time>2012-12-02T10:18:22.25Z</time>
      </trkpt>
      <trkpt lat="45.57169" lon="5.97333">
        <ele>308</ele>
        <time>2012-12-02T10:18:24.32Z</time>
      </trkpt>
      <trkpt lat="45.57171" lon="5.97332">
        <ele>308</ele>
        <time>2012-12-02T10:18:26.3Z</time>
      </trkpt>
      <trkpt lat="45.57174" lon="5.97335">
        <ele>308</ele>
        <time>2012-12-02T10:18:28.28Z</time>
      </trkpt>
      <trkpt lat="45.57177" lon="5.97342">
        <ele>308</ele>
        <time>2012-12-02T10:18:30.3Z</time>
      </trkpt>
      <trkpt lat="45.5718" lon="5.97347">
        <ele>308</ele>
        <time>2012-12-02T10:18:32.23Z</time>
      </trkpt>
      <trkpt lat="45.57183" lon="5.97352">
        <ele>308</ele>
        <time>2012-12-02T10:18:34.25Z</time>
      </trkpt>
      <trkpt lat="45.57185" lon="5.97357">
        <ele>308</ele>
        <time>2012-12-02T10:18:36.3Z</time>
      </trkpt>
      <trkpt lat="45.57188" lon="5.97362">
        <ele>308</ele>
        <time>2012-12-02T10:18:38.27Z</time>
      </trkpt>
      <trkpt lat="45.57191" lon="5.97367">
        <ele>308</ele>
        <time>2012-12-02T10:18:40.32Z</time>
      </trkpt>
      <trkpt lat="45.57194" lon="5.97372">
        <ele>308</ele>
        <time>2012-12-02T10:18:42.31Z</time>
      </trkpt>
      <trkpt lat="45.57197" lon="5.97378">
        <ele>309</ele>
        <time>2012-12-02T10:18:44.28Z</time>
      </trkpt>
      <trkpt lat="45.572" lon="5.97381">
        <ele>309</ele>
        <time>2012-12-02T10:18:46.25Z</time>
      </trkpt>
      <trkpt lat="45.57202" lon="5.97386">
        <ele>309</ele>
        <time>2012-12-02T10:18:48.23Z</time>
      </trkpt>
      <trkpt lat="45.57201" lon="5.97391">
        <ele>309</ele>
        <time>2012-12-02T10:18:50.25Z</time>
      </trkpt>
      <trkpt lat="45.57203" lon="5.97395">
        <ele>309</ele>
        <time>2012-12-02T10:18:52.25Z</time>
      </trkpt>
      <trkpt lat="45.57207" lon="5.97399">
        <ele>309</ele>
        <time>2012-12-02T10:18:54.27Z</time>
      </trkpt>
      <trkpt lat="45.57212" lon="5.97405">
        <ele>309</ele>
        <time>2012-12-02T10:18:56.31Z</time>
      </trkpt>
      <trkpt lat="45.57216" lon="5.97411">
        <ele>309</ele>
        <time>2012-12-02T10:18:58.24Z</time>
      </trkpt>
      <trkpt lat="45.57219" lon="5.97415">
        <ele>309</ele>
        <time>2012-12-02T10:19:00.28Z</time>
      </trkpt>
      <trkpt lat="45.57224" lon="5.9742">
        <ele>309</ele>
        <time>2012-12-02T10:19:02.23Z</time>
      </trkpt>
      <trkpt lat="45.57227" lon="5.97425">
        <ele>310</ele>
        <time>2012-12-02T10:19:04.23Z</time>
      </trkpt>
      <trkpt lat="45.5723" lon="5.97428">
        <ele>310</ele>
        <time>2012-12-02T10:19:06.26Z</time>
      </trkpt>
      <trkpt lat="45.57233" lon="5.97433">
        <ele>310</ele>
        <time>2012-12-02T10:19:08.26Z</time>
      </trkpt>
      <trkpt lat="45.57236" lon="5.97438">
        <ele>310</ele>
        <time>2012-12-02T10:19:10.26Z</time>
      </trkpt>
      <trkpt lat="45.57239" lon="5.97443">
        <ele>310</ele>
        <time>2012-12-02T10:19:12.32Z</time>
      </trkpt>
      <trkpt lat="45.57242" lon="5.97445">
        <ele>310</ele>
        <time>2012-12-02T10:19:14.25Z</time>
      </trkpt>
      <trkpt lat="45.57245" lon="5.97447">
        <ele>310</ele>
        <time>2012-12-02T10:19:16.29Z</time>
      </trkpt>
      <trkpt lat="45.57247" lon="5.97447">
        <ele>310</ele>
        <time>2012-12-02T10:19:18.27Z</time>
      </trkpt>
      <trkpt lat="45.57251" lon="5.97447">
        <ele>310</ele>
        <time>2012-12-02T10:19:20.24Z</time>
      </trkpt>
      <trkpt lat="45.57255" lon="5.97447">
        <ele>310</ele>
        <time>2012-12-02T10:19:22.25Z</time>
      </trkpt>
      <trkpt lat="45.5726" lon="5.9745">
        <ele>310</ele>
        <time>2012-12-02T10:19:24.24Z</time>
      </trkpt>
      <trkpt lat="45.57263" lon="5.97452">
        <ele>311</ele>
        <time>2012-12-02T10:19:26.26Z</time>
      </trkpt>
      <trkpt lat="45.57268" lon="5.97456">
        <ele>311</ele>
        <time>2012-12-02T10:19:28.28Z</time>
      </trkpt>
      <trkpt lat="45.57272" lon="5.97455">
        <ele>311</ele>
        <time>2012-12-02T10:19:30.31Z</time>
      </trkpt>
      <trkpt lat="45.57276" lon="5.97454">
        <ele>311</ele>
        <time>2012-12-02T10:19:32.25Z</time>
      </trkpt>
      <trkpt lat="45.57279" lon="5.97456">
        <ele>311</ele>
        <time>2012-12-02T10:19:34.28Z</time>
      </trkpt>
      <trkpt lat="45.57282" lon="5.9746">
        <ele>311</ele>
        <time>2012-12-02T10:19:36.22Z</time>
      </trkpt>
      <trkpt lat="45.57285" lon="5.97465">
        <ele>311</ele>
        <time>2012-12-02T10:19:38.24Z</time>
      </trkpt>
      <trkpt lat="45.57287" lon="5.97476">
        <ele>311</ele>
        <time>2012-12-02T10:19:40.28Z</time>
      </trkpt>
      <trkpt lat="45.57289" lon="5.97482">
        <ele>312</ele>
        <time>2012-12-02T10:19:42.32Z</time>
      </trkpt>
      <trkpt lat="45.57291" lon="5.97485">
        <ele>312</ele>
        <time>2012-12-02T10:19:44.31Z</time>
      </trkpt>
      <trkpt lat="45.57295" lon="5.97486">
        <ele>312</ele>
        <time>2012-12-02T10:19:46.3Z</time>
      </trkpt>
      <trkpt lat="45.57299" lon="5.97495">
        <ele>312</ele>
        <time>2012-12-02T10:19:48.24Z</time>
      </trkpt>
      <trkpt lat="45.57306" lon="5.97502">
        <ele>312</ele>
        <time>2012-12-02T10:19:50.28Z</time>
      </trkpt>
      <trkpt lat="45.5731" lon="5.97507">
        <ele>313</ele>
        <time>2012-12-02T10:19:52.21Z</time>
      </trkpt>
      <trkpt lat="45.57314" lon="5.97516">
        <ele>313</ele>
        <time>2012-12-02T10:19:54.29Z</time>
      </trkpt>
      <trkpt lat="45.57317" lon="5.97525">
        <ele>313</ele>
        <time>2012-12-02T10:19:56.24Z</time>
      </trkpt>
      <trkpt lat="45.57319" lon="5.97532">
        <ele>313</ele>
        <time>2012-12-02T10:19:58.33Z</time>
      </trkpt>
      <trkpt lat="45.57321" lon="5.97539">
        <ele>313</ele>
        <time>2012-12-02T10:20:00.27Z</time>
      </trkpt>
      <trkpt lat="45.57325" lon="5.97545">
        <ele>314</ele>
        <time>2012-12-02T10:20:02.31Z</time>
      </trkpt>
      <trkpt lat="45.57329" lon="5.97551">
        <ele>314</ele>
        <time>2012-12-02T10:20:04.26Z</time>
      </trkpt>
      <trkpt lat="45.57333" lon="5.97555">
        <ele>314</ele>
        <time>2012-12-02T10:20:06.26Z</time>
      </trkpt>
      <trkpt lat="45.57334" lon="5.97559">
        <ele>314</ele>
        <time>2012-12-02T10:20:08.24Z</time>
      </trkpt>
      <trkpt lat="45.57337" lon="5.97565">
        <ele>314</ele>
        <time>2012-12-02T10:20:10.26Z</time>
      </trkpt>
      <trkpt lat="45.57341" lon="5.97573">
        <ele>314</ele>
        <time>2012-12-02T10:20:12.25Z</time>
      </trkpt>
      <trkpt lat="45.57346" lon="5.97578">
        <ele>315</ele>
        <time>2012-12-02T10:20:14.29Z</time>
      </trkpt>
      <trkpt lat="45.57348" lon="5.97581">
        <ele>315</ele>
        <time>2012-12-02T10:20:16.27Z</time>
      </trkpt>
      <trkpt lat="45.57351" lon="5.97586">
        <ele>315</ele>
        <time>2012-12-02T10:20:18.33Z</time>
      </trkpt>
      <trkpt lat="45.57354" lon="5.97593">
        <ele>315</ele>
        <time>2012-12-02T10:20:20.25Z</time>
      </trkpt>
      <trkpt lat="45.57356" lon="5.97598">
        <ele>315</ele>
        <time>2012-12-02T10:20:22.28Z</time>
      </trkpt>
      <trkpt lat="45.57359" lon="5.97605">
        <ele>315</ele>
        <time>2012-12-02T10:20:24.23Z</time>
      </trkpt>
      <trkpt lat="45.57363" lon="5.9761">
        <ele>315</ele>
        <time>2012-12-02T10:20:26.28Z</time>
      </trkpt>
      <trkpt lat="45.57366" lon="5.97616">
        <ele>315</ele>
        <time>2012-12-02T10:20:28.25Z</time>
      </trkpt>
      <trkpt lat="45.57367" lon="5.97622">
        <ele>315</ele>
        <time>2012-12-02T10:20:30.28Z</time>
      </trkpt>
      <trkpt lat="45.57371" lon="5.97629">
        <ele>316</ele>
        <time>2012-12-02T10:20:32.26Z</time>
      </trkpt>
      <trkpt lat="45.57374" lon="5.97635">
        <ele>316</ele>
        <time>2012-12-02T10:20:34.31Z</time>
      </trkpt>
      <trkpt lat="45.57377" lon="5.97639">
        <ele>316</ele>
        <time>2012-12-02T10:20:36.22Z</time>
      </trkpt>
      <trkpt lat="45.5738" lon="5.97645">
        <ele>316</ele>
        <time>2012-12-02T10:20:38.28Z</time>
      </trkpt>
      <trkpt lat="45.57382" lon="5.9765">
        <ele>316</ele>
        <time>2012-12-02T10:20:40.24Z</time>
      </trkpt>
      <trkpt lat="45.57383" lon="5.97654">
        <ele>316</ele>
        <time>2012-12-02T10:20:42.29Z</time>
      </trkpt>
      <trkpt lat="45.57385" lon="5.97658">
        <ele>316</ele>
        <time>2012-12-02T10:20:44.25Z</time>
      </trkpt>
      <trkpt lat="45.57386" lon="5.97664">
        <ele>316</ele>
        <time>2012-12-02T10:20:46.25Z</time>
      </trkpt>
      <trkpt lat="45.57389" lon="5.97669">
        <ele>316</ele>
        <time>2012-12-02T10:20:48.3Z</time>
      </trkpt>
      <trkpt lat="45.57393" lon="5.97674">
        <ele>316</ele>
        <time>2012-12-02T10:20:50.32Z</time>
      </trkpt>
      <trkpt lat="45.57397" lon="5.97682">
        <ele>316</ele>
        <time>2012-12-02T10:20:52.28Z</time>
      </trkpt>
      <trkpt lat="45.57401" lon="5.97688">
        <ele>316</ele>
        <time>2012-12-02T10:20:54.29Z</time>
      </trkpt>
      <trkpt lat="45.57404" lon="5.97693">
        <ele>317</ele>
        <time>2012-12-02T10:20:56.25Z</time>
      </trkpt>
      <trkpt lat="45.57407" lon="5.97698">
        <ele>317</ele>
        <time>2012-12-02T10:20:58.24Z</time>
      </trkpt>
      <trkpt lat="45.57409" lon="5.97704">
        <ele>317</ele>
        <time>2012-12-02T10:21:00.23Z</time>
      </trkpt>
      <trkpt lat="45.57412" lon="5.97709">
        <ele>317</ele>
        <time>2012-12-02T10:21:02.27Z</time>
      </trkpt>
      <trkpt lat="45.57415" lon="5.97715">
        <ele>317</ele>
        <time>2012-12-02T10:21:04.27Z</time>
      </trkpt>
      <trkpt lat="45.57417" lon="5.97721">
        <ele>317</ele>
        <time>2012-12-02T10:21:06.3Z</time>
      </trkpt>
      <trkpt lat="45.57418" lon="5.97728">
        <ele>317</ele>
        <time>2012-12-02T10:21:08.31Z</time>
      </trkpt>
      <trkpt lat="45.57422" lon="5.97733">
        <ele>317</ele>
        <time>2012-12-02T10:21:10.25Z</time>
      </trkpt>
      <trkpt lat="45.57426" lon="5.97739">
        <ele>317</ele>
        <time>2012-12-02T10:21:12.21Z</time>
      </trkpt>
      <trkpt lat="45.57429" lon="5.97746">
        <ele>318</ele>
        <time>2012-12-02T10:21:14.24Z</time>
      </trkpt>
      <trkpt lat="45.57432" lon="5.97752">
        <ele>318</ele>
        <time>2012-12-02T10:21:16.23Z</time>
      </trkpt>
      <trkpt lat="45.57435" lon="5.97757">
        <ele>318</ele>
        <time>2012-12-02T10:21:18.26Z</time>
      </trkpt>
      <trkpt lat="45.57439" lon="5.9776">
        <ele>318</ele>
        <time>2012-12-02T10:21:20.31Z</time>
      </trkpt>
      <trkpt lat="45.57445" lon="5.97765">
        <ele>319</ele>
        <time>2012-12-02T10:21:22.26Z</time>
      </trkpt>
      <trkpt lat="45.57448" lon="5.9777">
        <ele>319</ele>
        <time>2012-12-02T10:21:24.25Z</time>
      </trkpt>
      <trkpt lat="45.5745" lon="5.97774">
        <ele>319</ele>
        <time>2012-12-02T10:21:26.23Z</time>
      </trkpt>
      <trkpt lat="45.57455" lon="5.97779">
        <ele>319</ele>
        <time>2012-12-02T10:21:28.22Z</time>
      </trkpt>
      <trkpt lat="45.57457" lon="5.97784">
        <ele>320</ele>
        <time>2012-12-02T10:21:30.25Z</time>
      </trkpt>
      <trkpt lat="45.57459" lon="5.97789">
        <ele>320</ele>
        <time>2012-12-02T10:21:32.23Z</time>
      </trkpt>
      <trkpt lat="45.5746" lon="5.97794">
        <ele>320</ele>
        <time>2012-12-02T10:21:34.25Z</time>
      </trkpt>
      <trkpt lat="45.57461" lon="5.97798">
        <ele>320</ele>
        <time>2012-12-02T10:21:36.35Z</time>
      </trkpt>
      <trkpt lat="45.57463" lon="5.97803">
        <ele>320</ele>
        <time>2012-12-02T10:21:38.27Z</time>
      </trkpt>
      <trkpt lat="45.57465" lon="5.97808">
        <ele>321</ele>
        <time>2012-12-02T10:21:40.28Z</time>
      </trkpt>
      <trkpt lat="45.5747" lon="5.97814">
        <ele>321</ele>
        <time>2012-12-02T10:21:42.24Z</time>
      </trkpt>
      <trkpt lat="45.57472" lon="5.9782">
        <ele>322</ele>
        <time>2012-12-02T10:21:44.24Z</time>
      </trkpt>
      <trkpt lat="45.57475" lon="5.97825">
        <ele>322</ele>
        <time>2012-12-02T10:21:46.26Z</time>
      </trkpt>
      <trkpt lat="45.57485" lon="5.9783">
        <ele>324</ele>
        <time>2012-12-02T10:21:48.21Z</time>
      </trkpt>
      <trkpt lat="45.57489" lon="5.97835">
        <ele>325</ele>
        <time>2012-12-02T10:21:50.23Z</time>
      </trkpt>
      <trkpt lat="45.57491" lon="5.97841">
        <ele>326</ele>
        <time>2012-12-02T10:21:52.25Z</time>
      </trkpt>
      <trkpt lat="45.57495" lon="5.97845">
        <ele>326</ele>
        <time>2012-12-02T10:21:54.25Z</time>
      </trkpt>
      <trkpt lat="45.575" lon="5.97851">
        <ele>327</ele>
        <time>2012-12-02T10:21:56.23Z</time>
      </trkpt>
      <trkpt lat="45.57506" lon="5.97856">
        <ele>329</ele>
        <time>2012-12-02T10:21:58.23Z</time>
      </trkpt>
      <trkpt lat="45.5751" lon="5.97861">
        <ele>330</ele>
        <time>2012-12-02T10:22:00.25Z</time>
      </trkpt>
      <trkpt lat="45.57515" lon="5.97866">
        <ele>331</ele>
        <time>2012-12-02T10:22:02.23Z</time>
      </trkpt>
      <trkpt lat="45.57515" lon="5.97872">
        <ele>331</ele>
        <time>2012-12-02T10:22:04.23Z</time>
      </trkpt>
      <trkpt lat="45.57512" lon="5.9788">
        <ele>331</ele>
        <time>2012-12-02T10:22:06.23Z</time>
      </trkpt>
      <trkpt lat="45.57509" lon="5.97887">
        <ele>331</ele>
        <time>2012-12-02T10:22:08.25Z</time>
      </trkpt>
      <trkpt lat="45.57505" lon="5.97894">
        <ele>332</ele>
        <time>2012-12-02T10:22:10.27Z</time>
      </trkpt>
      <trkpt lat="45.57501" lon="5.979">
        <ele>331</ele>
        <time>2012-12-02T10:22:12.22Z</time>
      </trkpt>
      <trkpt lat="45.57497" lon="5.97904">
        <ele>331</ele>
        <time>2012-12-02T10:22:14.25Z</time>
      </trkpt>
      <trkpt lat="45.57494" lon="5.97908">
        <ele>331</ele>
        <time>2012-12-02T10:22:16.23Z</time>
      </trkpt>
      <trkpt lat="45.5749" lon="5.97914">
        <ele>331</ele>
        <time>2012-12-02T10:22:18.27Z</time>
      </trkpt>
      <trkpt lat="45.57486" lon="5.97919">
        <ele>330</ele>
        <time>2012-12-02T10:22:20.21Z</time>
      </trkpt>
      <trkpt lat="45.57482" lon="5.97925">
        <ele>330</ele>
        <time>2012-12-02T10:22:22.24Z</time>
      </trkpt>
      <trkpt lat="45.57478" lon="5.9793">
        <ele>330</ele>
        <time>2012-12-02T10:22:24.29Z</time>
      </trkpt>
      <trkpt lat="45.57474" lon="5.97935">
        <ele>329</ele>
        <time>2012-12-02T10:22:26.25Z</time>
      </trkpt>
      <trkpt lat="45.5747" lon="5.97941">
        <ele>330</ele>
        <time>2012-12-02T10:22:28.24Z</time>
      </trkpt>
      <trkpt lat="45.57467" lon="5.97946">
        <ele>330</ele>
        <time>2012-12-02T10:22:30.24Z</time>
      </trkpt>
      <trkpt lat="45.57464" lon="5.97952">
        <ele>330</ele>
        <time>2012-12-02T10:22:32.23Z</time>
      </trkpt>
      <trkpt lat="45.5746" lon="5.97957">
        <ele>330</ele>
        <time>2012-12-02T10:22:34.27Z</time>
      </trkpt>
      <trkpt lat="45.57455" lon="5.97962">
        <ele>330</ele>
        <time>2012-12-02T10:22:36.22Z</time>
      </trkpt>
      <trkpt lat="45.57451" lon="5.97966">
        <ele>330</ele>
        <time>2012-12-02T10:22:38.25Z</time>
      </trkpt>
      <trkpt lat="45.57446" lon="5.97969">
        <ele>329</ele>
        <time>2012-12-02T10:22:40.25Z</time>
      </trkpt>
      <trkpt lat="45.57441" lon="5.97972">
        <ele>329</ele>
        <time>2012-12-02T10:22:42.27Z</time>
      </trkpt>
      <trkpt lat="45.57436" lon="5.97975">
        <ele>329</ele>
        <time>2012-12-02T10:22:44.24Z</time>
      </trkpt>
      <trkpt lat="45.57431" lon="5.97978">
        <ele>329</ele>
        <time>2012-12-02T10:22:46.28Z</time>
      </trkpt>
      <trkpt lat="45.57425" lon="5.9798">
        <ele>328</ele>
        <time>2012-12-02T10:22:48.24Z</time>
      </trkpt>
      <trkpt lat="45.57422" lon="5.97985">
        <ele>328</ele>
        <time>2012-12-02T10:22:50.28Z</time>
      </trkpt>
      <trkpt lat="45.57419" lon="5.97991">
        <ele>328</ele>
        <time>2012-12-02T10:22:52.24Z</time>
      </trkpt>
      <trkpt lat="45.57414" lon="5.97995">
        <ele>328</ele>
        <time>2012-12-02T10:22:54.24Z</time>
      </trkpt>
      <trkpt lat="45.57409" lon="5.97999">
        <ele>327</ele>
        <time>2012-12-02T10:22:56.24Z</time>
      </trkpt>
      <trkpt lat="45.57405" lon="5.98004">
        <ele>327</ele>
        <time>2012-12-02T10:22:58.25Z</time>
      </trkpt>
      <trkpt lat="45.57402" lon="5.98009">
        <ele>327</ele>
        <time>2012-12-02T10:23:00.24Z</time>
      </trkpt>
      <trkpt lat="45.57399" lon="5.98014">
        <ele>327</ele>
        <time>2012-12-02T10:23:02.24Z</time>
      </trkpt>
      <trkpt lat="45.57395" lon="5.98018">
        <ele>327</ele>
        <time>2012-12-02T10:23:04.24Z</time>
      </trkpt>
      <trkpt lat="45.57391" lon="5.98022">
        <ele>327</ele>
        <time>2012-12-02T10:23:06.29Z</time>
      </trkpt>
      <trkpt lat="45.57386" lon="5.98026">
        <ele>328</ele>
        <time>2012-12-02T10:23:08.22Z</time>
      </trkpt>
      <trkpt lat="45.57382" lon="5.98031">
        <ele>328</ele>
        <time>2012-12-02T10:23:10.25Z</time>
      </trkpt>
      <trkpt lat="45.57382" lon="5.98036">
        <ele>328</ele>
        <time>2012-12-02T10:23:12.26Z</time>
      </trkpt>
      <trkpt lat="45.5738" lon="5.98041">
        <ele>328</ele>
        <time>2012-12-02T10:23:14.26Z</time>
      </trkpt>
      <trkpt lat="45.57376" lon="5.98045">
        <ele>328</ele>
        <time>2012-12-02T10:23:16.24Z</time>
      </trkpt>
      <trkpt lat="45.57372" lon="5.98051">
        <ele>327</ele>
        <time>2012-12-02T10:23:18.24Z</time>
      </trkpt>
      <trkpt lat="45.57369" lon="5.98057">
        <ele>327</ele>
        <time>2012-12-02T10:23:20.23Z</time>
      </trkpt>
      <trkpt lat="45.57364" lon="5.98062">
        <ele>327</ele>
        <time>2012-12-02T10:23:22.25Z</time>
      </trkpt>
      <trkpt lat="45.5736" lon="5.98065">
        <ele>327</ele>
        <time>2012-12-02T10:23:24.23Z</time>
      </trkpt>
      <trkpt lat="45.57356" lon="5.9807">
        <ele>327</ele>
        <time>2012-12-02T10:23:26.24Z</time>
      </trkpt>
      <trkpt lat="45.57353" lon="5.98075">
        <ele>327</ele>
        <time>2012-12-02T10:23:28.24Z</time>
      </trkpt>
      <trkpt lat="45.57353" lon="5.98082">
        <ele>327</ele>
        <time>2012-12-02T10:23:30.28Z</time>
      </trkpt>
      <trkpt lat="45.57354" lon="5.98089">
        <ele>327</ele>
        <time>2012-12-02T10:23:32.27Z</time>
      </trkpt>
      <trkpt lat="45.57351" lon="5.98094">
        <ele>327</ele>
        <time>2012-12-02T10:23:34.26Z</time>
      </trkpt>
      <trkpt lat="45.57349" lon="5.98098">
        <ele>327</ele>
        <time>2012-12-02T10:23:36.23Z</time>
      </trkpt>
      <trkpt lat="45.57345" lon="5.98103">
        <ele>327</ele>
        <time>2012-12-02T10:23:38.26Z</time>
      </trkpt>
      <trkpt lat="45.5734" lon="5.98108">
        <ele>327</ele>
        <time>2012-12-02T10:23:40.23Z</time>
      </trkpt>
      <trkpt lat="45.57337" lon="5.98114">
        <ele>327</ele>
        <time>2012-12-02T10:23:42.22Z</time>
      </trkpt>
      <trkpt lat="45.57333" lon="5.9812">
        <ele>327</ele>
        <time>2012-12-02T10:23:44.26Z</time>
      </trkpt>
      <trkpt lat="45.57328" lon="5.98124">
        <ele>327</ele>
        <time>2012-12-02T10:23:46.26Z</time>
      </trkpt>
      <trkpt lat="45.57322" lon="5.98129">
        <ele>326</ele>
        <time>2012-12-02T10:23:48.26Z</time>
      </trkpt>
      <trkpt lat="45.57314" lon="5.98134">
        <ele>326</ele>
        <time>2012-12-02T10:23:50.25Z</time>
      </trkpt>
      <trkpt lat="45.57309" lon="5.98138">
        <ele>326</ele>
        <time>2012-12-02T10:23:52.25Z</time>
      </trkpt>
      <trkpt lat="45.57306" lon="5.98144">
        <ele>326</ele>
        <time>2012-12-02T10:23:54.28Z</time>
      </trkpt>
      <trkpt lat="45.57303" lon="5.98149">
        <ele>326</ele>
        <time>2012-12-02T10:23:56.24Z</time>
      </trkpt>
      <trkpt lat="45.57299" lon="5.98153">
        <ele>326</ele>
        <time>2012-12-02T10:23:58.24Z</time>
      </trkpt>
      <trkpt lat="45.57295" lon="5.98158">
        <ele>326</ele>
        <time>2012-12-02T10:24:00.29Z</time>
      </trkpt>
      <trkpt lat="45.57291" lon="5.98163">
        <ele>326</ele>
        <time>2012-12-02T10:24:02.24Z</time>
      </trkpt>
      <trkpt lat="45.57286" lon="5.98167">
        <ele>325</ele>
        <time>2012-12-02T10:24:04.23Z</time>
      </trkpt>
      <trkpt lat="45.5728" lon="5.98162">
        <ele>324</ele>
        <time>2012-12-02T10:24:06.23Z</time>
      </trkpt>
      <trkpt lat="45.57275" lon="5.98158">
        <ele>324</ele>
        <time>2012-12-02T10:24:08.24Z</time>
      </trkpt>
      <trkpt lat="45.5727" lon="5.98154">
        <ele>323</ele>
        <time>2012-12-02T10:24:10.23Z</time>
      </trkpt>
      <trkpt lat="45.57267" lon="5.9815">
        <ele>322</ele>
        <time>2012-12-02T10:24:12.2Z</time>
      </trkpt>
      <trkpt lat="45.57262" lon="5.98145">
        <ele>321</ele>
        <time>2012-12-02T10:24:14.24Z</time>
      </trkpt>
      <trkpt lat="45.57259" lon="5.9814">
        <ele>321</ele>
        <time>2012-12-02T10:24:16.23Z</time>
      </trkpt>
      <trkpt lat="45.57256" lon="5.98134">
        <ele>320</ele>
        <time>2012-12-02T10:24:18.28Z</time>
      </trkpt>
      <trkpt lat="45.57252" lon="5.9813">
        <ele>320</ele>
        <time>2012-12-02T10:24:20.25Z</time>
      </trkpt>
      <trkpt lat="45.57248" lon="5.98128">
        <ele>319</ele>
        <time>2012-12-02T10:24:22.24Z</time>
      </trkpt>
      <trkpt lat="45.57244" lon="5.98128">
        <ele>319</ele>
        <time>2012-12-02T10:24:24.27Z</time>
      </trkpt>
      <trkpt lat="45.57239" lon="5.98132">
        <ele>319</ele>
        <time>2012-12-02T10:24:26.28Z</time>
      </trkpt>
      <trkpt lat="45.57235" lon="5.98134">
        <ele>319</ele>
        <time>2012-12-02T10:24:28.24Z</time>
      </trkpt>
      <trkpt lat="45.57231" lon="5.98138">
        <ele>319</ele>
        <time>2012-12-02T10:24:30.25Z</time>
      </trkpt>
      <trkpt lat="45.57228" lon="5.98142">
        <ele>319</ele>
        <time>2012-12-02T10:24:32.27Z</time>
      </trkpt>
      <trkpt lat="45.57225" lon="5.98146">
        <ele>319</ele>
        <time>2012-12-02T10:24:34.27Z</time>
      </trkpt>
      <trkpt lat="45.57222" lon="5.98148">
        <ele>319</ele>
        <time>2012-12-02T10:24:36.24Z</time>
      </trkpt>
      <trkpt lat="45.57218" lon="5.98151">
        <ele>320</ele>
        <time>2012-12-02T10:24:38.23Z</time>
      </trkpt>
      <trkpt lat="45.57214" lon="5.98157">
        <ele>320</ele>
        <time>2012-12-02T10:24:40.24Z</time>
      </trkpt>
      <trkpt lat="45.5721" lon="5.98162">
        <ele>320</ele>
        <time>2012-12-02T10:24:42.27Z</time>
      </trkpt>
      <trkpt lat="45.57205" lon="5.98166">
        <ele>320</ele>
        <time>2012-12-02T10:24:44.23Z</time>
      </trkpt>
      <trkpt lat="45.57201" lon="5.98168">
        <ele>320</ele>
        <time>2012-12-02T10:24:46.25Z</time>
      </trkpt>
      <trkpt lat="45.57196" lon="5.98171">
        <ele>320</ele>
        <time>2012-12-02T10:24:48.26Z</time>
      </trkpt>
      <trkpt lat="45.5719" lon="5.98175">
        <ele>320</ele>
        <time>2012-12-02T10:24:50.23Z</time>
      </trkpt>
      <trkpt lat="45.57185" lon="5.98179">
        <ele>320</ele>
        <time>2012-12-02T10:24:52.22Z</time>
      </trkpt>
      <trkpt lat="45.5718" lon="5.98182">
        <ele>320</ele>
        <time>2012-12-02T10:24:54.25Z</time>
      </trkpt>
      <trkpt lat="45.57177" lon="5.98185">
        <ele>320</ele>
        <time>2012-12-02T10:24:56.21Z</time>
      </trkpt>
      <trkpt lat="45.57174" lon="5.98188">
        <ele>320</ele>
        <time>2012-12-02T10:24:58.24Z</time>
      </trkpt>
      <trkpt lat="45.5717" lon="5.98191">
        <ele>320</ele>
        <time>2012-12-02T10:25:00.23Z</time>
      </trkpt>
      <trkpt lat="45.57166" lon="5.98193">
        <ele>320</ele>
        <time>2012-12-02T10:25:02.24Z</time>
      </trkpt>
      <trkpt lat="45.5716" lon="5.98197">
        <ele>320</ele>
        <time>2012-12-02T10:25:04.26Z</time>
      </trkpt>
      <trkpt lat="45.57154" lon="5.98201">
        <ele>320</ele>
        <time>2012-12-02T10:25:06.28Z</time>
      </trkpt>
      <trkpt lat="45.57149" lon="5.98204">
        <ele>320</ele>
        <time>2012-12-02T10:25:08.26Z</time>
      </trkpt>
      <trkpt lat="45.57144" lon="5.98206">
        <ele>320</ele>
        <time>2012-12-02T10:25:10.22Z</time>
      </trkpt>
      <trkpt lat="45.57139" lon="5.98208">
        <ele>320</ele>
        <time>2012-12-02T10:25:12.25Z</time>
      </trkpt>
      <trkpt lat="45.57133" lon="5.98207">
        <ele>320</ele>
        <time>2012-12-02T10:25:14.26Z</time>
      </trkpt>
      <trkpt lat="45.57127" lon="5.98204">
        <ele>320</ele>
        <time>2012-12-02T10:25:16.24Z</time>
      </trkpt>
      <trkpt lat="45.57123" lon="5.982">
        <ele>319</ele>
        <time>2012-12-02T10:25:18.26Z</time>
      </trkpt>
      <trkpt lat="45.57118" lon="5.98195">
        <ele>319</ele>
        <time>2012-12-02T10:25:20.26Z</time>
      </trkpt>
      <trkpt lat="45.57115" lon="5.98188">
        <ele>319</ele>
        <time>2012-12-02T10:25:22.27Z</time>
      </trkpt>
      <trkpt lat="45.57112" lon="5.98183">
        <ele>318</ele>
        <time>2012-12-02T10:25:24.28Z</time>
      </trkpt>
      <trkpt lat="45.57108" lon="5.98177">
        <ele>318</ele>
        <time>2012-12-02T10:25:26.24Z</time>
      </trkpt>
      <trkpt lat="45.57104" lon="5.98172">
        <ele>318</ele>
        <time>2012-12-02T10:25:28.23Z</time>
      </trkpt>
      <trkpt lat="45.57099" lon="5.98168">
        <ele>318</ele>
        <time>2012-12-02T10:25:30.24Z</time>
      </trkpt>
      <trkpt lat="45.57095" lon="5.98165">
        <ele>318</ele>
        <time>2012-12-02T10:25:32.24Z</time>
      </trkpt>
      <trkpt lat="45.57091" lon="5.98166">
        <ele>318</ele>
        <time>2012-12-02T10:25:34.26Z</time>
      </trkpt>
      <trkpt lat="45.57088" lon="5.9817">
        <ele>318</ele>
        <time>2012-12-02T10:25:36.25Z</time>
      </trkpt>
      <trkpt lat="45.57085" lon="5.98173">
        <ele>318</ele>
        <time>2012-12-02T10:25:38.27Z</time>
      </trkpt>
      <trkpt lat="45.57081" lon="5.98178">
        <ele>318</ele>
        <time>2012-12-02T10:25:40.22Z</time>
      </trkpt>
      <trkpt lat="45.57077" lon="5.98183">
        <ele>318</ele>
        <time>2012-12-02T10:25:42.28Z</time>
      </trkpt>
      <trkpt lat="45.57073" lon="5.98187">
        <ele>318</ele>
        <time>2012-12-02T10:25:44.22Z</time>
      </trkpt>
      <trkpt lat="45.5707" lon="5.9819">
        <ele>317</ele>
        <time>2012-12-02T10:25:46.22Z</time>
      </trkpt>
      <trkpt lat="45.57067" lon="5.98194">
        <ele>317</ele>
        <time>2012-12-02T10:25:48.23Z</time>
      </trkpt>
      <trkpt lat="45.57064" lon="5.98197">
        <ele>317</ele>
        <time>2012-12-02T10:25:50.24Z</time>
      </trkpt>
      <trkpt lat="45.5706" lon="5.982">
        <ele>317</ele>
        <time>2012-12-02T10:25:52.26Z</time>
      </trkpt>
      <trkpt lat="45.57054" lon="5.982">
        <ele>317</ele>
        <time>2012-12-02T10:25:54.26Z</time>
      </trkpt>
      <trkpt lat="45.57047" lon="5.982">
        <ele>317</ele>
        <time>2012-12-02T10:25:56.25Z</time>
      </trkpt>
      <trkpt lat="45.57041" lon="5.98199">
        <ele>317</ele>
        <time>2012-12-02T10:25:58.24Z</time>
      </trkpt>
      <trkpt lat="45.57035" lon="5.98198">
        <ele>317</ele>
        <time>2012-12-02T10:26:00.22Z</time>
      </trkpt>
      <trkpt lat="45.5703" lon="5.98196">
        <ele>316</ele>
        <time>2012-12-02T10:26:02.23Z</time>
      </trkpt>
      <trkpt lat="45.57025" lon="5.98194">
        <ele>316</ele>
        <time>2012-12-02T10:26:04.23Z</time>
      </trkpt>
      <trkpt lat="45.57021" lon="5.98194">
        <ele>316</ele>
        <time>2012-12-02T10:26:06.23Z</time>
      </trkpt>
      <trkpt lat="45.57016" lon="5.98193">
        <ele>316</ele>
        <time>2012-12-02T10:26:08.27Z</time>
      </trkpt>
      <trkpt lat="45.57012" lon="5.98195">
        <ele>316</ele>
        <time>2012-12-02T10:26:10.24Z</time>
      </trkpt>
      <trkpt lat="45.57012" lon="5.98202">
        <ele>317</ele>
        <time>2012-12-02T10:26:12.21Z</time>
      </trkpt>
      <trkpt lat="45.57015" lon="5.98212">
        <ele>317</ele>
        <time>2012-12-02T10:26:14.21Z</time>
      </trkpt>
      <trkpt lat="45.57019" lon="5.98224">
        <ele>318</ele>
        <time>2012-12-02T10:26:16.21Z</time>
      </trkpt>
      <trkpt lat="45.5702" lon="5.98229">
        <ele>318</ele>
        <time>2012-12-02T10:26:18.29Z</time>
      </trkpt>
      <trkpt lat="45.5702" lon="5.98235">
        <ele>318</ele>
        <time>2012-12-02T10:26:20.24Z</time>
      </trkpt>
      <trkpt lat="45.57019" lon="5.9824">
        <ele>319</ele>
        <time>2012-12-02T10:26:22.24Z</time>
      </trkpt>
      <trkpt lat="45.57017" lon="5.98248">
        <ele>319</ele>
        <time>2012-12-02T10:26:24.24Z</time>
      </trkpt>
      <trkpt lat="45.57016" lon="5.98254">
        <ele>320</ele>
        <time>2012-12-02T10:26:26.24Z</time>
      </trkpt>
      <trkpt lat="45.57015" lon="5.98262">
        <ele>320</ele>
        <time>2012-12-02T10:26:28.27Z</time>
      </trkpt>
      <trkpt lat="45.57014" lon="5.98268">
        <ele>321</ele>
        <time>2012-12-02T10:26:30.23Z</time>
      </trkpt>
      <trkpt lat="45.57011" lon="5.98274">
        <ele>322</ele>
        <time>2012-12-02T10:26:32.24Z</time>
      </trkpt>
      <trkpt lat="45.5701" lon="5.98281">
        <ele>322</ele>
        <time>2012-12-02T10:26:34.27Z</time>
      </trkpt>
      <trkpt lat="45.57008" lon="5.98287">
        <ele>323</ele>
        <time>2012-12-02T10:26:36.23Z</time>
      </trkpt>
      <trkpt lat="45.57005" lon="5.98292">
        <ele>324</ele>
        <time>2012-12-02T10:26:38.24Z</time>
      </trkpt>
      <trkpt lat="45.57002" lon="5.98297">
        <ele>325</ele>
        <time>2012-12-02T10:26:40.26Z</time>
      </trkpt>
      <trkpt lat="45.56998" lon="5.98303">
        <ele>326</ele>
        <time>2012-12-02T10:26:42.29Z</time>
      </trkpt>
      <trkpt lat="45.56996" lon="5.98309">
        <ele>327</ele>
        <time>2012-12-02T10:26:44.25Z</time>
      </trkpt>
      <trkpt lat="45.56994" lon="5.98315">
        <ele>328</ele>
        <time>2012-12-02T10:26:46.23Z</time>
      </trkpt>
      <trkpt lat="45.56992" lon="5.98321">
        <ele>329</ele>
        <time>2012-12-02T10:26:48.28Z</time>
      </trkpt>
      <trkpt lat="45.56988" lon="5.98327">
        <ele>330</ele>
        <time>2012-12-02T10:26:50.25Z</time>
      </trkpt>
      <trkpt lat="45.56985" lon="5.98333">
        <ele>331</ele>
        <time>2012-12-02T10:26:52.24Z</time>
      </trkpt>
      <trkpt lat="45.56984" lon="5.98339">
        <ele>332</ele>
        <time>2012-12-02T10:26:54.24Z</time>
      </trkpt>
      <trkpt lat="45.56984" lon="5.98343">
        <ele>332</ele>
        <time>2012-12-02T10:26:56.26Z</time>
      </trkpt>
      <trkpt lat="45.56983" lon="5.98345">
        <ele>333</ele>
        <time>2012-12-02T10:26:58.26Z</time>
      </trkpt>
      <trkpt lat="45.56985" lon="5.98345">
        <ele>333</ele>
        <time>2012-12-02T10:27:00.23Z</time>
      </trkpt>
      <trkpt lat="45.56989" lon="5.98344">
        <ele>334</ele>
        <time>2012-12-02T10:27:02.22Z</time>
      </trkpt>
      <trkpt lat="45.56994" lon="5.98342">
        <ele>334</ele>
        <time>2012-12-02T10:27:04.2Z</time>
      </trkpt>
      <trkpt lat="45.56998" lon="5.98341">
        <ele>333</ele>
        <time>2012-12-02T10:27:06.22Z</time>
      </trkpt>
      <trkpt lat="45.57002" lon="5.98341">
        <ele>333</ele>
        <time>2012-12-02T10:27:08.24Z</time>
      </trkpt>
      <trkpt lat="45.57006" lon="5.98341">
        <ele>333</ele>
        <time>2012-12-02T10:27:10.21Z</time>
      </trkpt>
      <trkpt lat="45.5701" lon="5.98339">
        <ele>333</ele>
        <time>2012-12-02T10:27:12.24Z</time>
      </trkpt>
      <trkpt lat="45.57013" lon="5.98336">
        <ele>333</ele>
        <time>2012-12-02T10:27:14.25Z</time>
      </trkpt>
      <trkpt lat="45.57016" lon="5.98333">
        <ele>333</ele>
        <time>2012-12-02T10:27:16.23Z</time>
      </trkpt>
      <trkpt lat="45.57021" lon="5.9833">
        <ele>332</ele>
        <time>2012-12-02T10:27:18.25Z</time>
      </trkpt>
      <trkpt lat="45.57025" lon="5.98328">
        <ele>332</ele>
        <time>2012-12-02T10:27:20.23Z</time>
      </trkpt>
      <trkpt lat="45.57029" lon="5.98327">
        <ele>332</ele>
        <time>2012-12-02T10:27:22.29Z</time>
      </trkpt>
      <trkpt lat="45.57034" lon="5.98326">
        <ele>331</ele>
        <time>2012-12-02T10:27:24.25Z</time>
      </trkpt>
      <trkpt lat="45.57037" lon="5.98323">
        <ele>331</ele>
        <time>2012-12-02T10:27:26.24Z</time>
      </trkpt>
      <trkpt lat="45.57041" lon="5.98321">
        <ele>331</ele>
        <time>2012-12-02T10:27:28.24Z</time>
      </trkpt>
      <trkpt lat="45.57044" lon="5.98319">
        <ele>331</ele>
        <time>2012-12-02T10:27:30.28Z</time>
      </trkpt>
      <trkpt lat="45.57048" lon="5.98318">
        <ele>330</ele>
        <time>2012-12-02T10:27:32.23Z</time>
      </trkpt>
      <trkpt lat="45.57051" lon="5.98318">
        <ele>331</ele>
        <time>2012-12-02T10:27:34.24Z</time>
      </trkpt>
      <trkpt lat="45.57055" lon="5.98318">
        <ele>331</ele>
        <time>2012-12-02T10:27:36.23Z</time>
      </trkpt>
      <trkpt lat="45.5706" lon="5.98318">
        <ele>331</ele>
        <time>2012-12-02T10:27:38.26Z</time>
      </trkpt>
      <trkpt lat="45.57064" lon="5.98319">
        <ele>331</ele>
        <time>2012-12-02T10:27:40.25Z</time>
      </trkpt>
      <trkpt lat="45.57067" lon="5.98316">
        <ele>331</ele>
        <time>2012-12-02T10:27:42.25Z</time>
      </trkpt>
      <trkpt lat="45.57072" lon="5.98316">
        <ele>331</ele>
        <time>2012-12-02T10:27:44.23Z</time>
      </trkpt>
      <trkpt lat="45.57076" lon="5.98316">
        <ele>332</ele>
        <time>2012-12-02T10:27:46.26Z</time>
      </trkpt>
      <trkpt lat="45.5708" lon="5.98316">
        <ele>332</ele>
        <time>2012-12-02T10:27:48.29Z</time>
      </trkpt>
      <trkpt lat="45.57083" lon="5.98317">
        <ele>332</ele>
        <time>2012-12-02T10:27:50.25Z</time>
      </trkpt>
      <trkpt lat="45.57086" lon="5.98318">
        <ele>333</ele>
        <time>2012-12-02T10:27:52.23Z</time>
      </trkpt>
      <trkpt lat="45.5709" lon="5.9832">
        <ele>333</ele>
        <time>2012-12-02T10:27:54.25Z</time>
      </trkpt>
      <trkpt lat="45.57092" lon="5.98319">
        <ele>334</ele>
        <time>2012-12-02T10:27:56.24Z</time>
      </trkpt>
      <trkpt lat="45.57095" lon="5.98321">
        <ele>334</ele>
        <time>2012-12-02T10:27:58.24Z</time>
      </trkpt>
      <trkpt lat="45.57098" lon="5.98322">
        <ele>335</ele>
        <time>2012-12-02T10:28:00.26Z</time>
      </trkpt>
      <trkpt lat="45.57102" lon="5.98322">
        <ele>335</ele>
        <time>2012-12-02T10:28:02.27Z</time>
      </trkpt>
      <trkpt lat="45.57105" lon="5.98324">
        <ele>335</ele>
        <time>2012-12-02T10:28:04.26Z</time>
      </trkpt>
      <trkpt lat="45.57109" lon="5.98327">
        <ele>336</ele>
        <time>2012-12-02T10:28:06.24Z</time>
      </trkpt>
      <trkpt lat="45.57112" lon="5.98327">
        <ele>336</ele>
        <time>2012-12-02T10:28:08.23Z</time>
      </trkpt>
      <trkpt lat="45.57114" lon="5.98328">
        <ele>337</ele>
        <time>2012-12-02T10:28:10.26Z</time>
      </trkpt>
      <trkpt lat="45.57116" lon="5.98329">
        <ele>337</ele>
        <time>2012-12-02T10:28:12.23Z</time>
      </trkpt>
      <trkpt lat="45.57117" lon="5.9833">
        <ele>337</ele>
        <time>2012-12-02T10:28:14.26Z</time>
      </trkpt>
      <trkpt lat="45.57121" lon="5.98329">
        <ele>338</ele>
        <time>2012-12-02T10:28:16.26Z</time>
      </trkpt>
      <trkpt lat="45.57126" lon="5.9833">
        <ele>338</ele>
        <time>2012-12-02T10:28:18.24Z</time>
      </trkpt>
      <trkpt lat="45.57129" lon="5.9833">
        <ele>339</ele>
        <time>2012-12-02T10:28:20.24Z</time>
      </trkpt>
      <trkpt lat="45.57131" lon="5.98334">
        <ele>340</ele>
        <time>2012-12-02T10:28:22.24Z</time>
      </trkpt>
      <trkpt lat="45.57133" lon="5.98333">
        <ele>340</ele>
        <time>2012-12-02T10:28:24.25Z</time>
      </trkpt>
      <trkpt lat="45.57135" lon="5.98334">
        <ele>340</ele>
        <time>2012-12-02T10:28:26.24Z</time>
      </trkpt>
      <trkpt lat="45.57139" lon="5.98336">
        <ele>341</ele>
        <time>2012-12-02T10:28:28.23Z</time>
      </trkpt>
      <trkpt lat="45.57148" lon="5.98341">
        <ele>343</ele>
        <time>2012-12-02T10:28:30.24Z</time>
      </trkpt>
      <trkpt lat="45.5715" lon="5.98342">
        <ele>343</ele>
        <time>2012-12-02T10:28:32.24Z</time>
      </trkpt>
      <trkpt lat="45.57154" lon="5.98345">
        <ele>344</ele>
        <time>2012-12-02T10:28:34.25Z</time>
      </trkpt>
      <trkpt lat="45.57157" lon="5.98345">
        <ele>345</ele>
        <time>2012-12-02T10:28:36.24Z</time>
      </trkpt>
      <trkpt lat="45.57161" lon="5.98346">
        <ele>345</ele>
        <time>2012-12-02T10:28:38.24Z</time>
      </trkpt>
      <trkpt lat="45.57165" lon="5.98349">
        <ele>346</ele>
        <time>2012-12-02T10:28:40.24Z</time>
      </trkpt>
      <trkpt lat="45.57168" lon="5.98351">
        <ele>347</ele>
        <time>2012-12-02T10:28:42.23Z</time>
      </trkpt>
      <trkpt lat="45.57171" lon="5.98353">
        <ele>347</ele>
        <time>2012-12-02T10:28:44.23Z</time>
      </trkpt>
      <trkpt lat="45.57173" lon="5.98354">
        <ele>348</ele>
        <time>2012-12-02T10:28:46.25Z</time>
      </trkpt>
      <trkpt lat="45.57176" lon="5.98356">
        <ele>348</ele>
        <time>2012-12-02T10:28:48.25Z</time>
      </trkpt>
      <trkpt lat="45.57178" lon="5.98357">
        <ele>349</ele>
        <time>2012-12-02T10:28:50.25Z</time>
      </trkpt>
      <trkpt lat="45.5718" lon="5.98359">
        <ele>349</ele>
        <time>2012-12-02T10:28:52.28Z</time>
      </trkpt>
      <trkpt lat="45.57183" lon="5.98362">
        <ele>350</ele>
        <time>2012-12-02T10:28:54.25Z</time>
      </trkpt>
      <trkpt lat="45.57185" lon="5.98364">
        <ele>350</ele>
        <time>2012-12-02T10:28:56.23Z</time>
      </trkpt>
      <trkpt lat="45.57189" lon="5.98365">
        <ele>350</ele>
        <time>2012-12-02T10:28:58.3Z</time>
      </trkpt>
      <trkpt lat="45.57192" lon="5.98366">
        <ele>351</ele>
        <time>2012-12-02T10:29:00.23Z</time>
      </trkpt>
      <trkpt lat="45.57195" lon="5.98366">
        <ele>351</ele>
        <time>2012-12-02T10:29:02.23Z</time>
      </trkpt>
      <trkpt lat="45.57197" lon="5.98365">
        <ele>351</ele>
        <time>2012-12-02T10:29:04.23Z</time>
      </trkpt>
      <trkpt lat="45.57198" lon="5.98363">
        <ele>352</ele>
        <time>2012-12-02T10:29:06.24Z</time>
      </trkpt>
      <trkpt lat="45.572" lon="5.98361">
        <ele>351</ele>
        <time>2012-12-02T10:29:08.24Z</time>
      </trkpt>
      <trkpt lat="45.57201" lon="5.9836">
        <ele>351</ele>
        <time>2012-12-02T10:29:10.25Z</time>
      </trkpt>
      <trkpt lat="45.57201" lon="5.98359">
        <ele>351</ele>
        <time>2012-12-02T10:29:12.22Z</time>
      </trkpt>
      <trkpt lat="45.57204" lon="5.98356">
        <ele>350</ele>
        <time>2012-12-02T10:29:14.25Z</time>
      </trkpt>
      <trkpt lat="45.57206" lon="5.98353">
        <ele>350</ele>
        <time>2012-12-02T10:29:16.22Z</time>
      </trkpt>
      <trkpt lat="45.57209" lon="5.98351">
        <ele>349</ele>
        <time>2012-12-02T10:29:18.26Z</time>
      </trkpt>
      <trkpt lat="45.57211" lon="5.98347">
        <ele>349</ele>
        <time>2012-12-02T10:29:20.24Z</time>
      </trkpt>
      <trkpt lat="45.57213" lon="5.98345">
        <ele>349</ele>
        <time>2012-12-02T10:29:22.28Z</time>
      </trkpt>
      <trkpt lat="45.57215" lon="5.98343">
        <ele>349</ele>
        <time>2012-12-02T10:29:24.28Z</time>
      </trkpt>
      <trkpt lat="45.57218" lon="5.98342">
        <ele>349</ele>
        <time>2012-12-02T10:29:26.24Z</time>
      </trkpt>
      <trkpt lat="45.57221" lon="5.98342">
        <ele>349</ele>
        <time>2012-12-02T10:29:28.26Z</time>
      </trkpt>
      <trkpt lat="45.57224" lon="5.98343">
        <ele>349</ele>
        <time>2012-12-02T10:29:30.23Z</time>
      </trkpt>
      <trkpt lat="45.57228" lon="5.98344">
        <ele>349</ele>
        <time>2012-12-02T10:29:32.23Z</time>
      </trkpt>
      <trkpt lat="45.57231" lon="5.98343">
        <ele>349</ele>
        <time>2012-12-02T10:29:34.24Z</time>
      </trkpt>
      <trkpt lat="45.57233" lon="5.98342">
        <ele>349</ele>
        <time>2012-12-02T10:29:36.23Z</time>
      </trkpt>
      <trkpt lat="45.57236" lon="5.98341">
        <ele>349</ele>
        <time>2012-12-02T10:29:38.25Z</time>
      </trkpt>
      <trkpt lat="45.57239" lon="5.9834">
        <ele>349</ele>
        <time>2012-12-02T10:29:40.26Z</time>
      </trkpt>
      <trkpt lat="45.57241" lon="5.9834">
        <ele>349</ele>
        <time>2012-12-02T10:29:42.25Z</time>
      </trkpt>
      <trkpt lat="45.57244" lon="5.98338">
        <ele>349</ele>
        <time>2012-12-02T10:29:44.23Z</time>
      </trkpt>
      <trkpt lat="45.57247" lon="5.98337">
        <ele>349</ele>
        <time>2012-12-02T10:29:46.23Z</time>
      </trkpt>
      <trkpt lat="45.5725" lon="5.98336">
        <ele>348</ele>
        <time>2012-12-02T10:29:48.21Z</time>
      </trkpt>
      <trkpt lat="45.57253" lon="5.98335">
        <ele>348</ele>
        <time>2012-12-02T10:29:50.25Z</time>
      </trkpt>
      <trkpt lat="45.57256" lon="5.98333">
        <ele>348</ele>
        <time>2012-12-02T10:29:52.25Z</time>
      </trkpt>
      <trkpt lat="45.57258" lon="5.98332">
        <ele>348</ele>
        <time>2012-12-02T10:29:54.24Z</time>
      </trkpt>
      <trkpt lat="45.57261" lon="5.98331">
        <ele>348</ele>
        <time>2012-12-02T10:29:56.25Z</time>
      </trkpt>
      <trkpt lat="45.57263" lon="5.9833">
        <ele>348</ele>
        <time>2012-12-02T10:29:58.25Z</time>
      </trkpt>
      <trkpt lat="45.57266" lon="5.98328">
        <ele>348</ele>
        <time>2012-12-02T10:30:00.22Z</time>
      </trkpt>
      <trkpt lat="45.57269" lon="5.98327">
        <ele>348</ele>
        <time>2012-12-02T10:30:02.23Z</time>
      </trkpt>
      <trkpt lat="45.57272" lon="5.98325">
        <ele>348</ele>
        <time>2012-12-02T10:30:04.23Z</time>
      </trkpt>
      <trkpt lat="45.57274" lon="5.98323">
        <ele>348</ele>
        <time>2012-12-02T10:30:06.24Z</time>
      </trkpt>
      <trkpt lat="45.57277" lon="5.98322">
        <ele>348</ele>
        <time>2012-12-02T10:30:08.27Z</time>
      </trkpt>
      <trkpt lat="45.57279" lon="5.98322">
        <ele>348</ele>
        <time>2012-12-02T10:30:10.26Z</time>
      </trkpt>
      <trkpt lat="45.57282" lon="5.98324">
        <ele>349</ele>
        <time>2012-12-02T10:30:12.24Z</time>
      </trkpt>
      <trkpt lat="45.57285" lon="5.98326">
        <ele>349</ele>
        <time>2012-12-02T10:30:14.25Z</time>
      </trkpt>
      <trkpt lat="45.57287" lon="5.98328">
        <ele>349</ele>
        <time>2012-12-02T10:30:16.23Z</time>
      </trkpt>
      <trkpt lat="45.57289" lon="5.98331">
        <ele>350</ele>
        <time>2012-12-02T10:30:18.23Z</time>
      </trkpt>
      <trkpt lat="45.57291" lon="5.98335">
        <ele>351</ele>
        <time>2012-12-02T10:30:20.22Z</time>
      </trkpt>
      <trkpt lat="45.57293" lon="5.98337">
        <ele>352</ele>
        <time>2012-12-02T10:30:22.25Z</time>
      </trkpt>
      <trkpt lat="45.57293" lon="5.9834">
        <ele>352</ele>
        <time>2012-12-02T10:30:24.24Z</time>
      </trkpt>
      <trkpt lat="45.57293" lon="5.98345">
        <ele>353</ele>
        <time>2012-12-02T10:30:26.27Z</time>
      </trkpt>
      <trkpt lat="45.57295" lon="5.9835">
        <ele>354</ele>
        <time>2012-12-02T10:30:28.22Z</time>
      </trkpt>
      <trkpt lat="45.57296" lon="5.98354">
        <ele>355</ele>
        <time>2012-12-02T10:30:30.23Z</time>
      </trkpt>
      <trkpt lat="45.57297" lon="5.98358">
        <ele>356</ele>
        <time>2012-12-02T10:30:32.26Z</time>
      </trkpt>
      <trkpt lat="45.57297" lon="5.98363">
        <ele>356</ele>
        <time>2012-12-02T10:30:34.25Z</time>
      </trkpt>
      <trkpt lat="45.57296" lon="5.98367">
        <ele>357</ele>
        <time>2012-12-02T10:30:36.23Z</time>
      </trkpt>
      <trkpt lat="45.57293" lon="5.98372">
        <ele>358</ele>
        <time>2012-12-02T10:30:38.26Z</time>
      </trkpt>
      <trkpt lat="45.57289" lon="5.98374">
        <ele>359</ele>
        <time>2012-12-02T10:30:40.25Z</time>
      </trkpt>
      <trkpt lat="45.57286" lon="5.98376">
        <ele>359</ele>
        <time>2012-12-02T10:30:42.27Z</time>
      </trkpt>
      <trkpt lat="45.57283" lon="5.98378">
        <ele>359</ele>
        <time>2012-12-02T10:30:44.23Z</time>
      </trkpt>
      <trkpt lat="45.57279" lon="5.9838">
        <ele>359</ele>
        <time>2012-12-02T10:30:46.24Z</time>
      </trkpt>
      <trkpt lat="45.57276" lon="5.98382">
        <ele>360</ele>
        <time>2012-12-02T10:30:48.24Z</time>
      </trkpt>
      <trkpt lat="45.57273" lon="5.98384">
        <ele>360</ele>
        <time>2012-12-02T10:30:50.24Z</time>
      </trkpt>
      <trkpt lat="45.5727" lon="5.98386">
        <ele>360</ele>
        <time>2012-12-02T10:30:52.24Z</time>
      </trkpt>
      <trkpt lat="45.57268" lon="5.98387">
        <ele>360</ele>
        <time>2012-12-02T10:30:54.24Z</time>
      </trkpt>
      <trkpt lat="45.57265" lon="5.98389">
        <ele>360</ele>
        <time>2012-12-02T10:30:56.27Z</time>
      </trkpt>
      <trkpt lat="45.57262" lon="5.98389">
        <ele>360</ele>
        <time>2012-12-02T10:30:58.25Z</time>
      </trkpt>
      <trkpt lat="45.5726" lon="5.9839">
        <ele>360</ele>
        <time>2012-12-02T10:31:00.22Z</time>
      </trkpt>
      <trkpt lat="45.57257" lon="5.9839">
        <ele>360</ele>
        <time>2012-12-02T10:31:02.25Z</time>
      </trkpt>
      <trkpt lat="45.57254" lon="5.98391">
        <ele>360</ele>
        <time>2012-12-02T10:31:04.26Z</time>
      </trkpt>
      <trkpt lat="45.5725" lon="5.98393">
        <ele>361</ele>
        <time>2012-12-02T10:31:06.24Z</time>
      </trkpt>
      <trkpt lat="45.57247" lon="5.98396">
        <ele>362</ele>
        <time>2012-12-02T10:31:08.24Z</time>
      </trkpt>
      <trkpt lat="45.57246" lon="5.98398">
        <ele>362</ele>
        <time>2012-12-02T10:31:10.26Z</time>
      </trkpt>
      <trkpt lat="45.57246" lon="5.98402">
        <ele>363</ele>
        <time>2012-12-02T10:31:12.23Z</time>
      </trkpt>
      <trkpt lat="45.57246" lon="5.98405">
        <ele>363</ele>
        <time>2012-12-02T10:31:14.25Z</time>
      </trkpt>
      <trkpt lat="45.57246" lon="5.98408">
        <ele>364</ele>
        <time>2012-12-02T10:31:16.26Z</time>
      </trkpt>
      <trkpt lat="45.57245" lon="5.9841">
        <ele>364</ele>
        <time>2012-12-02T10:31:18.25Z</time>
      </trkpt>
      <trkpt lat="45.57247" lon="5.98412">
        <ele>364</ele>
        <time>2012-12-02T10:31:20.23Z</time>
      </trkpt>
      <trkpt lat="45.5725" lon="5.98414">
        <ele>365</ele>
        <time>2012-12-02T10:31:22.28Z</time>
      </trkpt>
      <trkpt lat="45.57254" lon="5.98415">
        <ele>365</ele>
        <time>2012-12-02T10:31:24.24Z</time>
      </trkpt>
      <trkpt lat="45.57258" lon="5.98416">
        <ele>366</ele>
        <time>2012-12-02T10:31:26.26Z</time>
      </trkpt>
      <trkpt lat="45.57261" lon="5.98416">
        <ele>366</ele>
        <time>2012-12-02T10:31:28.24Z</time>
      </trkpt>
      <trkpt lat="45.57265" lon="5.98417">
        <ele>367</ele>
        <time>2012-12-02T10:31:30.27Z</time>
      </trkpt>
      <trkpt lat="45.57269" lon="5.98416">
        <ele>367</ele>
        <time>2012-12-02T10:31:32.24Z</time>
      </trkpt>
      <trkpt lat="45.57272" lon="5.98416">
        <ele>367</ele>
        <time>2012-12-02T10:31:34.24Z</time>
      </trkpt>
      <trkpt lat="45.57277" lon="5.98416">
        <ele>367</ele>
        <time>2012-12-02T10:31:36.25Z</time>
      </trkpt>
      <trkpt lat="45.5728" lon="5.98415">
        <ele>367</ele>
        <time>2012-12-02T10:31:38.22Z</time>
      </trkpt>
      <trkpt lat="45.57283" lon="5.98416">
        <ele>367</ele>
        <time>2012-12-02T10:31:40.21Z</time>
      </trkpt>
      <trkpt lat="45.57287" lon="5.98418">
        <ele>367</ele>
        <time>2012-12-02T10:31:42.22Z</time>
      </trkpt>
      <trkpt lat="45.57291" lon="5.98419">
        <ele>368</ele>
        <time>2012-12-02T10:31:44.25Z</time>
      </trkpt>
      <trkpt lat="45.57293" lon="5.98417">
        <ele>368</ele>
        <time>2012-12-02T10:31:46.27Z</time>
      </trkpt>
      <trkpt lat="45.57296" lon="5.98416">
        <ele>368</ele>
        <time>2012-12-02T10:31:48.24Z</time>
      </trkpt>
      <trkpt lat="45.573" lon="5.98417">
        <ele>368</ele>
        <time>2012-12-02T10:31:50.24Z</time>
      </trkpt>
      <trkpt lat="45.57303" lon="5.98417">
        <ele>368</ele>
        <time>2012-12-02T10:31:52.25Z</time>
      </trkpt>
      <trkpt lat="45.57306" lon="5.98417">
        <ele>368</ele>
        <time>2012-12-02T10:31:54.22Z</time>
      </trkpt>
      <trkpt lat="45.57309" lon="5.98417">
        <ele>368</ele>
        <time>2012-12-02T10:31:56.21Z</time>
      </trkpt>
      <trkpt lat="45.57312" lon="5.98417">
        <ele>368</ele>
        <time>2012-12-02T10:31:58.24Z</time>
      </trkpt>
      <trkpt lat="45.57315" lon="5.98417">
        <ele>369</ele>
        <time>2012-12-02T10:32:00.24Z</time>
      </trkpt>
      <trkpt lat="45.57318" lon="5.98418">
        <ele>369</ele>
        <time>2012-12-02T10:32:02.27Z</time>
      </trkpt>
      <trkpt lat="45.57321" lon="5.98419">
        <ele>369</ele>
        <time>2012-12-02T10:32:04.23Z</time>
      </trkpt>
      <trkpt lat="45.57324" lon="5.98421">
        <ele>369</ele>
        <time>2012-12-02T10:32:06.24Z</time>
      </trkpt>
      <trkpt lat="45.57328" lon="5.98419">
        <ele>369</ele>
        <time>2012-12-02T10:32:08.22Z</time>
      </trkpt>
      <trkpt lat="45.57332" lon="5.98418">
        <ele>368</ele>
        <time>2012-12-02T10:32:10.25Z</time>
      </trkpt>
      <trkpt lat="45.57335" lon="5.98417">
        <ele>368</ele>
        <time>2012-12-02T10:32:12.23Z</time>
      </trkpt>
      <trkpt lat="45.57338" lon="5.98416">
        <ele>368</ele>
        <time>2012-12-02T10:32:14.26Z</time>
      </trkpt>
      <trkpt lat="45.5734" lon="5.98412">
        <ele>368</ele>
        <time>2012-12-02T10:32:16.25Z</time>
      </trkpt>
      <trkpt lat="45.57342" lon="5.98411">
        <ele>368</ele>
        <time>2012-12-02T10:32:18.24Z</time>
      </trkpt>
      <trkpt lat="45.57345" lon="5.98409">
        <ele>368</ele>
        <time>2012-12-02T10:32:20.24Z</time>
      </trkpt>
      <trkpt lat="45.57347" lon="5.98406">
        <ele>368</ele>
        <time>2012-12-02T10:32:22.26Z</time>
      </trkpt>
      <trkpt lat="45.5735" lon="5.98404">
        <ele>368</ele>
        <time>2012-12-02T10:32:24.24Z</time>
      </trkpt>
      <trkpt lat="45.57353" lon="5.98403">
        <ele>368</ele>
        <time>2012-12-02T10:32:26.23Z</time>
      </trkpt>
      <trkpt lat="45.57356" lon="5.98403">
        <ele>368</ele>
        <time>2012-12-02T10:32:28.24Z</time>
      </trkpt>
      <trkpt lat="45.57358" lon="5.98403">
        <ele>368</ele>
        <time>2012-12-02T10:32:30.24Z</time>
      </trkpt>
      <trkpt lat="45.57359" lon="5.98408">
        <ele>369</ele>
        <time>2012-12-02T10:32:32.27Z</time>
      </trkpt>
      <trkpt lat="45.57359" lon="5.98414">
        <ele>370</ele>
        <time>2012-12-02T10:32:34.26Z</time>
      </trkpt>
      <trkpt lat="45.57357" lon="5.98418">
        <ele>371</ele>
        <time>2012-12-02T10:32:36.25Z</time>
      </trkpt>
      <trkpt lat="45.57354" lon="5.98422">
        <ele>371</ele>
        <time>2012-12-02T10:32:38.22Z</time>
      </trkpt>
      <trkpt lat="45.5735" lon="5.98426">
        <ele>372</ele>
        <time>2012-12-02T10:32:40.22Z</time>
      </trkpt>
      <trkpt lat="45.57346" lon="5.9843">
        <ele>373</ele>
        <time>2012-12-02T10:32:42.24Z</time>
      </trkpt>
      <trkpt lat="45.57343" lon="5.98433">
        <ele>374</ele>
        <time>2012-12-02T10:32:44.24Z</time>
      </trkpt>
      <trkpt lat="45.57339" lon="5.98438">
        <ele>374</ele>
        <time>2012-12-02T10:32:46.25Z</time>
      </trkpt>
      <trkpt lat="45.57334" lon="5.98443">
        <ele>375</ele>
        <time>2012-12-02T10:32:48.3Z</time>
      </trkpt>
      <trkpt lat="45.57331" lon="5.98447">
        <ele>376</ele>
        <time>2012-12-02T10:32:50.25Z</time>
      </trkpt>
      <trkpt lat="45.57328" lon="5.98451">
        <ele>377</ele>
        <time>2012-12-02T10:32:52.25Z</time>
      </trkpt>
      <trkpt lat="45.57322" lon="5.98455">
        <ele>378</ele>
        <time>2012-12-02T10:32:54.25Z</time>
      </trkpt>
      <trkpt lat="45.57317" lon="5.98457">
        <ele>379</ele>
        <time>2012-12-02T10:32:56.24Z</time>
      </trkpt>
      <trkpt lat="45.57313" lon="5.98459">
        <ele>380</ele>
        <time>2012-12-02T10:32:58.25Z</time>
      </trkpt>
      <trkpt lat="45.5731" lon="5.98465">
        <ele>380</ele>
        <time>2012-12-02T10:33:00.21Z</time>
      </trkpt>
      <trkpt lat="45.57307" lon="5.9847">
        <ele>381</ele>
        <time>2012-12-02T10:33:02.25Z</time>
      </trkpt>
      <trkpt lat="45.57303" lon="5.98472">
        <ele>382</ele>
        <time>2012-12-02T10:33:04.25Z</time>
      </trkpt>
      <trkpt lat="45.573" lon="5.98474">
        <ele>382</ele>
        <time>2012-12-02T10:33:06.27Z</time>
      </trkpt>
      <trkpt lat="45.57296" lon="5.98474">
        <ele>383</ele>
        <time>2012-12-02T10:33:08.24Z</time>
      </trkpt>
      <trkpt lat="45.5729" lon="5.98474">
        <ele>383</ele>
        <time>2012-12-02T10:33:10.25Z</time>
      </trkpt>
      <trkpt lat="45.57284" lon="5.98475">
        <ele>383</ele>
        <time>2012-12-02T10:33:12.24Z</time>
      </trkpt>
      <trkpt lat="45.57279" lon="5.98477">
        <ele>383</ele>
        <time>2012-12-02T10:33:14.24Z</time>
      </trkpt>
      <trkpt lat="45.57275" lon="5.98475">
        <ele>383</ele>
        <time>2012-12-02T10:33:16.24Z</time>
      </trkpt>
      <trkpt lat="45.5727" lon="5.98475">
        <ele>383</ele>
        <time>2012-12-02T10:33:18.24Z</time>
      </trkpt>
      <trkpt lat="45.57265" lon="5.98476">
        <ele>383</ele>
        <time>2012-12-02T10:33:20.26Z</time>
      </trkpt>
      <trkpt lat="45.57262" lon="5.98477">
        <ele>384</ele>
        <time>2012-12-02T10:33:22.26Z</time>
      </trkpt>
      <trkpt lat="45.57258" lon="5.98481">
        <ele>385</ele>
        <time>2012-12-02T10:33:24.25Z</time>
      </trkpt>
      <trkpt lat="45.57255" lon="5.98487">
        <ele>386</ele>
        <time>2012-12-02T10:33:26.24Z</time>
      </trkpt>
      <trkpt lat="45.57252" lon="5.9849">
        <ele>387</ele>
        <time>2012-12-02T10:33:28.24Z</time>
      </trkpt>
      <trkpt lat="45.5725" lon="5.98493">
        <ele>388</ele>
        <time>2012-12-02T10:33:30.24Z</time>
      </trkpt>
      <trkpt lat="45.57246" lon="5.98495">
        <ele>388</ele>
        <time>2012-12-02T10:33:32.24Z</time>
      </trkpt>
      <trkpt lat="45.57242" lon="5.98497">
        <ele>389</ele>
        <time>2012-12-02T10:33:34.25Z</time>
      </trkpt>
      <trkpt lat="45.57238" lon="5.98498">
        <ele>389</ele>
        <time>2012-12-02T10:33:36.27Z</time>
      </trkpt>
      <trkpt lat="45.57234" lon="5.985">
        <ele>390</ele>
        <time>2012-12-02T10:33:38.26Z</time>
      </trkpt>
      <trkpt lat="45.57231" lon="5.98502">
        <ele>390</ele>
        <time>2012-12-02T10:33:40.25Z</time>
      </trkpt>
      <trkpt lat="45.57226" lon="5.98504">
        <ele>391</ele>
        <time>2012-12-02T10:33:42.22Z</time>
      </trkpt>
      <trkpt lat="45.57223" lon="5.98505">
        <ele>391</ele>
        <time>2012-12-02T10:33:44.22Z</time>
      </trkpt>
      <trkpt lat="45.57218" lon="5.98506">
        <ele>391</ele>
        <time>2012-12-02T10:33:46.23Z</time>
      </trkpt>
      <trkpt lat="45.57212" lon="5.98507">
        <ele>392</ele>
        <time>2012-12-02T10:33:48.24Z</time>
      </trkpt>
      <trkpt lat="45.57208" lon="5.98508">
        <ele>392</ele>
        <time>2012-12-02T10:33:50.25Z</time>
      </trkpt>
      <trkpt lat="45.57204" lon="5.98513">
        <ele>393</ele>
        <time>2012-12-02T10:33:52.25Z</time>
      </trkpt>
      <trkpt lat="45.57201" lon="5.98517">
        <ele>394</ele>
        <time>2012-12-02T10:33:54.26Z</time>
      </trkpt>
      <trkpt lat="45.57196" lon="5.98519">
        <ele>395</ele>
        <time>2012-12-02T10:33:56.24Z</time>
      </trkpt>
      <trkpt lat="45.57193" lon="5.9852">
        <ele>396</ele>
        <time>2012-12-02T10:33:58.25Z</time>
      </trkpt>
      <trkpt lat="45.57189" lon="5.98522">
        <ele>396</ele>
        <time>2012-12-02T10:34:00.24Z</time>
      </trkpt>
      <trkpt lat="45.57186" lon="5.98525">
        <ele>397</ele>
        <time>2012-12-02T10:34:02.24Z</time>
      </trkpt>
      <trkpt lat="45.57183" lon="5.98529">
        <ele>398</ele>
        <time>2012-12-02T10:34:04.24Z</time>
      </trkpt>
      <trkpt lat="45.57181" lon="5.98532">
        <ele>398</ele>
        <time>2012-12-02T10:34:06.24Z</time>
      </trkpt>
      <trkpt lat="45.57176" lon="5.98532">
        <ele>398</ele>
        <time>2012-12-02T10:34:08.27Z</time>
      </trkpt>
      <trkpt lat="45.57171" lon="5.98531">
        <ele>398</ele>
        <time>2012-12-02T10:34:10.27Z</time>
      </trkpt>
      <trkpt lat="45.57166" lon="5.98529">
        <ele>397</ele>
        <time>2012-12-02T10:34:12.24Z</time>
      </trkpt>
      <trkpt lat="45.57161" lon="5.98528">
        <ele>397</ele>
        <time>2012-12-02T10:34:14.22Z</time>
      </trkpt>
      <trkpt lat="45.57157" lon="5.98527">
        <ele>397</ele>
        <time>2012-12-02T10:34:16.24Z</time>
      </trkpt>
      <trkpt lat="45.57151" lon="5.98527">
        <ele>396</ele>
        <time>2012-12-02T10:34:18.24Z</time>
      </trkpt>
      <trkpt lat="45.57146" lon="5.98525">
        <ele>396</ele>
        <time>2012-12-02T10:34:20.24Z</time>
      </trkpt>
      <trkpt lat="45.57141" lon="5.98523">
        <ele>395</ele>
        <time>2012-12-02T10:34:22.25Z</time>
      </trkpt>
      <trkpt lat="45.57136" lon="5.98519">
        <ele>394</ele>
        <time>2012-12-02T10:34:24.24Z</time>
      </trkpt>
      <trkpt lat="45.57133" lon="5.98516">
        <ele>394</ele>
        <time>2012-12-02T10:34:26.25Z</time>
      </trkpt>
      <trkpt lat="45.57129" lon="5.98514">
        <ele>393</ele>
        <time>2012-12-02T10:34:28.25Z</time>
      </trkpt>
      <trkpt lat="45.57125" lon="5.98513">
        <ele>392</ele>
        <time>2012-12-02T10:34:30.24Z</time>
      </trkpt>
      <trkpt lat="45.57122" lon="5.98512">
        <ele>392</ele>
        <time>2012-12-02T10:34:32.24Z</time>
      </trkpt>
      <trkpt lat="45.57118" lon="5.9851">
        <ele>391</ele>
        <time>2012-12-02T10:34:34.23Z</time>
      </trkpt>
      <trkpt lat="45.57114" lon="5.98508">
        <ele>391</ele>
        <time>2012-12-02T10:34:36.24Z</time>
      </trkpt>
      <trkpt lat="45.57109" lon="5.98507">
        <ele>390</ele>
        <time>2012-12-02T10:34:38.24Z</time>
      </trkpt>
      <trkpt lat="45.57105" lon="5.98507">
        <ele>390</ele>
        <time>2012-12-02T10:34:40.24Z</time>
      </trkpt>
      <trkpt lat="45.57101" lon="5.98506">
        <ele>390</ele>
        <time>2012-12-02T10:34:42.25Z</time>
      </trkpt>
      <trkpt lat="45.57096" lon="5.98505">
        <ele>390</ele>
        <time>2012-12-02T10:34:44.26Z</time>
      </trkpt>
      <trkpt lat="45.57092" lon="5.98506">
        <ele>390</ele>
        <time>2012-12-02T10:34:46.23Z</time>
      </trkpt>
      <trkpt lat="45.57087" lon="5.98507">
        <ele>390</ele>
        <time>2012-12-02T10:34:48.24Z</time>
      </trkpt>
      <trkpt lat="45.57082" lon="5.98507">
        <ele>390</ele>
        <time>2012-12-02T10:34:50.27Z</time>
      </trkpt>
      <trkpt lat="45.57078" lon="5.98506">
        <ele>390</ele>
        <time>2012-12-02T10:34:52.22Z</time>
      </trkpt>
      <trkpt lat="45.57075" lon="5.98506">
        <ele>389</ele>
        <time>2012-12-02T10:34:54.25Z</time>
      </trkpt>
      <trkpt lat="45.57074" lon="5.98504">
        <ele>389</ele>
        <time>2012-12-02T10:34:56.25Z</time>
      </trkpt>
      <trkpt lat="45.57074" lon="5.98503">
        <ele>389</ele>
        <time>2012-12-02T10:34:58.26Z</time>
      </trkpt>
      <trkpt lat="45.57074" lon="5.98503">
        <ele>389</ele>
        <time>2012-12-02T10:35:00.23Z</time>
      </trkpt>
      <trkpt lat="45.57074" lon="5.98503">
        <ele>389</ele>
        <time>2012-12-02T10:35:03.24Z</time>
      </trkpt>
      <trkpt lat="45.57074" lon="5.98503">
        <ele>389</ele>
        <time>2012-12-02T10:35:05.24Z</time>
      </trkpt>
      <trkpt lat="45.57074" lon="5.98503">
        <ele>389</ele>
        <time>2012-12-02T10:35:07.25Z</time>
      </trkpt>
      <trkpt lat="45.57074" lon="5.98503">
        <ele>389</ele>
        <time>2012-12-02T10:35:09.26Z</time>
      </trkpt>
      <trkpt lat="45.57074" lon="5.98503">
        <ele>389</ele>
        <time>2012-12-02T10:35:11.24Z</time>
      </trkpt>
      <trkpt lat="45.57074" lon="5.98503">
        <ele>389</ele>
        <time>2012-12-02T10:35:13.25Z</time>
      </trkpt>
      <trkpt lat="45.57074" lon="5.98503">
        <ele>389</ele>
        <time>2012-12-02T10:35:15.24Z</time>
      </trkpt>
      <trkpt lat="45.57074" lon="5.98503">
        <ele>389</ele>
        <time>2012-12-02T10:35:17.23Z</time>
      </trkpt>
      <trkpt lat="45.57074" lon="5.98503">
        <ele>389</ele>
        <time>2012-12-02T10:35:19.26Z</time>
      </trkpt>
      <trkpt lat="45.57074" lon="5.98503">
        <ele>389</ele>
        <time>2012-12-02T10:35:21.27Z</time>
      </trkpt>
      <trkpt lat="45.57074" lon="5.98503">
        <ele>389</ele>
        <time>2012-12-02T10:35:23.23Z</time>
      </trkpt>
      <trkpt lat="45.57074" lon="5.98503">
        <ele>389</ele>
        <time>2012-12-02T10:35:25.26Z</time>
      </trkpt>
      <trkpt lat="45.57074" lon="5.98503">
        <ele>389</ele>
        <time>2012-12-02T10:35:27.23Z</time>
      </trkpt>
      <trkpt lat="45.57059" lon="5.98505">
        <ele>389</ele>
        <time>2012-12-02T10:35:29.25Z</time>
      </trkpt>
      <trkpt lat="45.57051" lon="5.98505">
        <ele>389</ele>
        <time>2012-12-02T10:35:31.21Z</time>
      </trkpt>
      <trkpt lat="45.57047" lon="5.98507">
        <ele>389</ele>
        <time>2012-12-02T10:35:33.24Z</time>
      </trkpt>
      <trkpt lat="45.57044" lon="5.98508">
        <ele>389</ele>
        <time>2012-12-02T10:35:35.26Z</time>
      </trkpt>
      <trkpt lat="45.5704" lon="5.98508">
        <ele>389</ele>
        <time>2012-12-02T10:35:37.26Z</time>
      </trkpt>
      <trkpt lat="45.57034" lon="5.98508">
        <ele>389</ele>
        <time>2012-12-02T10:35:39.25Z</time>
      </trkpt>
      <trkpt lat="45.57029" lon="5.98509">
        <ele>389</ele>
        <time>2012-12-02T10:35:41.23Z</time>
      </trkpt>
      <trkpt lat="45.57024" lon="5.9851">
        <ele>389</ele>
        <time>2012-12-02T10:35:43.22Z</time>
      </trkpt>
      <trkpt lat="45.57018" lon="5.98512">
        <ele>389</ele>
        <time>2012-12-02T10:35:45.22Z</time>
      </trkpt>
      <trkpt lat="45.57015" lon="5.98516">
        <ele>390</ele>
        <time>2012-12-02T10:35:47.23Z</time>
      </trkpt>
      <trkpt lat="45.57012" lon="5.98519">
        <ele>391</ele>
        <time>2012-12-02T10:35:49.23Z</time>
      </trkpt>
      <trkpt lat="45.57007" lon="5.98522">
        <ele>392</ele>
        <time>2012-12-02T10:35:51.21Z</time>
      </trkpt>
      <trkpt lat="45.57003" lon="5.98526">
        <ele>393</ele>
        <time>2012-12-02T10:35:53.23Z</time>
      </trkpt>
      <trkpt lat="45.56998" lon="5.9853">
        <ele>394</ele>
        <time>2012-12-02T10:35:55.25Z</time>
      </trkpt>
      <trkpt lat="45.56994" lon="5.98535">
        <ele>395</ele>
        <time>2012-12-02T10:35:57.24Z</time>
      </trkpt>
      <trkpt lat="45.5699" lon="5.9854">
        <ele>396</ele>
        <time>2012-12-02T10:35:59.24Z</time>
      </trkpt>
      <trkpt lat="45.56988" lon="5.98546">
        <ele>397</ele>
        <time>2012-12-02T10:36:01.26Z</time>
      </trkpt>
      <trkpt lat="45.56983" lon="5.98551">
        <ele>398</ele>
        <time>2012-12-02T10:36:03.23Z</time>
      </trkpt>
      <trkpt lat="45.56978" lon="5.98553">
        <ele>398</ele>
        <time>2012-12-02T10:36:05.22Z</time>
      </trkpt>
      <trkpt lat="45.56972" lon="5.98556">
        <ele>399</ele>
        <time>2012-12-02T10:36:07.25Z</time>
      </trkpt>
      <trkpt lat="45.56966" lon="5.98561">
        <ele>399</ele>
        <time>2012-12-02T10:36:09.26Z</time>
      </trkpt>
      <trkpt lat="45.5696" lon="5.98563">
        <ele>399</ele>
        <time>2012-12-02T10:36:11.24Z</time>
      </trkpt>
      <trkpt lat="45.56955" lon="5.98564">
        <ele>399</ele>
        <time>2012-12-02T10:36:13.25Z</time>
      </trkpt>
      <trkpt lat="45.5695" lon="5.98565">
        <ele>399</ele>
        <time>2012-12-02T10:36:15.24Z</time>
      </trkpt>
      <trkpt lat="45.56946" lon="5.98568">
        <ele>399</ele>
        <time>2012-12-02T10:36:17.24Z</time>
      </trkpt>
      <trkpt lat="45.56944" lon="5.98572">
        <ele>400</ele>
        <time>2012-12-02T10:36:19.24Z</time>
      </trkpt>
      <trkpt lat="45.5694" lon="5.98576">
        <ele>400</ele>
        <time>2012-12-02T10:36:21.26Z</time>
      </trkpt>
      <trkpt lat="45.56934" lon="5.98579">
        <ele>401</ele>
        <time>2012-12-02T10:36:23.24Z</time>
      </trkpt>
      <trkpt lat="45.56928" lon="5.98581">
        <ele>401</ele>
        <time>2012-12-02T10:36:25.26Z</time>
      </trkpt>
      <trkpt lat="45.56923" lon="5.98584">
        <ele>401</ele>
        <time>2012-12-02T10:36:27.25Z</time>
      </trkpt>
      <trkpt lat="45.56919" lon="5.98587">
        <ele>401</ele>
        <time>2012-12-02T10:36:29.24Z</time>
      </trkpt>
      <trkpt lat="45.56914" lon="5.98591">
        <ele>401</ele>
        <time>2012-12-02T10:36:31.25Z</time>
      </trkpt>
      <trkpt lat="45.56908" lon="5.98592">
        <ele>400</ele>
        <time>2012-12-02T10:36:33.24Z</time>
      </trkpt>
      <trkpt lat="45.56901" lon="5.98593">
        <ele>400</ele>
        <time>2012-12-02T10:36:35.25Z</time>
      </trkpt>
      <trkpt lat="45.56896" lon="5.98594">
        <ele>399</ele>
        <time>2012-12-02T10:36:37.23Z</time>
      </trkpt>
      <trkpt lat="45.56891" lon="5.98595">
        <ele>398</ele>
        <time>2012-12-02T10:36:39.25Z</time>
      </trkpt>
      <trkpt lat="45.56885" lon="5.98595">
        <ele>397</ele>
        <time>2012-12-02T10:36:41.24Z</time>
      </trkpt>
      <trkpt lat="45.56879" lon="5.98596">
        <ele>397</ele>
        <time>2012-12-02T10:36:43.27Z</time>
      </trkpt>
      <trkpt lat="45.56875" lon="5.98595">
        <ele>396</ele>
        <time>2012-12-02T10:36:45.24Z</time>
      </trkpt>
      <trkpt lat="45.5687" lon="5.98594">
        <ele>395</ele>
        <time>2012-12-02T10:36:47.23Z</time>
      </trkpt>
      <trkpt lat="45.56863" lon="5.98594">
        <ele>394</ele>
        <time>2012-12-02T10:36:49.24Z</time>
      </trkpt>
      <trkpt lat="45.56858" lon="5.98593">
        <ele>393</ele>
        <time>2012-12-02T10:36:51.26Z</time>
      </trkpt>
      <trkpt lat="45.56852" lon="5.98591">
        <ele>392</ele>
        <time>2012-12-02T10:36:53.26Z</time>
      </trkpt>
      <trkpt lat="45.56847" lon="5.9859">
        <ele>391</ele>
        <time>2012-12-02T10:36:55.25Z</time>
      </trkpt>
      <trkpt lat="45.56842" lon="5.98589">
        <ele>391</ele>
        <time>2012-12-02T10:36:57.26Z</time>
      </trkpt>
      <trkpt lat="45.56837" lon="5.9859">
        <ele>390</ele>
        <time>2012-12-02T10:36:59.26Z</time>
      </trkpt>
      <trkpt lat="45.56833" lon="5.9859">
        <ele>390</ele>
        <time>2012-12-02T10:37:01.25Z</time>
      </trkpt>
      <trkpt lat="45.56828" lon="5.9859">
        <ele>389</ele>
        <time>2012-12-02T10:37:03.25Z</time>
      </trkpt>
      <trkpt lat="45.56823" lon="5.9859">
        <ele>389</ele>
        <time>2012-12-02T10:37:05.23Z</time>
      </trkpt>
      <trkpt lat="45.56819" lon="5.98589">
        <ele>388</ele>
        <time>2012-12-02T10:37:07.25Z</time>
      </trkpt>
      <trkpt lat="45.56814" lon="5.98588">
        <ele>388</ele>
        <time>2012-12-02T10:37:09.25Z</time>
      </trkpt>
      <trkpt lat="45.5681" lon="5.98586">
        <ele>387</ele>
        <time>2012-12-02T10:37:11.24Z</time>
      </trkpt>
      <trkpt lat="45.56806" lon="5.98585">
        <ele>387</ele>
        <time>2012-12-02T10:37:13.28Z</time>
      </trkpt>
      <trkpt lat="45.56802" lon="5.98584">
        <ele>386</ele>
        <time>2012-12-02T10:37:15.25Z</time>
      </trkpt>
      <trkpt lat="45.56798" lon="5.98583">
        <ele>385</ele>
        <time>2012-12-02T10:37:17.25Z</time>
      </trkpt>
      <trkpt lat="45.56793" lon="5.98584">
        <ele>385</ele>
        <time>2012-12-02T10:37:19.25Z</time>
      </trkpt>
      <trkpt lat="45.56788" lon="5.98584">
        <ele>385</ele>
        <time>2012-12-02T10:37:21.23Z</time>
      </trkpt>
      <trkpt lat="45.56785" lon="5.98583">
        <ele>385</ele>
        <time>2012-12-02T10:37:23.23Z</time>
      </trkpt>
      <trkpt lat="45.56781" lon="5.98582">
        <ele>384</ele>
        <time>2012-12-02T10:37:25.23Z</time>
      </trkpt>
      <trkpt lat="45.56777" lon="5.98581">
        <ele>384</ele>
        <time>2012-12-02T10:37:27.25Z</time>
      </trkpt>
      <trkpt lat="45.56773" lon="5.98581">
        <ele>384</ele>
        <time>2012-12-02T10:37:29.26Z</time>
      </trkpt>
      <trkpt lat="45.56768" lon="5.9858">
        <ele>384</ele>
        <time>2012-12-02T10:37:31.25Z</time>
      </trkpt>
      <trkpt lat="45.56764" lon="5.98577">
        <ele>383</ele>
        <time>2012-12-02T10:37:33.23Z</time>
      </trkpt>
      <trkpt lat="45.5676" lon="5.98574">
        <ele>383</ele>
        <time>2012-12-02T10:37:35.24Z</time>
      </trkpt>
      <trkpt lat="45.56756" lon="5.98572">
        <ele>382</ele>
        <time>2012-12-02T10:37:37.24Z</time>
      </trkpt>
      <trkpt lat="45.56751" lon="5.98568">
        <ele>382</ele>
        <time>2012-12-02T10:37:39.24Z</time>
      </trkpt>
      <trkpt lat="45.56746" lon="5.98567">
        <ele>382</ele>
        <time>2012-12-02T10:37:41.23Z</time>
      </trkpt>
      <trkpt lat="45.56744" lon="5.98565">
        <ele>381</ele>
        <time>2012-12-02T10:37:43.24Z</time>
      </trkpt>
      <trkpt lat="45.56739" lon="5.98564">
        <ele>381</ele>
        <time>2012-12-02T10:37:45.25Z</time>
      </trkpt>
      <trkpt lat="45.56734" lon="5.98564">
        <ele>381</ele>
        <time>2012-12-02T10:37:47.31Z</time>
      </trkpt>
      <trkpt lat="45.56729" lon="5.98563">
        <ele>381</ele>
        <time>2012-12-02T10:37:49.23Z</time>
      </trkpt>
      <trkpt lat="45.56723" lon="5.98564">
        <ele>381</ele>
        <time>2012-12-02T10:37:51.23Z</time>
      </trkpt>
      <trkpt lat="45.56718" lon="5.98565">
        <ele>382</ele>
        <time>2012-12-02T10:37:53.27Z</time>
      </trkpt>
      <trkpt lat="45.56713" lon="5.98564">
        <ele>382</ele>
        <time>2012-12-02T10:37:55.23Z</time>
      </trkpt>
      <trkpt lat="45.56708" lon="5.98565">
        <ele>383</ele>
        <time>2012-12-02T10:37:57.24Z</time>
      </trkpt>
      <trkpt lat="45.56703" lon="5.98567">
        <ele>384</ele>
        <time>2012-12-02T10:37:59.26Z</time>
      </trkpt>
      <trkpt lat="45.56698" lon="5.98569">
        <ele>385</ele>
        <time>2012-12-02T10:38:01.25Z</time>
      </trkpt>
      <trkpt lat="45.56693" lon="5.9857">
        <ele>385</ele>
        <time>2012-12-02T10:38:03.26Z</time>
      </trkpt>
      <trkpt lat="45.56689" lon="5.98571">
        <ele>386</ele>
        <time>2012-12-02T10:38:05.23Z</time>
      </trkpt>
      <trkpt lat="45.56685" lon="5.98573">
        <ele>387</ele>
        <time>2012-12-02T10:38:07.25Z</time>
      </trkpt>
      <trkpt lat="45.56681" lon="5.98574">
        <ele>388</ele>
        <time>2012-12-02T10:38:09.25Z</time>
      </trkpt>
      <trkpt lat="45.56677" lon="5.98575">
        <ele>388</ele>
        <time>2012-12-02T10:38:11.24Z</time>
      </trkpt>
      <trkpt lat="45.56671" lon="5.98579">
        <ele>390</ele>
        <time>2012-12-02T10:38:13.24Z</time>
      </trkpt>
      <trkpt lat="45.56666" lon="5.98581">
        <ele>391</ele>
        <time>2012-12-02T10:38:15.24Z</time>
      </trkpt>
      <trkpt lat="45.56661" lon="5.98583">
        <ele>392</ele>
        <time>2012-12-02T10:38:17.25Z</time>
      </trkpt>
      <trkpt lat="45.56656" lon="5.98584">
        <ele>393</ele>
        <time>2012-12-02T10:38:19.25Z</time>
      </trkpt>
      <trkpt lat="45.5665" lon="5.98586">
        <ele>393</ele>
        <time>2012-12-02T10:38:21.25Z</time>
      </trkpt>
      <trkpt lat="45.56646" lon="5.98587">
        <ele>394</ele>
        <time>2012-12-02T10:38:23.25Z</time>
      </trkpt>
      <trkpt lat="45.56641" lon="5.98589">
        <ele>395</ele>
        <time>2012-12-02T10:38:25.23Z</time>
      </trkpt>
      <trkpt lat="45.56636" lon="5.98589">
        <ele>395</ele>
        <time>2012-12-02T10:38:27.22Z</time>
      </trkpt>
      <trkpt lat="45.56631" lon="5.98589">
        <ele>396</ele>
        <time>2012-12-02T10:38:29.26Z</time>
      </trkpt>
      <trkpt lat="45.56626" lon="5.98589">
        <ele>396</ele>
        <time>2012-12-02T10:38:31.27Z</time>
      </trkpt>
      <trkpt lat="45.56622" lon="5.98591">
        <ele>396</ele>
        <time>2012-12-02T10:38:33.23Z</time>
      </trkpt>
      <trkpt lat="45.56618" lon="5.98592">
        <ele>396</ele>
        <time>2012-12-02T10:38:35.26Z</time>
      </trkpt>
      <trkpt lat="45.56612" lon="5.98591">
        <ele>397</ele>
        <time>2012-12-02T10:38:37.24Z</time>
      </trkpt>
      <trkpt lat="45.56606" lon="5.98591">
        <ele>397</ele>
        <time>2012-12-02T10:38:39.22Z</time>
      </trkpt>
      <trkpt lat="45.56601" lon="5.98591">
        <ele>397</ele>
        <time>2012-12-02T10:38:41.22Z</time>
      </trkpt>
      <trkpt lat="45.56596" lon="5.9859">
        <ele>397</ele>
        <time>2012-12-02T10:38:43.22Z</time>
      </trkpt>
      <trkpt lat="45.56592" lon="5.98587">
        <ele>397</ele>
        <time>2012-12-02T10:38:45.24Z</time>
      </trkpt>
      <trkpt lat="45.56588" lon="5.98585">
        <ele>396</ele>
        <time>2012-12-02T10:38:47.27Z</time>
      </trkpt>
      <trkpt lat="45.56583" lon="5.98582">
        <ele>396</ele>
        <time>2012-12-02T10:38:49.23Z</time>
      </trkpt>
      <trkpt lat="45.56578" lon="5.98581">
        <ele>396</ele>
        <time>2012-12-02T10:38:51.27Z</time>
      </trkpt>
      <trkpt lat="45.56573" lon="5.98579">
        <ele>395</ele>
        <time>2012-12-02T10:38:53.21Z</time>
      </trkpt>
      <trkpt lat="45.56568" lon="5.98577">
        <ele>395</ele>
        <time>2012-12-02T10:38:55.26Z</time>
      </trkpt>
      <trkpt lat="45.56563" lon="5.98575">
        <ele>394</ele>
        <time>2012-12-02T10:38:57.23Z</time>
      </trkpt>
      <trkpt lat="45.56559" lon="5.98573">
        <ele>394</ele>
        <time>2012-12-02T10:38:59.23Z</time>
      </trkpt>
      <trkpt lat="45.56555" lon="5.98574">
        <ele>394</ele>
        <time>2012-12-02T10:39:01.22Z</time>
      </trkpt>
      <trkpt lat="45.56551" lon="5.98573">
        <ele>393</ele>
        <time>2012-12-02T10:39:03.29Z</time>
      </trkpt>
      <trkpt lat="45.56547" lon="5.98573">
        <ele>393</ele>
        <time>2012-12-02T10:39:05.24Z</time>
      </trkpt>
      <trkpt lat="45.56541" lon="5.98572">
        <ele>393</ele>
        <time>2012-12-02T10:39:07.25Z</time>
      </trkpt>
      <trkpt lat="45.56537" lon="5.98571">
        <ele>393</ele>
        <time>2012-12-02T10:39:09.24Z</time>
      </trkpt>
      <trkpt lat="45.56533" lon="5.98571">
        <ele>392</ele>
        <time>2012-12-02T10:39:11.24Z</time>
      </trkpt>
      <trkpt lat="45.56529" lon="5.98571">
        <ele>392</ele>
        <time>2012-12-02T10:39:13.25Z</time>
      </trkpt>
      <trkpt lat="45.56526" lon="5.98569">
        <ele>392</ele>
        <time>2012-12-02T10:39:15.28Z</time>
      </trkpt>
      <trkpt lat="45.56521" lon="5.98568">
        <ele>391</ele>
        <time>2012-12-02T10:39:17.24Z</time>
      </trkpt>
      <trkpt lat="45.56514" lon="5.98567">
        <ele>391</ele>
        <time>2012-12-02T10:39:19.24Z</time>
      </trkpt>
      <trkpt lat="45.5651" lon="5.98567">
        <ele>391</ele>
        <time>2012-12-02T10:39:21.23Z</time>
      </trkpt>
      <trkpt lat="45.56505" lon="5.98567">
        <ele>391</ele>
        <time>2012-12-02T10:39:23.26Z</time>
      </trkpt>
      <trkpt lat="45.56501" lon="5.98568">
        <ele>391</ele>
        <time>2012-12-02T10:39:25.24Z</time>
      </trkpt>
      <trkpt lat="45.56497" lon="5.98569">
        <ele>391</ele>
        <time>2012-12-02T10:39:27.24Z</time>
      </trkpt>
      <trkpt lat="45.56494" lon="5.9857">
        <ele>392</ele>
        <time>2012-12-02T10:39:29.24Z</time>
      </trkpt>
      <trkpt lat="45.5649" lon="5.98573">
        <ele>392</ele>
        <time>2012-12-02T10:39:31.22Z</time>
      </trkpt>
      <trkpt lat="45.56486" lon="5.98576">
        <ele>393</ele>
        <time>2012-12-02T10:39:33.26Z</time>
      </trkpt>
      <trkpt lat="45.56482" lon="5.98581">
        <ele>393</ele>
        <time>2012-12-02T10:39:35.24Z</time>
      </trkpt>
      <trkpt lat="45.56479" lon="5.98585">
        <ele>394</ele>
        <time>2012-12-02T10:39:37.25Z</time>
      </trkpt>
      <trkpt lat="45.56474" lon="5.98589">
        <ele>395</ele>
        <time>2012-12-02T10:39:39.28Z</time>
      </trkpt>
      <trkpt lat="45.56469" lon="5.98592">
        <ele>395</ele>
        <time>2012-12-02T10:39:41.25Z</time>
      </trkpt>
      <trkpt lat="45.56464" lon="5.98595">
        <ele>396</ele>
        <time>2012-12-02T10:39:43.23Z</time>
      </trkpt>
      <trkpt lat="45.56459" lon="5.98599">
        <ele>397</ele>
        <time>2012-12-02T10:39:45.28Z</time>
      </trkpt>
      <trkpt lat="45.56454" lon="5.98602">
        <ele>398</ele>
        <time>2012-12-02T10:39:47.24Z</time>
      </trkpt>
      <trkpt lat="45.56449" lon="5.98606">
        <ele>399</ele>
        <time>2012-12-02T10:39:49.24Z</time>
      </trkpt>
      <trkpt lat="45.56444" lon="5.98611">
        <ele>400</ele>
        <time>2012-12-02T10:39:51.25Z</time>
      </trkpt>
      <trkpt lat="45.56438" lon="5.98613">
        <ele>399</ele>
        <time>2012-12-02T10:39:53.23Z</time>
      </trkpt>
      <trkpt lat="45.56434" lon="5.98612">
        <ele>399</ele>
        <time>2012-12-02T10:39:55.24Z</time>
      </trkpt>
      <trkpt lat="45.5643" lon="5.98614">
        <ele>399</ele>
        <time>2012-12-02T10:39:57.29Z</time>
      </trkpt>
      <trkpt lat="45.56425" lon="5.98616">
        <ele>399</ele>
        <time>2012-12-02T10:39:59.23Z</time>
      </trkpt>
      <trkpt lat="45.56418" lon="5.98617">
        <ele>399</ele>
        <time>2012-12-02T10:40:01.25Z</time>
      </trkpt>
      <trkpt lat="45.56413" lon="5.9862">
        <ele>398</ele>
        <time>2012-12-02T10:40:03.23Z</time>
      </trkpt>
      <trkpt lat="45.56406" lon="5.98623">
        <ele>398</ele>
        <time>2012-12-02T10:40:05.23Z</time>
      </trkpt>
      <trkpt lat="45.564" lon="5.98625">
        <ele>398</ele>
        <time>2012-12-02T10:40:07.27Z</time>
      </trkpt>
      <trkpt lat="45.56394" lon="5.98628">
        <ele>398</ele>
        <time>2012-12-02T10:40:09.3Z</time>
      </trkpt>
      <trkpt lat="45.56388" lon="5.98629">
        <ele>398</ele>
        <time>2012-12-02T10:40:11.25Z</time>
      </trkpt>
      <trkpt lat="45.56382" lon="5.98631">
        <ele>397</ele>
        <time>2012-12-02T10:40:13.24Z</time>
      </trkpt>
      <trkpt lat="45.56376" lon="5.98633">
        <ele>397</ele>
        <time>2012-12-02T10:40:15.24Z</time>
      </trkpt>
      <trkpt lat="45.5637" lon="5.98634">
        <ele>396</ele>
        <time>2012-12-02T10:40:17.25Z</time>
      </trkpt>
      <trkpt lat="45.56363" lon="5.98635">
        <ele>395</ele>
        <time>2012-12-02T10:40:19.24Z</time>
      </trkpt>
      <trkpt lat="45.56357" lon="5.98637">
        <ele>395</ele>
        <time>2012-12-02T10:40:21.24Z</time>
      </trkpt>
      <trkpt lat="45.56351" lon="5.98639">
        <ele>394</ele>
        <time>2012-12-02T10:40:23.25Z</time>
      </trkpt>
      <trkpt lat="45.56345" lon="5.98641">
        <ele>393</ele>
        <time>2012-12-02T10:40:25.26Z</time>
      </trkpt>
      <trkpt lat="45.56336" lon="5.98641">
        <ele>392</ele>
        <time>2012-12-02T10:40:27.23Z</time>
      </trkpt>
      <trkpt lat="45.5633" lon="5.98642">
        <ele>391</ele>
        <time>2012-12-02T10:40:29.23Z</time>
      </trkpt>
      <trkpt lat="45.56325" lon="5.98643">
        <ele>390</ele>
        <time>2012-12-02T10:40:31.22Z</time>
      </trkpt>
      <trkpt lat="45.56321" lon="5.98644">
        <ele>390</ele>
        <time>2012-12-02T10:40:33.24Z</time>
      </trkpt>
      <trkpt lat="45.56315" lon="5.98647">
        <ele>389</ele>
        <time>2012-12-02T10:40:35.24Z</time>
      </trkpt>
      <trkpt lat="45.5631" lon="5.9865">
        <ele>389</ele>
        <time>2012-12-02T10:40:37.26Z</time>
      </trkpt>
      <trkpt lat="45.56304" lon="5.98652">
        <ele>388</ele>
        <time>2012-12-02T10:40:39.25Z</time>
      </trkpt>
      <trkpt lat="45.56299" lon="5.98654">
        <ele>388</ele>
        <time>2012-12-02T10:40:41.24Z</time>
      </trkpt>
      <trkpt lat="45.56293" lon="5.98658">
        <ele>387</ele>
        <time>2012-12-02T10:40:43.27Z</time>
      </trkpt>
      <trkpt lat="45.5629" lon="5.98661">
        <ele>387</ele>
        <time>2012-12-02T10:40:45.27Z</time>
      </trkpt>
      <trkpt lat="45.56286" lon="5.98665">
        <ele>387</ele>
        <time>2012-12-02T10:40:47.25Z</time>
      </trkpt>
      <trkpt lat="45.56281" lon="5.98668">
        <ele>387</ele>
        <time>2012-12-02T10:40:49.23Z</time>
      </trkpt>
      <trkpt lat="45.56277" lon="5.98671">
        <ele>387</ele>
        <time>2012-12-02T10:40:51.22Z</time>
      </trkpt>
      <trkpt lat="45.56271" lon="5.98673">
        <ele>386</ele>
        <time>2012-12-02T10:40:53.23Z</time>
      </trkpt>
      <trkpt lat="45.56265" lon="5.98676">
        <ele>385</ele>
        <time>2012-12-02T10:40:55.22Z</time>
      </trkpt>
      <trkpt lat="45.56261" lon="5.98678">
        <ele>385</ele>
        <time>2012-12-02T10:40:57.28Z</time>
      </trkpt>
      <trkpt lat="45.56256" lon="5.9868">
        <ele>384</ele>
        <time>2012-12-02T10:40:59.26Z</time>
      </trkpt>
      <trkpt lat="45.56252" lon="5.98686">
        <ele>385</ele>
        <time>2012-12-02T10:41:01.26Z</time>
      </trkpt>
      <trkpt lat="45.56248" lon="5.98694">
        <ele>386</ele>
        <time>2012-12-02T10:41:03.25Z</time>
      </trkpt>
      <trkpt lat="45.56245" lon="5.98703">
        <ele>387</ele>
        <time>2012-12-02T10:41:05.21Z</time>
      </trkpt>
      <trkpt lat="45.56241" lon="5.98712">
        <ele>389</ele>
        <time>2012-12-02T10:41:07.24Z</time>
      </trkpt>
      <trkpt lat="45.56238" lon="5.9872">
        <ele>390</ele>
        <time>2012-12-02T10:41:09.25Z</time>
      </trkpt>
      <trkpt lat="45.56235" lon="5.98726">
        <ele>391</ele>
        <time>2012-12-02T10:41:11.24Z</time>
      </trkpt>
      <trkpt lat="45.5623" lon="5.9873">
        <ele>391</ele>
        <time>2012-12-02T10:41:13.25Z</time>
      </trkpt>
      <trkpt lat="45.56224" lon="5.98734">
        <ele>391</ele>
        <time>2012-12-02T10:41:15.25Z</time>
      </trkpt>
      <trkpt lat="45.56219" lon="5.98739">
        <ele>391</ele>
        <time>2012-12-02T10:41:17.24Z</time>
      </trkpt>
      <trkpt lat="45.56214" lon="5.98742">
        <ele>391</ele>
        <time>2012-12-02T10:41:19.26Z</time>
      </trkpt>
      <trkpt lat="45.56209" lon="5.98747">
        <ele>391</ele>
        <time>2012-12-02T10:41:21.24Z</time>
      </trkpt>
      <trkpt lat="45.56204" lon="5.98751">
        <ele>390</ele>
        <time>2012-12-02T10:41:23.23Z</time>
      </trkpt>
      <trkpt lat="45.56197" lon="5.98753">
        <ele>390</ele>
        <time>2012-12-02T10:41:25.22Z</time>
      </trkpt>
      <trkpt lat="45.56189" lon="5.98754">
        <ele>388</ele>
        <time>2012-12-02T10:41:27.21Z</time>
      </trkpt>
      <trkpt lat="45.56181" lon="5.98753">
        <ele>386</ele>
        <time>2012-12-02T10:41:29.24Z</time>
      </trkpt>
      <trkpt lat="45.56172" lon="5.98751">
        <ele>385</ele>
        <time>2012-12-02T10:41:31.22Z</time>
      </trkpt>
      <trkpt lat="45.56164" lon="5.98752">
        <ele>384</ele>
        <time>2012-12-02T10:41:33.25Z</time>
      </trkpt>
      <trkpt lat="45.56158" lon="5.98752">
        <ele>383</ele>
        <time>2012-12-02T10:41:35.21Z</time>
      </trkpt>
      <trkpt lat="45.56152" lon="5.98752">
        <ele>382</ele>
        <time>2012-12-02T10:41:37.24Z</time>
      </trkpt>
      <trkpt lat="45.56145" lon="5.98751">
        <ele>381</ele>
        <time>2012-12-02T10:41:39.23Z</time>
      </trkpt>
      <trkpt lat="45.5614" lon="5.9875">
        <ele>380</ele>
        <time>2012-12-02T10:41:41.24Z</time>
      </trkpt>
      <trkpt lat="45.56133" lon="5.9875">
        <ele>380</ele>
        <time>2012-12-02T10:41:43.24Z</time>
      </trkpt>
      <trkpt lat="45.56126" lon="5.98751">
        <ele>379</ele>
        <time>2012-12-02T10:41:45.23Z</time>
      </trkpt>
      <trkpt lat="45.5612" lon="5.98753">
        <ele>379</ele>
        <time>2012-12-02T10:41:47.23Z</time>
      </trkpt>
      <trkpt lat="45.56115" lon="5.98755">
        <ele>378</ele>
        <time>2012-12-02T10:41:49.25Z</time>
      </trkpt>
      <trkpt lat="45.5611" lon="5.98757">
        <ele>378</ele>
        <time>2012-12-02T10:41:51.24Z</time>
      </trkpt>
      <trkpt lat="45.56105" lon="5.98758">
        <ele>378</ele>
        <time>2012-12-02T10:41:53.23Z</time>
      </trkpt>
      <trkpt lat="45.561" lon="5.98759">
        <ele>377</ele>
        <time>2012-12-02T10:41:55.24Z</time>
      </trkpt>
      <trkpt lat="45.56095" lon="5.9876">
        <ele>377</ele>
        <time>2012-12-02T10:41:57.24Z</time>
      </trkpt>
      <trkpt lat="45.56091" lon="5.98762">
        <ele>377</ele>
        <time>2012-12-02T10:41:59.24Z</time>
      </trkpt>
      <trkpt lat="45.56086" lon="5.98764">
        <ele>377</ele>
        <time>2012-12-02T10:42:01.24Z</time>
      </trkpt>
      <trkpt lat="45.56081" lon="5.98767">
        <ele>377</ele>
        <time>2012-12-02T10:42:03.25Z</time>
      </trkpt>
      <trkpt lat="45.56076" lon="5.9877">
        <ele>377</ele>
        <time>2012-12-02T10:42:05.25Z</time>
      </trkpt>
      <trkpt lat="45.56072" lon="5.98772">
        <ele>377</ele>
        <time>2012-12-02T10:42:07.25Z</time>
      </trkpt>
      <trkpt lat="45.56068" lon="5.98774">
        <ele>376</ele>
        <time>2012-12-02T10:42:09.25Z</time>
      </trkpt>
      <trkpt lat="45.56063" lon="5.98776">
        <ele>376</ele>
        <time>2012-12-02T10:42:11.25Z</time>
      </trkpt>
      <trkpt lat="45.5606" lon="5.98779">
        <ele>376</ele>
        <time>2012-12-02T10:42:13.23Z</time>
      </trkpt>
      <trkpt lat="45.56055" lon="5.98781">
        <ele>376</ele>
        <time>2012-12-02T10:42:15.28Z</time>
      </trkpt>
      <trkpt lat="45.56051" lon="5.98783">
        <ele>376</ele>
        <time>2012-12-02T10:42:17.26Z</time>
      </trkpt>
      <trkpt lat="45.56047" lon="5.98785">
        <ele>376</ele>
        <time>2012-12-02T10:42:19.28Z</time>
      </trkpt>
      <trkpt lat="45.56044" lon="5.98787">
        <ele>376</ele>
        <time>2012-12-02T10:42:21.26Z</time>
      </trkpt>
      <trkpt lat="45.5604" lon="5.98789">
        <ele>375</ele>
        <time>2012-12-02T10:42:23.23Z</time>
      </trkpt>
      <trkpt lat="45.56036" lon="5.98791">
        <ele>375</ele>
        <time>2012-12-02T10:42:25.23Z</time>
      </trkpt>
      <trkpt lat="45.56032" lon="5.98792">
        <ele>375</ele>
        <time>2012-12-02T10:42:27.24Z</time>
      </trkpt>
      <trkpt lat="45.56028" lon="5.98792">
        <ele>374</ele>
        <time>2012-12-02T10:42:29.25Z</time>
      </trkpt>
      <trkpt lat="45.56024" lon="5.98792">
        <ele>374</ele>
        <time>2012-12-02T10:42:31.26Z</time>
      </trkpt>
      <trkpt lat="45.56019" lon="5.98793">
        <ele>373</ele>
        <time>2012-12-02T10:42:33.26Z</time>
      </trkpt>
      <trkpt lat="45.56013" lon="5.98794">
        <ele>373</ele>
        <time>2012-12-02T10:42:35.25Z</time>
      </trkpt>
      <trkpt lat="45.56007" lon="5.98795">
        <ele>372</ele>
        <time>2012-12-02T10:42:37.23Z</time>
      </trkpt>
      <trkpt lat="45.56001" lon="5.98795">
        <ele>371</ele>
        <time>2012-12-02T10:42:39.24Z</time>
      </trkpt>
      <trkpt lat="45.55996" lon="5.98796">
        <ele>370</ele>
        <time>2012-12-02T10:42:41.24Z</time>
      </trkpt>
      <trkpt lat="45.55991" lon="5.98796">
        <ele>370</ele>
        <time>2012-12-02T10:42:43.25Z</time>
      </trkpt>
      <trkpt lat="45.55986" lon="5.98797">
        <ele>369</ele>
        <time>2012-12-02T10:42:45.24Z</time>
      </trkpt>
      <trkpt lat="45.5598" lon="5.98797">
        <ele>368</ele>
        <time>2012-12-02T10:42:47.26Z</time>
      </trkpt>
      <trkpt lat="45.55975" lon="5.98796">
        <ele>367</ele>
        <time>2012-12-02T10:42:49.27Z</time>
      </trkpt>
      <trkpt lat="45.55969" lon="5.98796">
        <ele>367</ele>
        <time>2012-12-02T10:42:51.27Z</time>
      </trkpt>
      <trkpt lat="45.55964" lon="5.98797">
        <ele>366</ele>
        <time>2012-12-02T10:42:53.27Z</time>
      </trkpt>
      <trkpt lat="45.55959" lon="5.98798">
        <ele>366</ele>
        <time>2012-12-02T10:42:55.23Z</time>
      </trkpt>
      <trkpt lat="45.55955" lon="5.98799">
        <ele>365</ele>
        <time>2012-12-02T10:42:57.24Z</time>
      </trkpt>
      <trkpt lat="45.5595" lon="5.98801">
        <ele>365</ele>
        <time>2012-12-02T10:42:59.23Z</time>
      </trkpt>
      <trkpt lat="45.55943" lon="5.98803">
        <ele>364</ele>
        <time>2012-12-02T10:43:01.24Z</time>
      </trkpt>
      <trkpt lat="45.55937" lon="5.98804">
        <ele>364</ele>
        <time>2012-12-02T10:43:03.26Z</time>
      </trkpt>
      <trkpt lat="45.55932" lon="5.98806">
        <ele>364</ele>
        <time>2012-12-02T10:43:05.24Z</time>
      </trkpt>
      <trkpt lat="45.55926" lon="5.98809">
        <ele>364</ele>
        <time>2012-12-02T10:43:07.26Z</time>
      </trkpt>
      <trkpt lat="45.55922" lon="5.98812">
        <ele>364</ele>
        <time>2012-12-02T10:43:09.25Z</time>
      </trkpt>
      <trkpt lat="45.55918" lon="5.98815">
        <ele>364</ele>
        <time>2012-12-02T10:43:11.25Z</time>
      </trkpt>
      <trkpt lat="45.55914" lon="5.98817">
        <ele>364</ele>
        <time>2012-12-02T10:43:13.24Z</time>
      </trkpt>
      <trkpt lat="45.5591" lon="5.98819">
        <ele>364</ele>
        <time>2012-12-02T10:43:15.22Z</time>
      </trkpt>
      <trkpt lat="45.55906" lon="5.98822">
        <ele>364</ele>
        <time>2012-12-02T10:43:17.24Z</time>
      </trkpt>
      <trkpt lat="45.55902" lon="5.98825">
        <ele>364</ele>
        <time>2012-12-02T10:43:19.24Z</time>
      </trkpt>
      <trkpt lat="45.55898" lon="5.98828">
        <ele>364</ele>
        <time>2012-12-02T10:43:21.25Z</time>
      </trkpt>
      <trkpt lat="45.55895" lon="5.98831">
        <ele>364</ele>
        <time>2012-12-02T10:43:23.27Z</time>
      </trkpt>
      <trkpt lat="45.55891" lon="5.98834">
        <ele>365</ele>
        <time>2012-12-02T10:43:25.27Z</time>
      </trkpt>
      <trkpt lat="45.55887" lon="5.98836">
        <ele>365</ele>
        <time>2012-12-02T10:43:27.22Z</time>
      </trkpt>
      <trkpt lat="45.55885" lon="5.9884">
        <ele>365</ele>
        <time>2012-12-02T10:43:29.24Z</time>
      </trkpt>
      <trkpt lat="45.55881" lon="5.98842">
        <ele>365</ele>
        <time>2012-12-02T10:43:31.23Z</time>
      </trkpt>
      <trkpt lat="45.55877" lon="5.98844">
        <ele>365</ele>
        <time>2012-12-02T10:43:33.24Z</time>
      </trkpt>
      <trkpt lat="45.55874" lon="5.98848">
        <ele>366</ele>
        <time>2012-12-02T10:43:35.26Z</time>
      </trkpt>
      <trkpt lat="45.55871" lon="5.9885">
        <ele>366</ele>
        <time>2012-12-02T10:43:37.26Z</time>
      </trkpt>
      <trkpt lat="45.55867" lon="5.98852">
        <ele>366</ele>
        <time>2012-12-02T10:43:39.25Z</time>
      </trkpt>
      <trkpt lat="45.55864" lon="5.98854">
        <ele>366</ele>
        <time>2012-12-02T10:43:41.24Z</time>
      </trkpt>
      <trkpt lat="45.55862" lon="5.98857">
        <ele>366</ele>
        <time>2012-12-02T10:43:43.23Z</time>
      </trkpt>
      <trkpt lat="45.55859" lon="5.9886">
        <ele>366</ele>
        <time>2012-12-02T10:43:45.24Z</time>
      </trkpt>
      <trkpt lat="45.55855" lon="5.98864">
        <ele>367</ele>
        <time>2012-12-02T10:43:47.21Z</time>
      </trkpt>
      <trkpt lat="45.5585" lon="5.98866">
        <ele>367</ele>
        <time>2012-12-02T10:43:49.25Z</time>
      </trkpt>
      <trkpt lat="45.55846" lon="5.98868">
        <ele>367</ele>
        <time>2012-12-02T10:43:51.28Z</time>
      </trkpt>
      <trkpt lat="45.55843" lon="5.98873">
        <ele>367</ele>
        <time>2012-12-02T10:43:53.23Z</time>
      </trkpt>
      <trkpt lat="45.5584" lon="5.98879">
        <ele>368</ele>
        <time>2012-12-02T10:43:55.26Z</time>
      </trkpt>
      <trkpt lat="45.55835" lon="5.98881">
        <ele>368</ele>
        <time>2012-12-02T10:43:57.27Z</time>
      </trkpt>
      <trkpt lat="45.55829" lon="5.9888">
        <ele>367</ele>
        <time>2012-12-02T10:43:59.23Z</time>
      </trkpt>
      <trkpt lat="45.55822" lon="5.98877">
        <ele>366</ele>
        <time>2012-12-02T10:44:01.22Z</time>
      </trkpt>
      <trkpt lat="45.55815" lon="5.98874">
        <ele>365</ele>
        <time>2012-12-02T10:44:03.22Z</time>
      </trkpt>
      <trkpt lat="45.55807" lon="5.98872">
        <ele>364</ele>
        <time>2012-12-02T10:44:05.25Z</time>
      </trkpt>
      <trkpt lat="45.55801" lon="5.9887">
        <ele>363</ele>
        <time>2012-12-02T10:44:07.25Z</time>
      </trkpt>
      <trkpt lat="45.55795" lon="5.98867">
        <ele>362</ele>
        <time>2012-12-02T10:44:09.26Z</time>
      </trkpt>
      <trkpt lat="45.5579" lon="5.98863">
        <ele>361</ele>
        <time>2012-12-02T10:44:11.25Z</time>
      </trkpt>
      <trkpt lat="45.55785" lon="5.9886">
        <ele>360</ele>
        <time>2012-12-02T10:44:13.25Z</time>
      </trkpt>
      <trkpt lat="45.55778" lon="5.98859">
        <ele>359</ele>
        <time>2012-12-02T10:44:15.24Z</time>
      </trkpt>
      <trkpt lat="45.55773" lon="5.98857">
        <ele>358</ele>
        <time>2012-12-02T10:44:17.24Z</time>
      </trkpt>
      <trkpt lat="45.55766" lon="5.98856">
        <ele>357</ele>
        <time>2012-12-02T10:44:19.21Z</time>
      </trkpt>
      <trkpt lat="45.5576" lon="5.98855">
        <ele>356</ele>
        <time>2012-12-02T10:44:21.22Z</time>
      </trkpt>
      <trkpt lat="45.55754" lon="5.98853">
        <ele>355</ele>
        <time>2012-12-02T10:44:23.25Z</time>
      </trkpt>
      <trkpt lat="45.55748" lon="5.98853">
        <ele>354</ele>
        <time>2012-12-02T10:44:25.23Z</time>
      </trkpt>
      <trkpt lat="45.55744" lon="5.98851">
        <ele>354</ele>
        <time>2012-12-02T10:44:27.25Z</time>
      </trkpt>
      <trkpt lat="45.55738" lon="5.98849">
        <ele>353</ele>
        <time>2012-12-02T10:44:29.21Z</time>
      </trkpt>
      <trkpt lat="45.55733" lon="5.98846">
        <ele>352</ele>
        <time>2012-12-02T10:44:31.24Z</time>
      </trkpt>
      <trkpt lat="45.55729" lon="5.98839">
        <ele>351</ele>
        <time>2012-12-02T10:44:33.21Z</time>
      </trkpt>
      <trkpt lat="45.55723" lon="5.98835">
        <ele>349</ele>
        <time>2012-12-02T10:44:35.24Z</time>
      </trkpt>
      <trkpt lat="45.55718" lon="5.9883">
        <ele>348</ele>
        <time>2012-12-02T10:44:37.22Z</time>
      </trkpt>
      <trkpt lat="45.55714" lon="5.98824">
        <ele>347</ele>
        <time>2012-12-02T10:44:39.26Z</time>
      </trkpt>
      <trkpt lat="45.5571" lon="5.98817">
        <ele>346</ele>
        <time>2012-12-02T10:44:41.22Z</time>
      </trkpt>
      <trkpt lat="45.55706" lon="5.9881">
        <ele>345</ele>
        <time>2012-12-02T10:44:43.24Z</time>
      </trkpt>
      <trkpt lat="45.55705" lon="5.98802">
        <ele>344</ele>
        <time>2012-12-02T10:44:45.24Z</time>
      </trkpt>
      <trkpt lat="45.55706" lon="5.98789">
        <ele>342</ele>
        <time>2012-12-02T10:44:47.24Z</time>
      </trkpt>
      <trkpt lat="45.55712" lon="5.98776">
        <ele>342</ele>
        <time>2012-12-02T10:44:49.23Z</time>
      </trkpt>
      <trkpt lat="45.55721" lon="5.98768">
        <ele>341</ele>
        <time>2012-12-02T10:44:51.23Z</time>
      </trkpt>
      <trkpt lat="45.55728" lon="5.9876">
        <ele>340</ele>
        <time>2012-12-02T10:44:53.24Z</time>
      </trkpt>
      <trkpt lat="45.55732" lon="5.98752">
        <ele>339</ele>
        <time>2012-12-02T10:44:55.27Z</time>
      </trkpt>
      <trkpt lat="45.55737" lon="5.98746">
        <ele>338</ele>
        <time>2012-12-02T10:44:57.25Z</time>
      </trkpt>
      <trkpt lat="45.55742" lon="5.98744">
        <ele>338</ele>
        <time>2012-12-02T10:44:59.24Z</time>
      </trkpt>
      <trkpt lat="45.55747" lon="5.98742">
        <ele>337</ele>
        <time>2012-12-02T10:45:01.28Z</time>
      </trkpt>
      <trkpt lat="45.55753" lon="5.98737">
        <ele>337</ele>
        <time>2012-12-02T10:45:03.23Z</time>
      </trkpt>
      <trkpt lat="45.55758" lon="5.98734">
        <ele>337</ele>
        <time>2012-12-02T10:45:05.23Z</time>
      </trkpt>
      <trkpt lat="45.55763" lon="5.98731">
        <ele>336</ele>
        <time>2012-12-02T10:45:07.23Z</time>
      </trkpt>
      <trkpt lat="45.55769" lon="5.98726">
        <ele>336</ele>
        <time>2012-12-02T10:45:09.25Z</time>
      </trkpt>
      <trkpt lat="45.55775" lon="5.98721">
        <ele>336</ele>
        <time>2012-12-02T10:45:11.25Z</time>
      </trkpt>
      <trkpt lat="45.55781" lon="5.98715">
        <ele>335</ele>
        <time>2012-12-02T10:45:13.25Z</time>
      </trkpt>
      <trkpt lat="45.55786" lon="5.98711">
        <ele>335</ele>
        <time>2012-12-02T10:45:15.25Z</time>
      </trkpt>
      <trkpt lat="45.55791" lon="5.98706">
        <ele>335</ele>
        <time>2012-12-02T10:45:17.25Z</time>
      </trkpt>
      <trkpt lat="45.55797" lon="5.98703">
        <ele>335</ele>
        <time>2012-12-02T10:45:19.23Z</time>
      </trkpt>
      <trkpt lat="45.55803" lon="5.987">
        <ele>335</ele>
        <time>2012-12-02T10:45:21.23Z</time>
      </trkpt>
      <trkpt lat="45.5581" lon="5.98698">
        <ele>335</ele>
        <time>2012-12-02T10:45:23.22Z</time>
      </trkpt>
      <trkpt lat="45.55816" lon="5.98696">
        <ele>336</ele>
        <time>2012-12-02T10:45:25.24Z</time>
      </trkpt>
      <trkpt lat="45.55821" lon="5.98692">
        <ele>336</ele>
        <time>2012-12-02T10:45:27.27Z</time>
      </trkpt>
      <trkpt lat="45.55826" lon="5.98688">
        <ele>336</ele>
        <time>2012-12-02T10:45:29.21Z</time>
      </trkpt>
      <trkpt lat="45.55832" lon="5.98685">
        <ele>336</ele>
        <time>2012-12-02T10:45:31.29Z</time>
      </trkpt>
      <trkpt lat="45.55838" lon="5.98682">
        <ele>336</ele>
        <time>2012-12-02T10:45:33.24Z</time>
      </trkpt>
      <trkpt lat="45.55844" lon="5.98679">
        <ele>337</ele>
        <time>2012-12-02T10:45:35.22Z</time>
      </trkpt>
      <trkpt lat="45.5585" lon="5.98676">
        <ele>337</ele>
        <time>2012-12-02T10:45:37.28Z</time>
      </trkpt>
      <trkpt lat="45.55857" lon="5.98676">
        <ele>337</ele>
        <time>2012-12-02T10:45:39.2Z</time>
      </trkpt>
      <trkpt lat="45.55863" lon="5.98678">
        <ele>338</ele>
        <time>2012-12-02T10:45:41.25Z</time>
      </trkpt>
      <trkpt lat="45.5587" lon="5.98677">
        <ele>338</ele>
        <time>2012-12-02T10:45:43.24Z</time>
      </trkpt>
      <trkpt lat="45.55875" lon="5.98675">
        <ele>339</ele>
        <time>2012-12-02T10:45:45.26Z</time>
      </trkpt>
      <trkpt lat="45.5588" lon="5.98675">
        <ele>340</ele>
        <time>2012-12-02T10:45:47.28Z</time>
      </trkpt>
      <trkpt lat="45.55888" lon="5.98681">
        <ele>341</ele>
        <time>2012-12-02T10:45:49.28Z</time>
      </trkpt>
      <trkpt lat="45.55893" lon="5.98683">
        <ele>341</ele>
        <time>2012-12-02T10:45:51.27Z</time>
      </trkpt>
      <trkpt lat="45.55898" lon="5.98681">
        <ele>341</ele>
        <time>2012-12-02T10:45:53.23Z</time>
      </trkpt>
      <trkpt lat="45.559" lon="5.98679">
        <ele>341</ele>
        <time>2012-12-02T10:45:55.24Z</time>
      </trkpt>
      <trkpt lat="45.559" lon="5.98675">
        <ele>341</ele>
        <time>2012-12-02T10:45:57.25Z</time>
      </trkpt>
      <trkpt lat="45.55901" lon="5.98669">
        <ele>341</ele>
        <time>2012-12-02T10:45:59.26Z</time>
      </trkpt>
      <trkpt lat="45.55905" lon="5.98656">
        <ele>340</ele>
        <time>2012-12-02T10:46:01.22Z</time>
      </trkpt>
      <trkpt lat="45.55905" lon="5.98649">
        <ele>340</ele>
        <time>2012-12-02T10:46:03.24Z</time>
      </trkpt>
      <trkpt lat="45.55905" lon="5.98642">
        <ele>339</ele>
        <time>2012-12-02T10:46:05.25Z</time>
      </trkpt>
      <trkpt lat="45.55905" lon="5.98636">
        <ele>338</ele>
        <time>2012-12-02T10:46:07.26Z</time>
      </trkpt>
      <trkpt lat="45.55905" lon="5.98631">
        <ele>338</ele>
        <time>2012-12-02T10:46:09.23Z</time>
      </trkpt>
      <trkpt lat="45.55904" lon="5.98624">
        <ele>337</ele>
        <time>2012-12-02T10:46:11.24Z</time>
      </trkpt>
      <trkpt lat="45.55905" lon="5.98615">
        <ele>337</ele>
        <time>2012-12-02T10:46:13.24Z</time>
      </trkpt>
      <trkpt lat="45.55908" lon="5.98606">
        <ele>336</ele>
        <time>2012-12-02T10:46:15.26Z</time>
      </trkpt>
      <trkpt lat="45.55912" lon="5.98594">
        <ele>335</ele>
        <time>2012-12-02T10:46:17.23Z</time>
      </trkpt>
      <trkpt lat="45.55916" lon="5.98584">
        <ele>334</ele>
        <time>2012-12-02T10:46:19.31Z</time>
      </trkpt>
      <trkpt lat="45.55919" lon="5.98577">
        <ele>334</ele>
        <time>2012-12-02T10:46:21.27Z</time>
      </trkpt>
      <trkpt lat="45.55921" lon="5.9857">
        <ele>333</ele>
        <time>2012-12-02T10:46:23.23Z</time>
      </trkpt>
      <trkpt lat="45.55923" lon="5.98562">
        <ele>333</ele>
        <time>2012-12-02T10:46:25.25Z</time>
      </trkpt>
      <trkpt lat="45.55924" lon="5.98554">
        <ele>332</ele>
        <time>2012-12-02T10:46:27.22Z</time>
      </trkpt>
      <trkpt lat="45.55925" lon="5.98549">
        <ele>331</ele>
        <time>2012-12-02T10:46:29.24Z</time>
      </trkpt>
      <trkpt lat="45.55924" lon="5.98544">
        <ele>331</ele>
        <time>2012-12-02T10:46:31.31Z</time>
      </trkpt>
      <trkpt lat="45.55923" lon="5.98538">
        <ele>330</ele>
        <time>2012-12-02T10:46:33.26Z</time>
      </trkpt>
      <trkpt lat="45.55922" lon="5.9853">
        <ele>329</ele>
        <time>2012-12-02T10:46:35.26Z</time>
      </trkpt>
      <trkpt lat="45.55921" lon="5.98523">
        <ele>328</ele>
        <time>2012-12-02T10:46:37.28Z</time>
      </trkpt>
      <trkpt lat="45.55919" lon="5.98516">
        <ele>327</ele>
        <time>2012-12-02T10:46:39.25Z</time>
      </trkpt>
      <trkpt lat="45.55917" lon="5.98509">
        <ele>326</ele>
        <time>2012-12-02T10:46:41.24Z</time>
      </trkpt>
      <trkpt lat="45.55912" lon="5.98503">
        <ele>325</ele>
        <time>2012-12-02T10:46:43.22Z</time>
      </trkpt>
      <trkpt lat="45.55907" lon="5.985">
        <ele>324</ele>
        <time>2012-12-02T10:46:45.24Z</time>
      </trkpt>
      <trkpt lat="45.55902" lon="5.98497">
        <ele>323</ele>
        <time>2012-12-02T10:46:47.23Z</time>
      </trkpt>
      <trkpt lat="45.55896" lon="5.98494">
        <ele>322</ele>
        <time>2012-12-02T10:46:49.25Z</time>
      </trkpt>
      <trkpt lat="45.55891" lon="5.98493">
        <ele>321</ele>
        <time>2012-12-02T10:46:51.23Z</time>
      </trkpt>
      <trkpt lat="45.55885" lon="5.98488">
        <ele>320</ele>
        <time>2012-12-02T10:46:53.26Z</time>
      </trkpt>
      <trkpt lat="45.55879" lon="5.98484">
        <ele>319</ele>
        <time>2012-12-02T10:46:55.24Z</time>
      </trkpt>
      <trkpt lat="45.55873" lon="5.98481">
        <ele>317</ele>
        <time>2012-12-02T10:46:57.21Z</time>
      </trkpt>
      <trkpt lat="45.55867" lon="5.9848">
        <ele>316</ele>
        <time>2012-12-02T10:46:59.21Z</time>
      </trkpt>
      <trkpt lat="45.55862" lon="5.98481">
        <ele>316</ele>
        <time>2012-12-02T10:47:01.28Z</time>
      </trkpt>
      <trkpt lat="45.55858" lon="5.98485">
        <ele>316</ele>
        <time>2012-12-02T10:47:03.24Z</time>
      </trkpt>
      <trkpt lat="45.55852" lon="5.98486">
        <ele>315</ele>
        <time>2012-12-02T10:47:05.26Z</time>
      </trkpt>
      <trkpt lat="45.55847" lon="5.98488">
        <ele>315</ele>
        <time>2012-12-02T10:47:07.27Z</time>
      </trkpt>
      <trkpt lat="45.55843" lon="5.98491">
        <ele>315</ele>
        <time>2012-12-02T10:47:09.25Z</time>
      </trkpt>
      <trkpt lat="45.5584" lon="5.98494">
        <ele>315</ele>
        <time>2012-12-02T10:47:11.23Z</time>
      </trkpt>
      <trkpt lat="45.55837" lon="5.98498">
        <ele>315</ele>
        <time>2012-12-02T10:47:13.24Z</time>
      </trkpt>
      <trkpt lat="45.55833" lon="5.985">
        <ele>315</ele>
        <time>2012-12-02T10:47:15.24Z</time>
      </trkpt>
      <trkpt lat="45.55828" lon="5.98501">
        <ele>314</ele>
        <time>2012-12-02T10:47:17.24Z</time>
      </trkpt>
      <trkpt lat="45.55824" lon="5.98502">
        <ele>314</ele>
        <time>2012-12-02T10:47:19.28Z</time>
      </trkpt>
      <trkpt lat="45.55819" lon="5.98504">
        <ele>314</ele>
        <time>2012-12-02T10:47:21.24Z</time>
      </trkpt>
      <trkpt lat="45.55817" lon="5.98507">
        <ele>314</ele>
        <time>2012-12-02T10:47:23.26Z</time>
      </trkpt>
      <trkpt lat="45.55813" lon="5.98515">
        <ele>314</ele>
        <time>2012-12-02T10:47:25.24Z</time>
      </trkpt>
      <trkpt lat="45.5581" lon="5.98524">
        <ele>314</ele>
        <time>2012-12-02T10:47:27.26Z</time>
      </trkpt>
      <trkpt lat="45.55806" lon="5.9853">
        <ele>314</ele>
        <time>2012-12-02T10:47:29.24Z</time>
      </trkpt>
      <trkpt lat="45.55801" lon="5.98527">
        <ele>314</ele>
        <time>2012-12-02T10:47:31.22Z</time>
      </trkpt>
      <trkpt lat="45.55803" lon="5.98518">
        <ele>313</ele>
        <time>2012-12-02T10:47:33.24Z</time>
      </trkpt>
      <trkpt lat="45.55803" lon="5.9851">
        <ele>312</ele>
        <time>2012-12-02T10:47:35.26Z</time>
      </trkpt>
      <trkpt lat="45.55805" lon="5.98501">
        <ele>311</ele>
        <time>2012-12-02T10:47:37.24Z</time>
      </trkpt>
      <trkpt lat="45.55807" lon="5.98493">
        <ele>311</ele>
        <time>2012-12-02T10:47:39.25Z</time>
      </trkpt>
      <trkpt lat="45.55809" lon="5.98486">
        <ele>310</ele>
        <time>2012-12-02T10:47:41.24Z</time>
      </trkpt>
      <trkpt lat="45.55811" lon="5.98482">
        <ele>310</ele>
        <time>2012-12-02T10:47:43.24Z</time>
      </trkpt>
      <trkpt lat="45.55814" lon="5.98476">
        <ele>310</ele>
        <time>2012-12-02T10:47:45.24Z</time>
      </trkpt>
      <trkpt lat="45.55817" lon="5.98469">
        <ele>309</ele>
        <time>2012-12-02T10:47:47.23Z</time>
      </trkpt>
      <trkpt lat="45.5582" lon="5.98461">
        <ele>308</ele>
        <time>2012-12-02T10:47:49.24Z</time>
      </trkpt>
      <trkpt lat="45.55821" lon="5.98454">
        <ele>307</ele>
        <time>2012-12-02T10:47:51.25Z</time>
      </trkpt>
      <trkpt lat="45.55823" lon="5.98447">
        <ele>307</ele>
        <time>2012-12-02T10:47:53.25Z</time>
      </trkpt>
      <trkpt lat="45.55824" lon="5.9844">
        <ele>306</ele>
        <time>2012-12-02T10:47:55.27Z</time>
      </trkpt>
      <trkpt lat="45.55825" lon="5.98436">
        <ele>305</ele>
        <time>2012-12-02T10:47:57.24Z</time>
      </trkpt>
      <trkpt lat="45.55826" lon="5.98433">
        <ele>305</ele>
        <time>2012-12-02T10:47:59.22Z</time>
      </trkpt>
      <trkpt lat="45.55827" lon="5.98429">
        <ele>304</ele>
        <time>2012-12-02T10:48:01.24Z</time>
      </trkpt>
      <trkpt lat="45.55828" lon="5.98426">
        <ele>304</ele>
        <time>2012-12-02T10:48:03.21Z</time>
      </trkpt>
      <trkpt lat="45.55828" lon="5.9842">
        <ele>303</ele>
        <time>2012-12-02T10:48:05.25Z</time>
      </trkpt>
      <trkpt lat="45.55828" lon="5.98415">
        <ele>303</ele>
        <time>2012-12-02T10:48:07.25Z</time>
      </trkpt>
      <trkpt lat="45.55825" lon="5.98407">
        <ele>302</ele>
        <time>2012-12-02T10:48:09.26Z</time>
      </trkpt>
      <trkpt lat="45.55822" lon="5.984">
        <ele>301</ele>
        <time>2012-12-02T10:48:11.25Z</time>
      </trkpt>
      <trkpt lat="45.55822" lon="5.98392">
        <ele>301</ele>
        <time>2012-12-02T10:48:13.24Z</time>
      </trkpt>
      <trkpt lat="45.55822" lon="5.98383">
        <ele>300</ele>
        <time>2012-12-02T10:48:15.25Z</time>
      </trkpt>
      <trkpt lat="45.55822" lon="5.98374">
        <ele>300</ele>
        <time>2012-12-02T10:48:17.24Z</time>
      </trkpt>
      <trkpt lat="45.55823" lon="5.98365">
        <ele>299</ele>
        <time>2012-12-02T10:48:19.23Z</time>
      </trkpt>
      <trkpt lat="45.55827" lon="5.98353">
        <ele>299</ele>
        <time>2012-12-02T10:48:21.25Z</time>
      </trkpt>
      <trkpt lat="45.55831" lon="5.98341">
        <ele>299</ele>
        <time>2012-12-02T10:48:23.24Z</time>
      </trkpt>
      <trkpt lat="45.55835" lon="5.98336">
        <ele>299</ele>
        <time>2012-12-02T10:48:25.27Z</time>
      </trkpt>
      <trkpt lat="45.55838" lon="5.98325">
        <ele>299</ele>
        <time>2012-12-02T10:48:27.26Z</time>
      </trkpt>
      <trkpt lat="45.5584" lon="5.98316">
        <ele>299</ele>
        <time>2012-12-02T10:48:29.27Z</time>
      </trkpt>
      <trkpt lat="45.55845" lon="5.98308">
        <ele>299</ele>
        <time>2012-12-02T10:48:31.24Z</time>
      </trkpt>
      <trkpt lat="45.5585" lon="5.98303">
        <ele>299</ele>
        <time>2012-12-02T10:48:33.24Z</time>
      </trkpt>
      <trkpt lat="45.55853" lon="5.98297">
        <ele>299</ele>
        <time>2012-12-02T10:48:35.23Z</time>
      </trkpt>
      <trkpt lat="45.55859" lon="5.98293">
        <ele>299</ele>
        <time>2012-12-02T10:48:37.23Z</time>
      </trkpt>
      <trkpt lat="45.55864" lon="5.98289">
        <ele>299</ele>
        <time>2012-12-02T10:48:39.26Z</time>
      </trkpt>
      <trkpt lat="45.55869" lon="5.98285">
        <ele>299</ele>
        <time>2012-12-02T10:48:41.29Z</time>
      </trkpt>
      <trkpt lat="45.55873" lon="5.98282">
        <ele>299</ele>
        <time>2012-12-02T10:48:43.24Z</time>
      </trkpt>
      <trkpt lat="45.55877" lon="5.98277">
        <ele>299</ele>
        <time>2012-12-02T10:48:45.26Z</time>
      </trkpt>
      <trkpt lat="45.55882" lon="5.98275">
        <ele>299</ele>
        <time>2012-12-02T10:48:47.23Z</time>
      </trkpt>
      <trkpt lat="45.55887" lon="5.98273">
        <ele>299</ele>
        <time>2012-12-02T10:48:49.24Z</time>
      </trkpt>
      <trkpt lat="45.55892" lon="5.9827">
        <ele>298</ele>
        <time>2012-12-02T10:48:51.23Z</time>
      </trkpt>
      <trkpt lat="45.55899" lon="5.9827">
        <ele>299</ele>
        <time>2012-12-02T10:48:53.22Z</time>
      </trkpt>
      <trkpt lat="45.55905" lon="5.9827">
        <ele>299</ele>
        <time>2012-12-02T10:48:55.26Z</time>
      </trkpt>
      <trkpt lat="45.5591" lon="5.98267">
        <ele>299</ele>
        <time>2012-12-02T10:48:57.25Z</time>
      </trkpt>
      <trkpt lat="45.55915" lon="5.98265">
        <ele>299</ele>
        <time>2012-12-02T10:48:59.29Z</time>
      </trkpt>
      <trkpt lat="45.5592" lon="5.98264">
        <ele>299</ele>
        <time>2012-12-02T10:49:01.25Z</time>
      </trkpt>
      <trkpt lat="45.55926" lon="5.98262">
        <ele>299</ele>
        <time>2012-12-02T10:49:04.24Z</time>
      </trkpt>
      <trkpt lat="45.55932" lon="5.9826">
        <ele>299</ele>
        <time>2012-12-02T10:49:06.27Z</time>
      </trkpt>
      <trkpt lat="45.55937" lon="5.98259">
        <ele>299</ele>
        <time>2012-12-02T10:49:08.21Z</time>
      </trkpt>
      <trkpt lat="45.55943" lon="5.98257">
        <ele>300</ele>
        <time>2012-12-02T10:49:10.24Z</time>
      </trkpt>
      <trkpt lat="45.55948" lon="5.98255">
        <ele>300</ele>
        <time>2012-12-02T10:49:12.22Z</time>
      </trkpt>
      <trkpt lat="45.55953" lon="5.98254">
        <ele>300</ele>
        <time>2012-12-02T10:49:14.23Z</time>
      </trkpt>
      <trkpt lat="45.55958" lon="5.98253">
        <ele>300</ele>
        <time>2012-12-02T10:49:16.26Z</time>
      </trkpt>
      <trkpt lat="45.55963" lon="5.9825">
        <ele>300</ele>
        <time>2012-12-02T10:49:18.27Z</time>
      </trkpt>
      <trkpt lat="45.55968" lon="5.98248">
        <ele>300</ele>
        <time>2012-12-02T10:49:20.26Z</time>
      </trkpt>
      <trkpt lat="45.55972" lon="5.98245">
        <ele>300</ele>
        <time>2012-12-02T10:49:22.27Z</time>
      </trkpt>
      <trkpt lat="45.55977" lon="5.98243">
        <ele>300</ele>
        <time>2012-12-02T10:49:24.31Z</time>
      </trkpt>
      <trkpt lat="45.55982" lon="5.98242">
        <ele>300</ele>
        <time>2012-12-02T10:49:26.25Z</time>
      </trkpt>
      <trkpt lat="45.55988" lon="5.98242">
        <ele>300</ele>
        <time>2012-12-02T10:49:28.26Z</time>
      </trkpt>
      <trkpt lat="45.55994" lon="5.98242">
        <ele>300</ele>
        <time>2012-12-02T10:49:30.22Z</time>
      </trkpt>
      <trkpt lat="45.55999" lon="5.98242">
        <ele>300</ele>
        <time>2012-12-02T10:49:32.23Z</time>
      </trkpt>
      <trkpt lat="45.56004" lon="5.98241">
        <ele>300</ele>
        <time>2012-12-02T10:49:34.23Z</time>
      </trkpt>
      <trkpt lat="45.56009" lon="5.98238">
        <ele>300</ele>
        <time>2012-12-02T10:49:36.25Z</time>
      </trkpt>
      <trkpt lat="45.56015" lon="5.98237">
        <ele>300</ele>
        <time>2012-12-02T10:49:38.25Z</time>
      </trkpt>
      <trkpt lat="45.5602" lon="5.98234">
        <ele>300</ele>
        <time>2012-12-02T10:49:40.26Z</time>
      </trkpt>
      <trkpt lat="45.56025" lon="5.98231">
        <ele>300</ele>
        <time>2012-12-02T10:49:42.24Z</time>
      </trkpt>
      <trkpt lat="45.56031" lon="5.9823">
        <ele>300</ele>
        <time>2012-12-02T10:49:44.22Z</time>
      </trkpt>
      <trkpt lat="45.56036" lon="5.98227">
        <ele>300</ele>
        <time>2012-12-02T10:49:46.22Z</time>
      </trkpt>
      <trkpt lat="45.5604" lon="5.98224">
        <ele>300</ele>
        <time>2012-12-02T10:49:48.22Z</time>
      </trkpt>
      <trkpt lat="45.56045" lon="5.98221">
        <ele>300</ele>
        <time>2012-12-02T10:49:50.26Z</time>
      </trkpt>
      <trkpt lat="45.5605" lon="5.9822">
        <ele>300</ele>
        <time>2012-12-02T10:49:52.26Z</time>
      </trkpt>
      <trkpt lat="45.56055" lon="5.98218">
        <ele>300</ele>
        <time>2012-12-02T10:49:54.26Z</time>
      </trkpt>
      <trkpt lat="45.56059" lon="5.98216">
        <ele>300</ele>
        <time>2012-12-02T10:49:56.25Z</time>
      </trkpt>
      <trkpt lat="45.56063" lon="5.98214">
        <ele>300</ele>
        <time>2012-12-02T10:49:58.24Z</time>
      </trkpt>
      <trkpt lat="45.56068" lon="5.98212">
        <ele>300</ele>
        <time>2012-12-02T10:50:00.24Z</time>
      </trkpt>
      <trkpt lat="45.56073" lon="5.98213">
        <ele>300</ele>
        <time>2012-12-02T10:50:02.24Z</time>
      </trkpt>
      <trkpt lat="45.56079" lon="5.98213">
        <ele>300</ele>
        <time>2012-12-02T10:50:04.26Z</time>
      </trkpt>
      <trkpt lat="45.56085" lon="5.98215">
        <ele>300</ele>
        <time>2012-12-02T10:50:06.25Z</time>
      </trkpt>
      <trkpt lat="45.5609" lon="5.98217">
        <ele>300</ele>
        <time>2012-12-02T10:50:08.25Z</time>
      </trkpt>
      <trkpt lat="45.56095" lon="5.98218">
        <ele>300</ele>
        <time>2012-12-02T10:50:10.31Z</time>
      </trkpt>
      <trkpt lat="45.561" lon="5.98217">
        <ele>300</ele>
        <time>2012-12-02T10:50:12.24Z</time>
      </trkpt>
      <trkpt lat="45.56105" lon="5.98215">
        <ele>300</ele>
        <time>2012-12-02T10:50:14.23Z</time>
      </trkpt>
      <trkpt lat="45.56111" lon="5.98214">
        <ele>300</ele>
        <time>2012-12-02T10:50:16.23Z</time>
      </trkpt>
      <trkpt lat="45.56116" lon="5.98214">
        <ele>300</ele>
        <time>2012-12-02T10:50:18.25Z</time>
      </trkpt>
      <trkpt lat="45.56121" lon="5.98212">
        <ele>300</ele>
        <time>2012-12-02T10:50:20.23Z</time>
      </trkpt>
      <trkpt lat="45.56126" lon="5.9821">
        <ele>300</ele>
        <time>2012-12-02T10:50:22.25Z</time>
      </trkpt>
      <trkpt lat="45.56131" lon="5.98208">
        <ele>300</ele>
        <time>2012-12-02T10:50:24.26Z</time>
      </trkpt>
      <trkpt lat="45.56135" lon="5.98205">
        <ele>300</ele>
        <time>2012-12-02T10:50:26.25Z</time>
      </trkpt>
      <trkpt lat="45.5614" lon="5.98203">
        <ele>300</ele>
        <time>2012-12-02T10:50:28.24Z</time>
      </trkpt>
      <trkpt lat="45.56144" lon="5.98201">
        <ele>300</ele>
        <time>2012-12-02T10:50:30.25Z</time>
      </trkpt>
      <trkpt lat="45.56148" lon="5.98199">
        <ele>300</ele>
        <time>2012-12-02T10:50:32.21Z</time>
      </trkpt>
      <trkpt lat="45.56153" lon="5.98197">
        <ele>300</ele>
        <time>2012-12-02T10:50:34.28Z</time>
      </trkpt>
      <trkpt lat="45.56158" lon="5.98194">
        <ele>300</ele>
        <time>2012-12-02T10:50:36.25Z</time>
      </trkpt>
      <trkpt lat="45.56163" lon="5.98192">
        <ele>300</ele>
        <time>2012-12-02T10:50:38.25Z</time>
      </trkpt>
      <trkpt lat="45.56166" lon="5.9819">
        <ele>300</ele>
        <time>2012-12-02T10:50:40.27Z</time>
      </trkpt>
      <trkpt lat="45.56171" lon="5.98189">
        <ele>300</ele>
        <time>2012-12-02T10:50:42.26Z</time>
      </trkpt>
      <trkpt lat="45.56177" lon="5.98187">
        <ele>300</ele>
        <time>2012-12-02T10:50:44.24Z</time>
      </trkpt>
      <trkpt lat="45.56181" lon="5.98183">
        <ele>300</ele>
        <time>2012-12-02T10:50:46.22Z</time>
      </trkpt>
      <trkpt lat="45.56186" lon="5.98182">
        <ele>300</ele>
        <time>2012-12-02T10:50:48.24Z</time>
      </trkpt>
      <trkpt lat="45.56192" lon="5.98181">
        <ele>300</ele>
        <time>2012-12-02T10:50:50.24Z</time>
      </trkpt>
      <trkpt lat="45.56197" lon="5.9818">
        <ele>300</ele>
        <time>2012-12-02T10:50:52.25Z</time>
      </trkpt>
      <trkpt lat="45.56201" lon="5.98177">
        <ele>300</ele>
        <time>2012-12-02T10:50:54.25Z</time>
      </trkpt>
      <trkpt lat="45.56206" lon="5.98175">
        <ele>300</ele>
        <time>2012-12-02T10:50:56.25Z</time>
      </trkpt>
      <trkpt lat="45.56211" lon="5.98174">
        <ele>301</ele>
        <time>2012-12-02T10:50:58.26Z</time>
      </trkpt>
      <trkpt lat="45.56216" lon="5.98174">
        <ele>301</ele>
        <time>2012-12-02T10:51:00.24Z</time>
      </trkpt>
      <trkpt lat="45.56221" lon="5.98172">
        <ele>301</ele>
        <time>2012-12-02T10:51:02.24Z</time>
      </trkpt>
      <trkpt lat="45.56227" lon="5.9817">
        <ele>301</ele>
        <time>2012-12-02T10:51:04.31Z</time>
      </trkpt>
      <trkpt lat="45.56232" lon="5.98166">
        <ele>301</ele>
        <time>2012-12-02T10:51:06.24Z</time>
      </trkpt>
      <trkpt lat="45.56238" lon="5.98162">
        <ele>301</ele>
        <time>2012-12-02T10:51:08.25Z</time>
      </trkpt>
      <trkpt lat="45.56242" lon="5.98162">
        <ele>301</ele>
        <time>2012-12-02T10:51:10.26Z</time>
      </trkpt>
      <trkpt lat="45.56247" lon="5.98161">
        <ele>301</ele>
        <time>2012-12-02T10:51:12.25Z</time>
      </trkpt>
      <trkpt lat="45.56252" lon="5.9816">
        <ele>301</ele>
        <time>2012-12-02T10:51:14.27Z</time>
      </trkpt>
      <trkpt lat="45.56256" lon="5.98158">
        <ele>301</ele>
        <time>2012-12-02T10:51:16.3Z</time>
      </trkpt>
      <trkpt lat="45.56262" lon="5.98159">
        <ele>301</ele>
        <time>2012-12-02T10:51:18.23Z</time>
      </trkpt>
      <trkpt lat="45.56266" lon="5.98159">
        <ele>301</ele>
        <time>2012-12-02T10:51:20.25Z</time>
      </trkpt>
      <trkpt lat="45.56272" lon="5.98158">
        <ele>301</ele>
        <time>2012-12-02T10:51:22.25Z</time>
      </trkpt>
      <trkpt lat="45.56277" lon="5.98164">
        <ele>301</ele>
        <time>2012-12-02T10:51:24.26Z</time>
      </trkpt>
      <trkpt lat="45.56282" lon="5.98168">
        <ele>301</ele>
        <time>2012-12-02T10:51:26.26Z</time>
      </trkpt>
      <trkpt lat="45.56287" lon="5.98167">
        <ele>301</ele>
        <time>2012-12-02T10:51:28.26Z</time>
      </trkpt>
      <trkpt lat="45.56292" lon="5.98165">
        <ele>301</ele>
        <time>2012-12-02T10:51:30.24Z</time>
      </trkpt>
      <trkpt lat="45.56298" lon="5.98164">
        <ele>301</ele>
        <time>2012-12-02T10:51:32.24Z</time>
      </trkpt>
      <trkpt lat="45.56303" lon="5.98159">
        <ele>301</ele>
        <time>2012-12-02T10:51:34.27Z</time>
      </trkpt>
      <trkpt lat="45.56307" lon="5.98154">
        <ele>301</ele>
        <time>2012-12-02T10:51:36.24Z</time>
      </trkpt>
      <trkpt lat="45.56312" lon="5.98151">
        <ele>300</ele>
        <time>2012-12-02T10:51:38.23Z</time>
      </trkpt>
      <trkpt lat="45.56316" lon="5.98147">
        <ele>300</ele>
        <time>2012-12-02T10:51:40.26Z</time>
      </trkpt>
      <trkpt lat="45.56321" lon="5.98146">
        <ele>300</ele>
        <time>2012-12-02T10:51:42.32Z</time>
      </trkpt>
      <trkpt lat="45.56325" lon="5.98146">
        <ele>300</ele>
        <time>2012-12-02T10:51:44.25Z</time>
      </trkpt>
      <trkpt lat="45.56329" lon="5.98149">
        <ele>300</ele>
        <time>2012-12-02T10:51:46.27Z</time>
      </trkpt>
      <trkpt lat="45.56334" lon="5.98151">
        <ele>300</ele>
        <time>2012-12-02T10:51:48.26Z</time>
      </trkpt>
      <trkpt lat="45.56339" lon="5.98148">
        <ele>300</ele>
        <time>2012-12-02T10:51:50.25Z</time>
      </trkpt>
      <trkpt lat="45.56343" lon="5.98146">
        <ele>300</ele>
        <time>2012-12-02T10:51:52.23Z</time>
      </trkpt>
      <trkpt lat="45.5635" lon="5.98144">
        <ele>300</ele>
        <time>2012-12-02T10:51:54.25Z</time>
      </trkpt>
      <trkpt lat="45.56356" lon="5.98143">
        <ele>300</ele>
        <time>2012-12-02T10:51:56.22Z</time>
      </trkpt>
      <trkpt lat="45.56362" lon="5.98146">
        <ele>300</ele>
        <time>2012-12-02T10:51:58.25Z</time>
      </trkpt>
      <trkpt lat="45.56367" lon="5.98147">
        <ele>300</ele>
        <time>2012-12-02T10:52:00.25Z</time>
      </trkpt>
      <trkpt lat="45.56371" lon="5.98143">
        <ele>300</ele>
        <time>2012-12-02T10:52:02.25Z</time>
      </trkpt>
      <trkpt lat="45.56375" lon="5.98142">
        <ele>300</ele>
        <time>2012-12-02T10:52:04.25Z</time>
      </trkpt>
      <trkpt lat="45.56382" lon="5.98143">
        <ele>300</ele>
        <time>2012-12-02T10:52:06.26Z</time>
      </trkpt>
      <trkpt lat="45.56389" lon="5.98149">
        <ele>300</ele>
        <time>2012-12-02T10:52:08.23Z</time>
      </trkpt>
      <trkpt lat="45.56394" lon="5.98147">
        <ele>300</ele>
        <time>2012-12-02T10:52:10.24Z</time>
      </trkpt>
      <trkpt lat="45.56399" lon="5.98148">
        <ele>300</ele>
        <time>2012-12-02T10:52:12.23Z</time>
      </trkpt>
      <trkpt lat="45.56403" lon="5.98145">
        <ele>300</ele>
        <time>2012-12-02T10:52:14.26Z</time>
      </trkpt>
      <trkpt lat="45.56407" lon="5.9814">
        <ele>300</ele>
        <time>2012-12-02T10:52:16.26Z</time>
      </trkpt>
      <trkpt lat="45.56411" lon="5.98135">
        <ele>300</ele>
        <time>2012-12-02T10:52:18.26Z</time>
      </trkpt>
      <trkpt lat="45.56415" lon="5.98131">
        <ele>300</ele>
        <time>2012-12-02T10:52:20.26Z</time>
      </trkpt>
      <trkpt lat="45.56418" lon="5.98126">
        <ele>300</ele>
        <time>2012-12-02T10:52:22.22Z</time>
      </trkpt>
      <trkpt lat="45.56421" lon="5.98119">
        <ele>300</ele>
        <time>2012-12-02T10:52:24.23Z</time>
      </trkpt>
      <trkpt lat="45.56425" lon="5.98115">
        <ele>300</ele>
        <time>2012-12-02T10:52:26.23Z</time>
      </trkpt>
      <trkpt lat="45.56428" lon="5.9811">
        <ele>300</ele>
        <time>2012-12-02T10:52:28.23Z</time>
      </trkpt>
      <trkpt lat="45.5643" lon="5.98105">
        <ele>300</ele>
        <time>2012-12-02T10:52:30.26Z</time>
      </trkpt>
      <trkpt lat="45.56431" lon="5.98097">
        <ele>300</ele>
        <time>2012-12-02T10:52:32.23Z</time>
      </trkpt>
      <trkpt lat="45.56434" lon="5.98087">
        <ele>300</ele>
        <time>2012-12-02T10:52:34.23Z</time>
      </trkpt>
      <trkpt lat="45.56438" lon="5.98081">
        <ele>300</ele>
        <time>2012-12-02T10:52:36.24Z</time>
      </trkpt>
      <trkpt lat="45.56442" lon="5.98076">
        <ele>300</ele>
        <time>2012-12-02T10:52:38.24Z</time>
      </trkpt>
      <trkpt lat="45.56446" lon="5.98071">
        <ele>300</ele>
        <time>2012-12-02T10:52:40.21Z</time>
      </trkpt>
      <trkpt lat="45.56451" lon="5.98067">
        <ele>300</ele>
        <time>2012-12-02T10:52:42.27Z</time>
      </trkpt>
      <trkpt lat="45.56455" lon="5.98063">
        <ele>300</ele>
        <time>2012-12-02T10:52:44.21Z</time>
      </trkpt>
      <trkpt lat="45.56459" lon="5.98058">
        <ele>300</ele>
        <time>2012-12-02T10:52:46.28Z</time>
      </trkpt>
      <trkpt lat="45.56463" lon="5.98052">
        <ele>300</ele>
        <time>2012-12-02T10:52:48.23Z</time>
      </trkpt>
      <trkpt lat="45.56465" lon="5.98048">
        <ele>300</ele>
        <time>2012-12-02T10:52:50.26Z</time>
      </trkpt>
      <trkpt lat="45.56469" lon="5.98044">
        <ele>300</ele>
        <time>2012-12-02T10:52:52.27Z</time>
      </trkpt>
      <trkpt lat="45.56472" lon="5.98041">
        <ele>300</ele>
        <time>2012-12-02T10:52:54.24Z</time>
      </trkpt>
      <trkpt lat="45.56476" lon="5.98037">
        <ele>300</ele>
        <time>2012-12-02T10:52:56.25Z</time>
      </trkpt>
      <trkpt lat="45.5648" lon="5.98032">
        <ele>300</ele>
        <time>2012-12-02T10:52:58.28Z</time>
      </trkpt>
      <trkpt lat="45.56484" lon="5.98028">
        <ele>300</ele>
        <time>2012-12-02T10:53:00.23Z</time>
      </trkpt>
      <trkpt lat="45.56488" lon="5.98025">
        <ele>300</ele>
        <time>2012-12-02T10:53:02.26Z</time>
      </trkpt>
      <trkpt lat="45.56492" lon="5.98021">
        <ele>300</ele>
        <time>2012-12-02T10:53:04.25Z</time>
      </trkpt>
      <trkpt lat="45.56496" lon="5.98017">
        <ele>300</ele>
        <time>2012-12-02T10:53:06.24Z</time>
      </trkpt>
      <trkpt lat="45.56501" lon="5.98016">
        <ele>300</ele>
        <time>2012-12-02T10:53:08.25Z</time>
      </trkpt>
      <trkpt lat="45.56507" lon="5.98016">
        <ele>300</ele>
        <time>2012-12-02T10:53:10.23Z</time>
      </trkpt>
      <trkpt lat="45.56512" lon="5.98014">
        <ele>300</ele>
        <time>2012-12-02T10:53:12.24Z</time>
      </trkpt>
      <trkpt lat="45.56516" lon="5.98011">
        <ele>300</ele>
        <time>2012-12-02T10:53:14.26Z</time>
      </trkpt>
      <trkpt lat="45.5652" lon="5.98007">
        <ele>300</ele>
        <time>2012-12-02T10:53:16.26Z</time>
      </trkpt>
      <trkpt lat="45.56525" lon="5.98006">
        <ele>300</ele>
        <time>2012-12-02T10:53:18.28Z</time>
      </trkpt>
      <trkpt lat="45.5653" lon="5.98008">
        <ele>300</ele>
        <time>2012-12-02T10:53:20.26Z</time>
      </trkpt>
      <trkpt lat="45.56536" lon="5.98014">
        <ele>300</ele>
        <time>2012-12-02T10:53:22.3Z</time>
      </trkpt>
      <trkpt lat="45.56541" lon="5.98024">
        <ele>300</ele>
        <time>2012-12-02T10:53:24.25Z</time>
      </trkpt>
      <trkpt lat="45.56544" lon="5.98037">
        <ele>300</ele>
        <time>2012-12-02T10:53:26.23Z</time>
      </trkpt>
      <trkpt lat="45.56544" lon="5.98047">
        <ele>300</ele>
        <time>2012-12-02T10:53:28.23Z</time>
      </trkpt>
      <trkpt lat="45.56544" lon="5.98057">
        <ele>300</ele>
        <time>2012-12-02T10:53:30.24Z</time>
      </trkpt>
      <trkpt lat="45.56545" lon="5.98065">
        <ele>300</ele>
        <time>2012-12-02T10:53:32.24Z</time>
      </trkpt>
      <trkpt lat="45.56546" lon="5.98073">
        <ele>300</ele>
        <time>2012-12-02T10:53:34.25Z</time>
      </trkpt>
      <trkpt lat="45.56547" lon="5.9808">
        <ele>300</ele>
        <time>2012-12-02T10:53:36.25Z</time>
      </trkpt>
      <trkpt lat="45.56549" lon="5.98087">
        <ele>300</ele>
        <time>2012-12-02T10:53:38.24Z</time>
      </trkpt>
      <trkpt lat="45.5655" lon="5.98095">
        <ele>300</ele>
        <time>2012-12-02T10:53:40.26Z</time>
      </trkpt>
      <trkpt lat="45.56554" lon="5.98102">
        <ele>300</ele>
        <time>2012-12-02T10:53:42.24Z</time>
      </trkpt>
      <trkpt lat="45.56556" lon="5.9811">
        <ele>300</ele>
        <time>2012-12-02T10:53:44.28Z</time>
      </trkpt>
      <trkpt lat="45.56558" lon="5.98116">
        <ele>300</ele>
        <time>2012-12-02T10:53:46.25Z</time>
      </trkpt>
      <trkpt lat="45.56561" lon="5.98119">
        <ele>300</ele>
        <time>2012-12-02T10:53:48.2Z</time>
      </trkpt>
      <trkpt lat="45.56564" lon="5.98121">
        <ele>300</ele>
        <time>2012-12-02T10:53:50.25Z</time>
      </trkpt>
      <trkpt lat="45.56567" lon="5.9812">
        <ele>300</ele>
        <time>2012-12-02T10:53:52.29Z</time>
      </trkpt>
      <trkpt lat="45.5657" lon="5.98117">
        <ele>300</ele>
        <time>2012-12-02T10:53:54.25Z</time>
      </trkpt>
      <trkpt lat="45.56573" lon="5.98112">
        <ele>300</ele>
        <time>2012-12-02T10:53:56.24Z</time>
      </trkpt>
      <trkpt lat="45.56577" lon="5.98108">
        <ele>300</ele>
        <time>2012-12-02T10:53:58.25Z</time>
      </trkpt>
      <trkpt lat="45.56581" lon="5.98105">
        <ele>300</ele>
        <time>2012-12-02T10:54:00.23Z</time>
      </trkpt>
      <trkpt lat="45.56585" lon="5.98105">
        <ele>300</ele>
        <time>2012-12-02T10:54:02.26Z</time>
      </trkpt>
      <trkpt lat="45.56591" lon="5.98106">
        <ele>300</ele>
        <time>2012-12-02T10:54:04.24Z</time>
      </trkpt>
      <trkpt lat="45.56597" lon="5.98107">
        <ele>300</ele>
        <time>2012-12-02T10:54:06.25Z</time>
      </trkpt>
      <trkpt lat="45.56603" lon="5.98107">
        <ele>300</ele>
        <time>2012-12-02T10:54:08.25Z</time>
      </trkpt>
      <trkpt lat="45.56607" lon="5.98109">
        <ele>300</ele>
        <time>2012-12-02T10:54:10.29Z</time>
      </trkpt>
      <trkpt lat="45.56611" lon="5.98115">
        <ele>300</ele>
        <time>2012-12-02T10:54:12.26Z</time>
      </trkpt>
      <trkpt lat="45.56612" lon="5.98125">
        <ele>300</ele>
        <time>2012-12-02T10:54:14.23Z</time>
      </trkpt>
      <trkpt lat="45.56614" lon="5.98135">
        <ele>300</ele>
        <time>2012-12-02T10:54:16.23Z</time>
      </trkpt>
      <trkpt lat="45.56617" lon="5.9814">
        <ele>300</ele>
        <time>2012-12-02T10:54:18.21Z</time>
      </trkpt>
      <trkpt lat="45.56619" lon="5.98142">
        <ele>300</ele>
        <time>2012-12-02T10:54:20.22Z</time>
      </trkpt>
      <trkpt lat="45.56623" lon="5.98142">
        <ele>300</ele>
        <time>2012-12-02T10:54:22.27Z</time>
      </trkpt>
      <trkpt lat="45.56626" lon="5.98137">
        <ele>300</ele>
        <time>2012-12-02T10:54:24.25Z</time>
      </trkpt>
      <trkpt lat="45.5663" lon="5.98134">
        <ele>300</ele>
        <time>2012-12-02T10:54:26.26Z</time>
      </trkpt>
      <trkpt lat="45.56634" lon="5.98131">
        <ele>300</ele>
        <time>2012-12-02T10:54:28.25Z</time>
      </trkpt>
      <trkpt lat="45.56638" lon="5.98131">
        <ele>300</ele>
        <time>2012-12-02T10:54:30.26Z</time>
      </trkpt>
      <trkpt lat="45.56642" lon="5.98132">
        <ele>300</ele>
        <time>2012-12-02T10:54:32.24Z</time>
      </trkpt>
      <trkpt lat="45.56647" lon="5.98134">
        <ele>300</ele>
        <time>2012-12-02T10:54:34.24Z</time>
      </trkpt>
      <trkpt lat="45.56652" lon="5.98135">
        <ele>300</ele>
        <time>2012-12-02T10:54:36.23Z</time>
      </trkpt>
      <trkpt lat="45.56657" lon="5.98135">
        <ele>300</ele>
        <time>2012-12-02T10:54:38.25Z</time>
      </trkpt>
      <trkpt lat="45.56663" lon="5.98135">
        <ele>300</ele>
        <time>2012-12-02T10:54:40.24Z</time>
      </trkpt>
      <trkpt lat="45.5667" lon="5.98139">
        <ele>300</ele>
        <time>2012-12-02T10:54:42.26Z</time>
      </trkpt>
      <trkpt lat="45.56675" lon="5.98141">
        <ele>300</ele>
        <time>2012-12-02T10:54:44.24Z</time>
      </trkpt>
      <trkpt lat="45.56678" lon="5.98143">
        <ele>300</ele>
        <time>2012-12-02T10:54:46.3Z</time>
      </trkpt>
      <trkpt lat="45.56682" lon="5.9814">
        <ele>300</ele>
        <time>2012-12-02T10:54:48.23Z</time>
      </trkpt>
      <trkpt lat="45.56686" lon="5.98135">
        <ele>300</ele>
        <time>2012-12-02T10:54:50.23Z</time>
      </trkpt>
      <trkpt lat="45.56689" lon="5.98131">
        <ele>300</ele>
        <time>2012-12-02T10:54:52.25Z</time>
      </trkpt>
      <trkpt lat="45.56694" lon="5.9813">
        <ele>300</ele>
        <time>2012-12-02T10:54:54.26Z</time>
      </trkpt>
      <trkpt lat="45.56699" lon="5.98131">
        <ele>300</ele>
        <time>2012-12-02T10:54:56.26Z</time>
      </trkpt>
      <trkpt lat="45.56705" lon="5.98132">
        <ele>300</ele>
        <time>2012-12-02T10:54:58.25Z</time>
      </trkpt>
      <trkpt lat="45.5671" lon="5.98133">
        <ele>300</ele>
        <time>2012-12-02T10:55:00.25Z</time>
      </trkpt>
      <trkpt lat="45.56716" lon="5.98136">
        <ele>300</ele>
        <time>2012-12-02T10:55:02.24Z</time>
      </trkpt>
      <trkpt lat="45.56722" lon="5.98141">
        <ele>300</ele>
        <time>2012-12-02T10:55:04.27Z</time>
      </trkpt>
      <trkpt lat="45.56727" lon="5.98147">
        <ele>300</ele>
        <time>2012-12-02T10:55:06.23Z</time>
      </trkpt>
      <trkpt lat="45.56732" lon="5.98146">
        <ele>300</ele>
        <time>2012-12-02T10:55:08.23Z</time>
      </trkpt>
      <trkpt lat="45.56736" lon="5.98145">
        <ele>300</ele>
        <time>2012-12-02T10:55:10.23Z</time>
      </trkpt>
      <trkpt lat="45.56741" lon="5.98144">
        <ele>300</ele>
        <time>2012-12-02T10:55:12.25Z</time>
      </trkpt>
      <trkpt lat="45.56745" lon="5.98143">
        <ele>300</ele>
        <time>2012-12-02T10:55:14.24Z</time>
      </trkpt>
      <trkpt lat="45.56749" lon="5.98145">
        <ele>300</ele>
        <time>2012-12-02T10:55:16.26Z</time>
      </trkpt>
      <trkpt lat="45.56751" lon="5.98149">
        <ele>300</ele>
        <time>2012-12-02T10:55:18.22Z</time>
      </trkpt>
      <trkpt lat="45.56755" lon="5.98158">
        <ele>300</ele>
        <time>2012-12-02T10:55:20.25Z</time>
      </trkpt>
      <trkpt lat="45.5676" lon="5.98163">
        <ele>300</ele>
        <time>2012-12-02T10:55:22.22Z</time>
      </trkpt>
      <trkpt lat="45.56764" lon="5.98168">
        <ele>300</ele>
        <time>2012-12-02T10:55:24.24Z</time>
      </trkpt>
      <trkpt lat="45.56768" lon="5.98174">
        <ele>300</ele>
        <time>2012-12-02T10:55:26.24Z</time>
      </trkpt>
      <trkpt lat="45.56773" lon="5.98181">
        <ele>300</ele>
        <time>2012-12-02T10:55:28.23Z</time>
      </trkpt>
      <trkpt lat="45.56777" lon="5.98186">
        <ele>300</ele>
        <time>2012-12-02T10:55:30.22Z</time>
      </trkpt>
      <trkpt lat="45.56779" lon="5.98191">
        <ele>300</ele>
        <time>2012-12-02T10:55:32.24Z</time>
      </trkpt>
      <trkpt lat="45.56781" lon="5.98198">
        <ele>301</ele>
        <time>2012-12-02T10:55:34.2Z</time>
      </trkpt>
      <trkpt lat="45.56785" lon="5.98205">
        <ele>301</ele>
        <time>2012-12-02T10:55:36.24Z</time>
      </trkpt>
      <trkpt lat="45.56786" lon="5.98213">
        <ele>301</ele>
        <time>2012-12-02T10:55:38.24Z</time>
      </trkpt>
      <trkpt lat="45.56787" lon="5.98221">
        <ele>301</ele>
        <time>2012-12-02T10:55:40.23Z</time>
      </trkpt>
      <trkpt lat="45.56787" lon="5.98226">
        <ele>302</ele>
        <time>2012-12-02T10:55:42.23Z</time>
      </trkpt>
      <trkpt lat="45.56791" lon="5.9823">
        <ele>302</ele>
        <time>2012-12-02T10:55:44.26Z</time>
      </trkpt>
      <trkpt lat="45.56796" lon="5.98233">
        <ele>302</ele>
        <time>2012-12-02T10:55:46.26Z</time>
      </trkpt>
      <trkpt lat="45.56799" lon="5.98235">
        <ele>303</ele>
        <time>2012-12-02T10:55:48.27Z</time>
      </trkpt>
      <trkpt lat="45.56801" lon="5.98238">
        <ele>303</ele>
        <time>2012-12-02T10:55:50.25Z</time>
      </trkpt>
      <trkpt lat="45.56805" lon="5.98239">
        <ele>303</ele>
        <time>2012-12-02T10:55:52.24Z</time>
      </trkpt>
      <trkpt lat="45.56809" lon="5.98239">
        <ele>303</ele>
        <time>2012-12-02T10:55:54.24Z</time>
      </trkpt>
      <trkpt lat="45.56813" lon="5.9824">
        <ele>304</ele>
        <time>2012-12-02T10:55:56.24Z</time>
      </trkpt>
      <trkpt lat="45.56818" lon="5.98241">
        <ele>304</ele>
        <time>2012-12-02T10:55:58.23Z</time>
      </trkpt>
      <trkpt lat="45.56824" lon="5.98241">
        <ele>304</ele>
        <time>2012-12-02T10:56:00.24Z</time>
      </trkpt>
      <trkpt lat="45.5683" lon="5.98241">
        <ele>304</ele>
        <time>2012-12-02T10:56:02.24Z</time>
      </trkpt>
      <trkpt lat="45.56835" lon="5.9824">
        <ele>304</ele>
        <time>2012-12-02T10:56:04.29Z</time>
      </trkpt>
      <trkpt lat="45.56841" lon="5.9824">
        <ele>304</ele>
        <time>2012-12-02T10:56:06.23Z</time>
      </trkpt>
      <trkpt lat="45.56845" lon="5.98238">
        <ele>305</ele>
        <time>2012-12-02T10:56:08.23Z</time>
      </trkpt>
      <trkpt lat="45.56849" lon="5.98238">
        <ele>305</ele>
        <time>2012-12-02T10:56:10.24Z</time>
      </trkpt>
      <trkpt lat="45.56853" lon="5.98238">
        <ele>305</ele>
        <time>2012-12-02T10:56:12.24Z</time>
      </trkpt>
      <trkpt lat="45.56858" lon="5.98237">
        <ele>305</ele>
        <time>2012-12-02T10:56:14.26Z</time>
      </trkpt>
      <trkpt lat="45.56861" lon="5.98235">
        <ele>305</ele>
        <time>2012-12-02T10:56:16.25Z</time>
      </trkpt>
      <trkpt lat="45.56865" lon="5.98233">
        <ele>305</ele>
        <time>2012-12-02T10:56:18.25Z</time>
      </trkpt>
      <trkpt lat="45.5687" lon="5.9823">
        <ele>306</ele>
        <time>2012-12-02T10:56:20.25Z</time>
      </trkpt>
      <trkpt lat="45.56876" lon="5.98226">
        <ele>306</ele>
        <time>2012-12-02T10:56:22.28Z</time>
      </trkpt>
      <trkpt lat="45.56881" lon="5.98228">
        <ele>307</ele>
        <time>2012-12-02T10:56:24.25Z</time>
      </trkpt>
      <trkpt lat="45.56887" lon="5.98229">
        <ele>307</ele>
        <time>2012-12-02T10:56:26.24Z</time>
      </trkpt>
      <trkpt lat="45.56892" lon="5.98231">
        <ele>308</ele>
        <time>2012-12-02T10:56:28.21Z</time>
      </trkpt>
      <trkpt lat="45.56896" lon="5.98231">
        <ele>308</ele>
        <time>2012-12-02T10:56:30.24Z</time>
      </trkpt>
      <trkpt lat="45.56899" lon="5.9823">
        <ele>309</ele>
        <time>2012-12-02T10:56:32.23Z</time>
      </trkpt>
      <trkpt lat="45.56905" lon="5.98228">
        <ele>309</ele>
        <time>2012-12-02T10:56:34.22Z</time>
      </trkpt>
      <trkpt lat="45.56913" lon="5.98231">
        <ele>310</ele>
        <time>2012-12-02T10:56:36.26Z</time>
      </trkpt>
      <trkpt lat="45.56917" lon="5.98227">
        <ele>310</ele>
        <time>2012-12-02T10:56:38.22Z</time>
      </trkpt>
      <trkpt lat="45.56919" lon="5.98222">
        <ele>310</ele>
        <time>2012-12-02T10:56:40.26Z</time>
      </trkpt>
      <trkpt lat="45.56922" lon="5.98219">
        <ele>310</ele>
        <time>2012-12-02T10:56:42.26Z</time>
      </trkpt>
      <trkpt lat="45.56926" lon="5.98217">
        <ele>310</ele>
        <time>2012-12-02T10:56:44.23Z</time>
      </trkpt>
      <trkpt lat="45.5693" lon="5.98215">
        <ele>310</ele>
        <time>2012-12-02T10:56:46.22Z</time>
      </trkpt>
      <trkpt lat="45.56933" lon="5.98217">
        <ele>311</ele>
        <time>2012-12-02T10:56:48.25Z</time>
      </trkpt>
      <trkpt lat="45.56937" lon="5.98223">
        <ele>311</ele>
        <time>2012-12-02T10:56:50.25Z</time>
      </trkpt>
      <trkpt lat="45.56943" lon="5.9823">
        <ele>312</ele>
        <time>2012-12-02T10:56:52.26Z</time>
      </trkpt>
      <trkpt lat="45.56946" lon="5.98236">
        <ele>313</ele>
        <time>2012-12-02T10:56:54.25Z</time>
      </trkpt>
      <trkpt lat="45.56949" lon="5.98242">
        <ele>314</ele>
        <time>2012-12-02T10:56:56.25Z</time>
      </trkpt>
      <trkpt lat="45.56951" lon="5.98248">
        <ele>315</ele>
        <time>2012-12-02T10:56:58.26Z</time>
      </trkpt>
      <trkpt lat="45.56954" lon="5.98254">
        <ele>315</ele>
        <time>2012-12-02T10:57:00.23Z</time>
      </trkpt>
      <trkpt lat="45.56953" lon="5.98263">
        <ele>316</ele>
        <time>2012-12-02T10:57:02.25Z</time>
      </trkpt>
      <trkpt lat="45.56951" lon="5.98271">
        <ele>317</ele>
        <time>2012-12-02T10:57:04.25Z</time>
      </trkpt>
      <trkpt lat="45.56951" lon="5.98277">
        <ele>318</ele>
        <time>2012-12-02T10:57:06.25Z</time>
      </trkpt>
      <trkpt lat="45.56951" lon="5.98283">
        <ele>319</ele>
        <time>2012-12-02T10:57:08.25Z</time>
      </trkpt>
      <trkpt lat="45.56951" lon="5.98289">
        <ele>320</ele>
        <time>2012-12-02T10:57:10.22Z</time>
      </trkpt>
      <trkpt lat="45.56954" lon="5.98295">
        <ele>321</ele>
        <time>2012-12-02T10:57:12.23Z</time>
      </trkpt>
      <trkpt lat="45.56955" lon="5.98301">
        <ele>323</ele>
        <time>2012-12-02T10:57:14.26Z</time>
      </trkpt>
      <trkpt lat="45.56957" lon="5.98306">
        <ele>324</ele>
        <time>2012-12-02T10:57:16.22Z</time>
      </trkpt>
      <trkpt lat="45.56957" lon="5.98311">
        <ele>325</ele>
        <time>2012-12-02T10:57:18.23Z</time>
      </trkpt>
      <trkpt lat="45.56957" lon="5.98315">
        <ele>325</ele>
        <time>2012-12-02T10:57:20.26Z</time>
      </trkpt>
      <trkpt lat="45.56955" lon="5.98319">
        <ele>326</ele>
        <time>2012-12-02T10:57:22.29Z</time>
      </trkpt>
      <trkpt lat="45.56954" lon="5.98322">
        <ele>327</ele>
        <time>2012-12-02T10:57:24.25Z</time>
      </trkpt>
      <trkpt lat="45.56954" lon="5.98326">
        <ele>328</ele>
        <time>2012-12-02T10:57:26.25Z</time>
      </trkpt>
      <trkpt lat="45.56956" lon="5.9833">
        <ele>328</ele>
        <time>2012-12-02T10:57:28.24Z</time>
      </trkpt>
      <trkpt lat="45.56956" lon="5.98332">
        <ele>329</ele>
        <time>2012-12-02T10:57:30.28Z</time>
      </trkpt>
      <trkpt lat="45.56956" lon="5.98335">
        <ele>329</ele>
        <time>2012-12-02T10:57:32.23Z</time>
      </trkpt>
      <trkpt lat="45.56957" lon="5.98336">
        <ele>330</ele>
        <time>2012-12-02T10:57:35.23Z</time>
      </trkpt>
      <trkpt lat="45.56961" lon="5.98336">
        <ele>330</ele>
        <time>2012-12-02T10:57:37.21Z</time>
      </trkpt>
      <trkpt lat="45.56964" lon="5.98336">
        <ele>329</ele>
        <time>2012-12-02T10:57:39.26Z</time>
      </trkpt>
      <trkpt lat="45.56967" lon="5.98334">
        <ele>329</ele>
        <time>2012-12-02T10:57:41.24Z</time>
      </trkpt>
      <trkpt lat="45.56971" lon="5.98333">
        <ele>329</ele>
        <time>2012-12-02T10:57:43.25Z</time>
      </trkpt>
      <trkpt lat="45.56974" lon="5.98331">
        <ele>329</ele>
        <time>2012-12-02T10:57:45.26Z</time>
      </trkpt>
      <trkpt lat="45.56976" lon="5.98326">
        <ele>329</ele>
        <time>2012-12-02T10:57:47.26Z</time>
      </trkpt>
      <trkpt lat="45.56979" lon="5.9832">
        <ele>328</ele>
        <time>2012-12-02T10:57:49.24Z</time>
      </trkpt>
      <trkpt lat="45.56983" lon="5.98314">
        <ele>327</ele>
        <time>2012-12-02T10:57:51.24Z</time>
      </trkpt>
      <trkpt lat="45.56986" lon="5.98308">
        <ele>326</ele>
        <time>2012-12-02T10:57:53.24Z</time>
      </trkpt>
      <trkpt lat="45.56989" lon="5.98301">
        <ele>325</ele>
        <time>2012-12-02T10:57:55.23Z</time>
      </trkpt>
      <trkpt lat="45.56993" lon="5.98295">
        <ele>325</ele>
        <time>2012-12-02T10:57:57.24Z</time>
      </trkpt>
      <trkpt lat="45.56998" lon="5.98291">
        <ele>324</ele>
        <time>2012-12-02T10:57:59.27Z</time>
      </trkpt>
      <trkpt lat="45.57003" lon="5.98288">
        <ele>323</ele>
        <time>2012-12-02T10:58:01.26Z</time>
      </trkpt>
      <trkpt lat="45.57006" lon="5.98284">
        <ele>323</ele>
        <time>2012-12-02T10:58:03.27Z</time>
      </trkpt>
      <trkpt lat="45.57013" lon="5.9828">
        <ele>323</ele>
        <time>2012-12-02T10:58:05.24Z</time>
      </trkpt>
      <trkpt lat="45.57019" lon="5.98282">
        <ele>323</ele>
        <time>2012-12-02T10:58:07.26Z</time>
      </trkpt>
      <trkpt lat="45.57023" lon="5.98282">
        <ele>323</ele>
        <time>2012-12-02T10:58:09.24Z</time>
      </trkpt>
      <trkpt lat="45.57027" lon="5.9828">
        <ele>323</ele>
        <time>2012-12-02T10:58:11.23Z</time>
      </trkpt>
      <trkpt lat="45.57031" lon="5.9828">
        <ele>323</ele>
        <time>2012-12-02T10:58:13.24Z</time>
      </trkpt>
      <trkpt lat="45.57036" lon="5.98279">
        <ele>323</ele>
        <time>2012-12-02T10:58:15.25Z</time>
      </trkpt>
      <trkpt lat="45.57041" lon="5.9828">
        <ele>324</ele>
        <time>2012-12-02T10:58:17.26Z</time>
      </trkpt>
      <trkpt lat="45.57044" lon="5.98287">
        <ele>324</ele>
        <time>2012-12-02T10:58:19.26Z</time>
      </trkpt>
      <trkpt lat="45.57048" lon="5.98286">
        <ele>324</ele>
        <time>2012-12-02T10:58:21.24Z</time>
      </trkpt>
      <trkpt lat="45.57051" lon="5.98279">
        <ele>323</ele>
        <time>2012-12-02T10:58:23.24Z</time>
      </trkpt>
      <trkpt lat="45.57055" lon="5.98271">
        <ele>322</ele>
        <time>2012-12-02T10:58:25.23Z</time>
      </trkpt>
      <trkpt lat="45.57059" lon="5.98264">
        <ele>322</ele>
        <time>2012-12-02T10:58:27.23Z</time>
      </trkpt>
      <trkpt lat="45.57062" lon="5.98257">
        <ele>321</ele>
        <time>2012-12-02T10:58:29.22Z</time>
      </trkpt>
      <trkpt lat="45.57066" lon="5.98253">
        <ele>321</ele>
        <time>2012-12-02T10:58:31.21Z</time>
      </trkpt>
      <trkpt lat="45.57067" lon="5.98247">
        <ele>321</ele>
        <time>2012-12-02T10:58:33.24Z</time>
      </trkpt>
      <trkpt lat="45.57068" lon="5.9824">
        <ele>320</ele>
        <time>2012-12-02T10:58:35.24Z</time>
      </trkpt>
      <trkpt lat="45.57069" lon="5.98233">
        <ele>320</ele>
        <time>2012-12-02T10:58:37.23Z</time>
      </trkpt>
      <trkpt lat="45.57072" lon="5.98227">
        <ele>320</ele>
        <time>2012-12-02T10:58:39.25Z</time>
      </trkpt>
      <trkpt lat="45.57075" lon="5.9822">
        <ele>319</ele>
        <time>2012-12-02T10:58:41.23Z</time>
      </trkpt>
      <trkpt lat="45.57078" lon="5.98219">
        <ele>319</ele>
        <time>2012-12-02T10:58:43.23Z</time>
      </trkpt>
      <trkpt lat="45.57078" lon="5.9822">
        <ele>319</ele>
        <time>2012-12-02T10:58:45.23Z</time>
      </trkpt>
      <trkpt lat="45.57078" lon="5.9822">
        <ele>319</ele>
        <time>2012-12-02T10:58:47.23Z</time>
      </trkpt>
      <trkpt lat="45.57079" lon="5.98222">
        <ele>319</ele>
        <time>2012-12-02T10:58:49.22Z</time>
      </trkpt>
      <trkpt lat="45.5708" lon="5.98223">
        <ele>319</ele>
        <time>2012-12-02T10:58:51.26Z</time>
      </trkpt>
      <trkpt lat="45.5708" lon="5.98223">
        <ele>319</ele>
        <time>2012-12-02T10:58:53.24Z</time>
      </trkpt>
      <trkpt lat="45.5708" lon="5.98223">
        <ele>319</ele>
        <time>2012-12-02T10:58:55.24Z</time>
      </trkpt>
      <trkpt lat="45.5708" lon="5.98223">
        <ele>319</ele>
        <time>2012-12-02T10:58:57.23Z</time>
      </trkpt>
      <trkpt lat="45.5708" lon="5.98223">
        <ele>319</ele>
        <time>2012-12-02T10:58:59.26Z</time>
      </trkpt>
      <trkpt lat="45.57098" lon="5.98245">
        <ele>322</ele>
        <time>2012-12-02T10:59:01.24Z</time>
      </trkpt>
      <trkpt lat="45.57101" lon="5.98245">
        <ele>322</ele>
        <time>2012-12-02T10:59:03.26Z</time>
      </trkpt>
      <trkpt lat="45.57105" lon="5.98245">
        <ele>323</ele>
        <time>2012-12-02T10:59:05.22Z</time>
      </trkpt>
      <trkpt lat="45.57108" lon="5.98247">
        <ele>323</ele>
        <time>2012-12-02T10:59:07.26Z</time>
      </trkpt>
      <trkpt lat="45.57112" lon="5.98249">
        <ele>323</ele>
        <time>2012-12-02T10:59:09.25Z</time>
      </trkpt>
      <trkpt lat="45.57114" lon="5.98252">
        <ele>324</ele>
        <time>2012-12-02T10:59:11.25Z</time>
      </trkpt>
      <trkpt lat="45.57117" lon="5.98255">
        <ele>324</ele>
        <time>2012-12-02T10:59:13.26Z</time>
      </trkpt>
      <trkpt lat="45.57119" lon="5.98257">
        <ele>324</ele>
        <time>2012-12-02T10:59:15.25Z</time>
      </trkpt>
      <trkpt lat="45.57121" lon="5.98257">
        <ele>325</ele>
        <time>2012-12-02T10:59:17.25Z</time>
      </trkpt>
      <trkpt lat="45.57124" lon="5.98258">
        <ele>325</ele>
        <time>2012-12-02T10:59:19.25Z</time>
      </trkpt>
      <trkpt lat="45.57127" lon="5.98261">
        <ele>325</ele>
        <time>2012-12-02T10:59:21.25Z</time>
      </trkpt>
      <trkpt lat="45.57129" lon="5.98263">
        <ele>326</ele>
        <time>2012-12-02T10:59:23.27Z</time>
      </trkpt>
      <trkpt lat="45.57131" lon="5.98265">
        <ele>326</ele>
        <time>2012-12-02T10:59:25.29Z</time>
      </trkpt>
      <trkpt lat="45.57133" lon="5.98269">
        <ele>326</ele>
        <time>2012-12-02T10:59:27.26Z</time>
      </trkpt>
      <trkpt lat="45.57135" lon="5.98272">
        <ele>327</ele>
        <time>2012-12-02T10:59:29.24Z</time>
      </trkpt>
      <trkpt lat="45.57138" lon="5.98273">
        <ele>327</ele>
        <time>2012-12-02T10:59:31.27Z</time>
      </trkpt>
      <trkpt lat="45.5714" lon="5.98273">
        <ele>328</ele>
        <time>2012-12-02T10:59:33.25Z</time>
      </trkpt>
      <trkpt lat="45.57142" lon="5.98274">
        <ele>328</ele>
        <time>2012-12-02T10:59:35.24Z</time>
      </trkpt>
      <trkpt lat="45.57145" lon="5.98276">
        <ele>328</ele>
        <time>2012-12-02T10:59:37.26Z</time>
      </trkpt>
      <trkpt lat="45.57147" lon="5.98278">
        <ele>329</ele>
        <time>2012-12-02T10:59:39.28Z</time>
      </trkpt>
      <trkpt lat="45.57149" lon="5.98279">
        <ele>329</ele>
        <time>2012-12-02T10:59:41.26Z</time>
      </trkpt>
      <trkpt lat="45.57152" lon="5.98279">
        <ele>329</ele>
        <time>2012-12-02T10:59:43.26Z</time>
      </trkpt>
      <trkpt lat="45.57153" lon="5.98277">
        <ele>328</ele>
        <time>2012-12-02T10:59:45.25Z</time>
      </trkpt>
      <trkpt lat="45.57155" lon="5.98275">
        <ele>328</ele>
        <time>2012-12-02T10:59:47.24Z</time>
      </trkpt>
      <trkpt lat="45.57155" lon="5.98274">
        <ele>328</ele>
        <time>2012-12-02T10:59:49.27Z</time>
      </trkpt>
      <trkpt lat="45.57154" lon="5.98273">
        <ele>328</ele>
        <time>2012-12-02T10:59:51.28Z</time>
      </trkpt>
      <trkpt lat="45.57153" lon="5.98268">
        <ele>327</ele>
        <time>2012-12-02T10:59:53.27Z</time>
      </trkpt>
      <trkpt lat="45.57152" lon="5.98261">
        <ele>327</ele>
        <time>2012-12-02T10:59:55.25Z</time>
      </trkpt>
      <trkpt lat="45.57152" lon="5.98259">
        <ele>326</ele>
        <time>2012-12-02T10:59:57.26Z</time>
      </trkpt>
      <trkpt lat="45.57151" lon="5.98252">
        <ele>326</ele>
        <time>2012-12-02T10:59:59.26Z</time>
      </trkpt>
      <trkpt lat="45.57152" lon="5.98244">
        <ele>325</ele>
        <time>2012-12-02T11:00:01.25Z</time>
      </trkpt>
      <trkpt lat="45.57153" lon="5.98237">
        <ele>324</ele>
        <time>2012-12-02T11:00:03.23Z</time>
      </trkpt>
      <trkpt lat="45.57157" lon="5.98231">
        <ele>324</ele>
        <time>2012-12-02T11:00:05.25Z</time>
      </trkpt>
      <trkpt lat="45.57161" lon="5.98227">
        <ele>324</ele>
        <time>2012-12-02T11:00:07.26Z</time>
      </trkpt>
      <trkpt lat="45.57167" lon="5.98226">
        <ele>324</ele>
        <time>2012-12-02T11:00:09.27Z</time>
      </trkpt>
      <trkpt lat="45.5717" lon="5.98224">
        <ele>324</ele>
        <time>2012-12-02T11:00:11.29Z</time>
      </trkpt>
      <trkpt lat="45.57175" lon="5.98223">
        <ele>324</ele>
        <time>2012-12-02T11:00:13.26Z</time>
      </trkpt>
      <trkpt lat="45.5718" lon="5.98222">
        <ele>324</ele>
        <time>2012-12-02T11:00:15.24Z</time>
      </trkpt>
      <trkpt lat="45.57186" lon="5.98222">
        <ele>324</ele>
        <time>2012-12-02T11:00:17.28Z</time>
      </trkpt>
      <trkpt lat="45.57191" lon="5.98216">
        <ele>324</ele>
        <time>2012-12-02T11:00:19.25Z</time>
      </trkpt>
      <trkpt lat="45.57195" lon="5.98211">
        <ele>323</ele>
        <time>2012-12-02T11:00:21.24Z</time>
      </trkpt>
      <trkpt lat="45.57198" lon="5.98207">
        <ele>323</ele>
        <time>2012-12-02T11:00:23.25Z</time>
      </trkpt>
      <trkpt lat="45.57203" lon="5.98206">
        <ele>323</ele>
        <time>2012-12-02T11:00:25.25Z</time>
      </trkpt>
      <trkpt lat="45.57208" lon="5.98205">
        <ele>323</ele>
        <time>2012-12-02T11:00:27.27Z</time>
      </trkpt>
      <trkpt lat="45.57212" lon="5.982">
        <ele>323</ele>
        <time>2012-12-02T11:00:29.23Z</time>
      </trkpt>
      <trkpt lat="45.57215" lon="5.98197">
        <ele>323</ele>
        <time>2012-12-02T11:00:31.24Z</time>
      </trkpt>
      <trkpt lat="45.5722" lon="5.98196">
        <ele>323</ele>
        <time>2012-12-02T11:00:33.25Z</time>
      </trkpt>
      <trkpt lat="45.57225" lon="5.98196">
        <ele>323</ele>
        <time>2012-12-02T11:00:35.25Z</time>
      </trkpt>
      <trkpt lat="45.57229" lon="5.98193">
        <ele>323</ele>
        <time>2012-12-02T11:00:37.26Z</time>
      </trkpt>
      <trkpt lat="45.57234" lon="5.98191">
        <ele>324</ele>
        <time>2012-12-02T11:00:39.26Z</time>
      </trkpt>
      <trkpt lat="45.57238" lon="5.98191">
        <ele>324</ele>
        <time>2012-12-02T11:00:41.26Z</time>
      </trkpt>
      <trkpt lat="45.57242" lon="5.9819">
        <ele>324</ele>
        <time>2012-12-02T11:00:43.27Z</time>
      </trkpt>
      <trkpt lat="45.57246" lon="5.98183">
        <ele>323</ele>
        <time>2012-12-02T11:00:45.29Z</time>
      </trkpt>
      <trkpt lat="45.5725" lon="5.98178">
        <ele>323</ele>
        <time>2012-12-02T11:00:47.23Z</time>
      </trkpt>
      <trkpt lat="45.57253" lon="5.98172">
        <ele>323</ele>
        <time>2012-12-02T11:00:49.24Z</time>
      </trkpt>
      <trkpt lat="45.57256" lon="5.98166">
        <ele>323</ele>
        <time>2012-12-02T11:00:51.24Z</time>
      </trkpt>
      <trkpt lat="45.57259" lon="5.98159">
        <ele>322</ele>
        <time>2012-12-02T11:00:53.24Z</time>
      </trkpt>
      <trkpt lat="45.57263" lon="5.98154">
        <ele>322</ele>
        <time>2012-12-02T11:00:55.27Z</time>
      </trkpt>
      <trkpt lat="45.57265" lon="5.98148">
        <ele>322</ele>
        <time>2012-12-02T11:00:57.28Z</time>
      </trkpt>
      <trkpt lat="45.57269" lon="5.98144">
        <ele>321</ele>
        <time>2012-12-02T11:00:59.26Z</time>
      </trkpt>
      <trkpt lat="45.57272" lon="5.9814">
        <ele>322</ele>
        <time>2012-12-02T11:01:01.25Z</time>
      </trkpt>
      <trkpt lat="45.57276" lon="5.98139">
        <ele>322</ele>
        <time>2012-12-02T11:01:03.24Z</time>
      </trkpt>
      <trkpt lat="45.5728" lon="5.98139">
        <ele>323</ele>
        <time>2012-12-02T11:01:05.24Z</time>
      </trkpt>
      <trkpt lat="45.57285" lon="5.98139">
        <ele>323</ele>
        <time>2012-12-02T11:01:07.25Z</time>
      </trkpt>
      <trkpt lat="45.57287" lon="5.98133">
        <ele>323</ele>
        <time>2012-12-02T11:01:09.26Z</time>
      </trkpt>
      <trkpt lat="45.57291" lon="5.9813">
        <ele>323</ele>
        <time>2012-12-02T11:01:11.26Z</time>
      </trkpt>
      <trkpt lat="45.57296" lon="5.98128">
        <ele>324</ele>
        <time>2012-12-02T11:01:13.26Z</time>
      </trkpt>
      <trkpt lat="45.57302" lon="5.98125">
        <ele>324</ele>
        <time>2012-12-02T11:01:15.27Z</time>
      </trkpt>
      <trkpt lat="45.57304" lon="5.9812">
        <ele>324</ele>
        <time>2012-12-02T11:01:17.25Z</time>
      </trkpt>
      <trkpt lat="45.57306" lon="5.98114">
        <ele>323</ele>
        <time>2012-12-02T11:01:19.25Z</time>
      </trkpt>
      <trkpt lat="45.57305" lon="5.98109">
        <ele>323</ele>
        <time>2012-12-02T11:01:21.23Z</time>
      </trkpt>
      <trkpt lat="45.57302" lon="5.98102">
        <ele>323</ele>
        <time>2012-12-02T11:01:23.24Z</time>
      </trkpt>
      <trkpt lat="45.57297" lon="5.98097">
        <ele>322</ele>
        <time>2012-12-02T11:01:25.23Z</time>
      </trkpt>
      <trkpt lat="45.57294" lon="5.98092">
        <ele>321</ele>
        <time>2012-12-02T11:01:27.28Z</time>
      </trkpt>
      <trkpt lat="45.57291" lon="5.98087">
        <ele>321</ele>
        <time>2012-12-02T11:01:29.27Z</time>
      </trkpt>
      <trkpt lat="45.57289" lon="5.98082">
        <ele>320</ele>
        <time>2012-12-02T11:01:31.27Z</time>
      </trkpt>
      <trkpt lat="45.57285" lon="5.98077">
        <ele>320</ele>
        <time>2012-12-02T11:01:33.27Z</time>
      </trkpt>
      <trkpt lat="45.57282" lon="5.9807">
        <ele>320</ele>
        <time>2012-12-02T11:01:35.26Z</time>
      </trkpt>
      <trkpt lat="45.57278" lon="5.98064">
        <ele>319</ele>
        <time>2012-12-02T11:01:37.23Z</time>
      </trkpt>
      <trkpt lat="45.57275" lon="5.98059">
        <ele>319</ele>
        <time>2012-12-02T11:01:39.26Z</time>
      </trkpt>
      <trkpt lat="45.57271" lon="5.98052">
        <ele>318</ele>
        <time>2012-12-02T11:01:41.26Z</time>
      </trkpt>
      <trkpt lat="45.57269" lon="5.98043">
        <ele>318</ele>
        <time>2012-12-02T11:01:43.23Z</time>
      </trkpt>
      <trkpt lat="45.57267" lon="5.98034">
        <ele>318</ele>
        <time>2012-12-02T11:01:45.29Z</time>
      </trkpt>
      <trkpt lat="45.57266" lon="5.98025">
        <ele>317</ele>
        <time>2012-12-02T11:01:47.28Z</time>
      </trkpt>
      <trkpt lat="45.57265" lon="5.98017">
        <ele>317</ele>
        <time>2012-12-02T11:01:49.26Z</time>
      </trkpt>
      <trkpt lat="45.57264" lon="5.98008">
        <ele>317</ele>
        <time>2012-12-02T11:01:51.23Z</time>
      </trkpt>
      <trkpt lat="45.57263" lon="5.97999">
        <ele>317</ele>
        <time>2012-12-02T11:01:53.24Z</time>
      </trkpt>
      <trkpt lat="45.5726" lon="5.9799">
        <ele>317</ele>
        <time>2012-12-02T11:01:55.24Z</time>
      </trkpt>
      <trkpt lat="45.57257" lon="5.97984">
        <ele>317</ele>
        <time>2012-12-02T11:01:57.22Z</time>
      </trkpt>
      <trkpt lat="45.57257" lon="5.97977">
        <ele>316</ele>
        <time>2012-12-02T11:01:59.23Z</time>
      </trkpt>
      <trkpt lat="45.57256" lon="5.97968">
        <ele>316</ele>
        <time>2012-12-02T11:02:01.25Z</time>
      </trkpt>
      <trkpt lat="45.57256" lon="5.97957">
        <ele>316</ele>
        <time>2012-12-02T11:02:03.26Z</time>
      </trkpt>
      <trkpt lat="45.57256" lon="5.97951">
        <ele>316</ele>
        <time>2012-12-02T11:02:05.25Z</time>
      </trkpt>
      <trkpt lat="45.57256" lon="5.97944">
        <ele>316</ele>
        <time>2012-12-02T11:02:07.23Z</time>
      </trkpt>
      <trkpt lat="45.57254" lon="5.97938">
        <ele>316</ele>
        <time>2012-12-02T11:02:09.23Z</time>
      </trkpt>
      <trkpt lat="45.57254" lon="5.9793">
        <ele>316</ele>
        <time>2012-12-02T11:02:11.24Z</time>
      </trkpt>
      <trkpt lat="45.57256" lon="5.9792">
        <ele>316</ele>
        <time>2012-12-02T11:02:13.26Z</time>
      </trkpt>
      <trkpt lat="45.57255" lon="5.9791">
        <ele>316</ele>
        <time>2012-12-02T11:02:15.25Z</time>
      </trkpt>
      <trkpt lat="45.57255" lon="5.979">
        <ele>316</ele>
        <time>2012-12-02T11:02:17.26Z</time>
      </trkpt>
      <trkpt lat="45.57254" lon="5.97891">
        <ele>316</ele>
        <time>2012-12-02T11:02:19.26Z</time>
      </trkpt>
      <trkpt lat="45.57252" lon="5.97884">
        <ele>316</ele>
        <time>2012-12-02T11:02:21.24Z</time>
      </trkpt>
      <trkpt lat="45.57251" lon="5.97876">
        <ele>315</ele>
        <time>2012-12-02T11:02:23.24Z</time>
      </trkpt>
      <trkpt lat="45.57248" lon="5.97866">
        <ele>315</ele>
        <time>2012-12-02T11:02:25.24Z</time>
      </trkpt>
      <trkpt lat="45.57243" lon="5.97858">
        <ele>315</ele>
        <time>2012-12-02T11:02:27.26Z</time>
      </trkpt>
      <trkpt lat="45.57242" lon="5.97849">
        <ele>315</ele>
        <time>2012-12-02T11:02:29.26Z</time>
      </trkpt>
      <trkpt lat="45.57242" lon="5.97844">
        <ele>315</ele>
        <time>2012-12-02T11:02:31.27Z</time>
      </trkpt>
      <trkpt lat="45.5724" lon="5.97839">
        <ele>315</ele>
        <time>2012-12-02T11:02:33.27Z</time>
      </trkpt>
      <trkpt lat="45.57238" lon="5.97832">
        <ele>315</ele>
        <time>2012-12-02T11:02:35.27Z</time>
      </trkpt>
      <trkpt lat="45.57236" lon="5.97828">
        <ele>315</ele>
        <time>2012-12-02T11:02:37.26Z</time>
      </trkpt>
      <trkpt lat="45.57234" lon="5.97824">
        <ele>314</ele>
        <time>2012-12-02T11:02:39.25Z</time>
      </trkpt>
      <trkpt lat="45.57231" lon="5.97819">
        <ele>314</ele>
        <time>2012-12-02T11:02:41.26Z</time>
      </trkpt>
      <trkpt lat="45.5723" lon="5.9781">
        <ele>314</ele>
        <time>2012-12-02T11:02:43.24Z</time>
      </trkpt>
      <trkpt lat="45.57228" lon="5.978">
        <ele>314</ele>
        <time>2012-12-02T11:02:45.26Z</time>
      </trkpt>
      <trkpt lat="45.57228" lon="5.97792">
        <ele>314</ele>
        <time>2012-12-02T11:02:47.28Z</time>
      </trkpt>
      <trkpt lat="45.57225" lon="5.97786">
        <ele>314</ele>
        <time>2012-12-02T11:02:49.25Z</time>
      </trkpt>
      <trkpt lat="45.5722" lon="5.97781">
        <ele>314</ele>
        <time>2012-12-02T11:02:51.28Z</time>
      </trkpt>
      <trkpt lat="45.57216" lon="5.9778">
        <ele>314</ele>
        <time>2012-12-02T11:02:53.26Z</time>
      </trkpt>
      <trkpt lat="45.57213" lon="5.97777">
        <ele>313</ele>
        <time>2012-12-02T11:02:55.25Z</time>
      </trkpt>
      <trkpt lat="45.57211" lon="5.97772">
        <ele>313</ele>
        <time>2012-12-02T11:02:57.26Z</time>
      </trkpt>
      <trkpt lat="45.57208" lon="5.97765">
        <ele>313</ele>
        <time>2012-12-02T11:02:59.27Z</time>
      </trkpt>
      <trkpt lat="45.57207" lon="5.97757">
        <ele>313</ele>
        <time>2012-12-02T11:03:01.27Z</time>
      </trkpt>
      <trkpt lat="45.57206" lon="5.9775">
        <ele>313</ele>
        <time>2012-12-02T11:03:03.27Z</time>
      </trkpt>
      <trkpt lat="45.57204" lon="5.97746">
        <ele>313</ele>
        <time>2012-12-02T11:03:05.26Z</time>
      </trkpt>
      <trkpt lat="45.572" lon="5.97748">
        <ele>313</ele>
        <time>2012-12-02T11:03:07.26Z</time>
      </trkpt>
      <trkpt lat="45.57195" lon="5.97749">
        <ele>313</ele>
        <time>2012-12-02T11:03:09.26Z</time>
      </trkpt>
      <trkpt lat="45.57189" lon="5.97747">
        <ele>313</ele>
        <time>2012-12-02T11:03:11.26Z</time>
      </trkpt>
      <trkpt lat="45.57185" lon="5.97742">
        <ele>313</ele>
        <time>2012-12-02T11:03:13.25Z</time>
      </trkpt>
      <trkpt lat="45.5718" lon="5.97734">
        <ele>312</ele>
        <time>2012-12-02T11:03:15.25Z</time>
      </trkpt>
      <trkpt lat="45.57177" lon="5.97725">
        <ele>312</ele>
        <time>2012-12-02T11:03:17.25Z</time>
      </trkpt>
      <trkpt lat="45.57175" lon="5.97717">
        <ele>312</ele>
        <time>2012-12-02T11:03:19.26Z</time>
      </trkpt>
      <trkpt lat="45.57174" lon="5.9771">
        <ele>312</ele>
        <time>2012-12-02T11:03:21.29Z</time>
      </trkpt>
      <trkpt lat="45.5717" lon="5.97705">
        <ele>312</ele>
        <time>2012-12-02T11:03:23.29Z</time>
      </trkpt>
      <trkpt lat="45.57171" lon="5.97696">
        <ele>312</ele>
        <time>2012-12-02T11:03:25.27Z</time>
      </trkpt>
      <trkpt lat="45.57169" lon="5.97688">
        <ele>312</ele>
        <time>2012-12-02T11:03:27.24Z</time>
      </trkpt>
      <trkpt lat="45.57169" lon="5.97677">
        <ele>311</ele>
        <time>2012-12-02T11:03:29.26Z</time>
      </trkpt>
      <trkpt lat="45.57168" lon="5.97669">
        <ele>311</ele>
        <time>2012-12-02T11:03:31.23Z</time>
      </trkpt>
      <trkpt lat="45.57166" lon="5.97663">
        <ele>311</ele>
        <time>2012-12-02T11:03:33.24Z</time>
      </trkpt>
      <trkpt lat="45.57163" lon="5.97656">
        <ele>311</ele>
        <time>2012-12-02T11:03:35.27Z</time>
      </trkpt>
      <trkpt lat="45.57161" lon="5.97646">
        <ele>311</ele>
        <time>2012-12-02T11:03:37.27Z</time>
      </trkpt>
      <trkpt lat="45.57161" lon="5.97636">
        <ele>311</ele>
        <time>2012-12-02T11:03:39.3Z</time>
      </trkpt>
      <trkpt lat="45.57161" lon="5.97626">
        <ele>311</ele>
        <time>2012-12-02T11:03:41.26Z</time>
      </trkpt>
      <trkpt lat="45.5716" lon="5.97618">
        <ele>310</ele>
        <time>2012-12-02T11:03:43.24Z</time>
      </trkpt>
      <trkpt lat="45.57157" lon="5.97613">
        <ele>310</ele>
        <time>2012-12-02T11:03:45.28Z</time>
      </trkpt>
      <trkpt lat="45.57153" lon="5.97607">
        <ele>310</ele>
        <time>2012-12-02T11:03:47.24Z</time>
      </trkpt>
      <trkpt lat="45.57149" lon="5.97601">
        <ele>310</ele>
        <time>2012-12-02T11:03:49.26Z</time>
      </trkpt>
      <trkpt lat="45.57147" lon="5.97591">
        <ele>310</ele>
        <time>2012-12-02T11:03:51.28Z</time>
      </trkpt>
      <trkpt lat="45.57146" lon="5.97584">
        <ele>310</ele>
        <time>2012-12-02T11:03:53.24Z</time>
      </trkpt>
      <trkpt lat="45.57144" lon="5.97578">
        <ele>310</ele>
        <time>2012-12-02T11:03:55.28Z</time>
      </trkpt>
      <trkpt lat="45.57141" lon="5.97573">
        <ele>309</ele>
        <time>2012-12-02T11:03:57.29Z</time>
      </trkpt>
      <trkpt lat="45.57139" lon="5.97568">
        <ele>309</ele>
        <time>2012-12-02T11:03:59.29Z</time>
      </trkpt>
      <trkpt lat="45.57136" lon="5.97564">
        <ele>309</ele>
        <time>2012-12-02T11:04:01.3Z</time>
      </trkpt>
      <trkpt lat="45.57133" lon="5.97558">
        <ele>309</ele>
        <time>2012-12-02T11:04:03.26Z</time>
      </trkpt>
      <trkpt lat="45.57129" lon="5.97553">
        <ele>309</ele>
        <time>2012-12-02T11:04:05.26Z</time>
      </trkpt>
      <trkpt lat="45.57125" lon="5.97548">
        <ele>309</ele>
        <time>2012-12-02T11:04:07.28Z</time>
      </trkpt>
      <trkpt lat="45.57122" lon="5.97543">
        <ele>309</ele>
        <time>2012-12-02T11:04:09.27Z</time>
      </trkpt>
      <trkpt lat="45.57119" lon="5.9754">
        <ele>309</ele>
        <time>2012-12-02T11:04:11.25Z</time>
      </trkpt>
      <trkpt lat="45.57115" lon="5.97538">
        <ele>309</ele>
        <time>2012-12-02T11:04:13.26Z</time>
      </trkpt>
      <trkpt lat="45.57112" lon="5.97538">
        <ele>309</ele>
        <time>2012-12-02T11:04:15.32Z</time>
      </trkpt>
      <trkpt lat="45.57109" lon="5.97538">
        <ele>309</ele>
        <time>2012-12-02T11:04:17.26Z</time>
      </trkpt>
      <trkpt lat="45.57108" lon="5.9754">
        <ele>309</ele>
        <time>2012-12-02T11:04:19.26Z</time>
      </trkpt>
      <trkpt lat="45.57106" lon="5.97545">
        <ele>309</ele>
        <time>2012-12-02T11:04:21.27Z</time>
      </trkpt>
      <trkpt lat="45.57105" lon="5.97553">
        <ele>309</ele>
        <time>2012-12-02T11:04:23.28Z</time>
      </trkpt>
      <trkpt lat="45.57103" lon="5.9756">
        <ele>309</ele>
        <time>2012-12-02T11:04:25.28Z</time>
      </trkpt>
      <trkpt lat="45.57102" lon="5.97565">
        <ele>309</ele>
        <time>2012-12-02T11:04:27.32Z</time>
      </trkpt>
      <trkpt lat="45.57098" lon="5.97571">
        <ele>309</ele>
        <time>2012-12-02T11:04:29.28Z</time>
      </trkpt>
      <trkpt lat="45.57093" lon="5.97578">
        <ele>309</ele>
        <time>2012-12-02T11:04:31.26Z</time>
      </trkpt>
      <trkpt lat="45.57085" lon="5.97579">
        <ele>309</ele>
        <time>2012-12-02T11:04:33.27Z</time>
      </trkpt>
      <trkpt lat="45.57079" lon="5.97572">
        <ele>309</ele>
        <time>2012-12-02T11:04:35.26Z</time>
      </trkpt>
      <trkpt lat="45.57074" lon="5.97568">
        <ele>308</ele>
        <time>2012-12-02T11:04:37.27Z</time>
      </trkpt>
      <trkpt lat="45.57067" lon="5.97565">
        <ele>308</ele>
        <time>2012-12-02T11:04:39.25Z</time>
      </trkpt>
      <trkpt lat="45.57062" lon="5.97562">
        <ele>308</ele>
        <time>2012-12-02T11:04:41.25Z</time>
      </trkpt>
      <trkpt lat="45.57057" lon="5.9756">
        <ele>308</ele>
        <time>2012-12-02T11:04:43.26Z</time>
      </trkpt>
      <trkpt lat="45.57053" lon="5.9756">
        <ele>308</ele>
        <time>2012-12-02T11:04:45.23Z</time>
      </trkpt>
      <trkpt lat="45.57049" lon="5.97555">
        <ele>308</ele>
        <time>2012-12-02T11:04:47.22Z</time>
      </trkpt>
      <trkpt lat="45.57048" lon="5.97546">
        <ele>308</ele>
        <time>2012-12-02T11:04:49.24Z</time>
      </trkpt>
      <trkpt lat="45.57044" lon="5.97536">
        <ele>307</ele>
        <time>2012-12-02T11:04:51.22Z</time>
      </trkpt>
      <trkpt lat="45.57041" lon="5.97526">
        <ele>307</ele>
        <time>2012-12-02T11:04:53.22Z</time>
      </trkpt>
      <trkpt lat="45.57039" lon="5.97519">
        <ele>307</ele>
        <time>2012-12-02T11:04:55.22Z</time>
      </trkpt>
      <trkpt lat="45.57037" lon="5.97515">
        <ele>307</ele>
        <time>2012-12-02T11:04:57.28Z</time>
      </trkpt>
      <trkpt lat="45.57034" lon="5.9751">
        <ele>307</ele>
        <time>2012-12-02T11:04:59.27Z</time>
      </trkpt>
      <trkpt lat="45.57031" lon="5.97505">
        <ele>307</ele>
        <time>2012-12-02T11:05:01.25Z</time>
      </trkpt>
      <trkpt lat="45.57028" lon="5.97499">
        <ele>307</ele>
        <time>2012-12-02T11:05:03.25Z</time>
      </trkpt>
      <trkpt lat="45.57024" lon="5.97493">
        <ele>307</ele>
        <time>2012-12-02T11:05:05.26Z</time>
      </trkpt>
      <trkpt lat="45.57019" lon="5.97485">
        <ele>306</ele>
        <time>2012-12-02T11:05:07.26Z</time>
      </trkpt>
      <trkpt lat="45.57016" lon="5.97479">
        <ele>306</ele>
        <time>2012-12-02T11:05:09.23Z</time>
      </trkpt>
      <trkpt lat="45.57014" lon="5.97467">
        <ele>306</ele>
        <time>2012-12-02T11:05:11.26Z</time>
      </trkpt>
      <trkpt lat="45.57014" lon="5.97458">
        <ele>306</ele>
        <time>2012-12-02T11:05:13.27Z</time>
      </trkpt>
      <trkpt lat="45.57014" lon="5.97452">
        <ele>306</ele>
        <time>2012-12-02T11:05:15.28Z</time>
      </trkpt>
      <trkpt lat="45.57014" lon="5.97448">
        <ele>306</ele>
        <time>2012-12-02T11:05:19.26Z</time>
      </trkpt>
      <trkpt lat="45.57011" lon="5.97445">
        <ele>306</ele>
        <time>2012-12-02T11:05:21.25Z</time>
      </trkpt>
      <trkpt lat="45.57008" lon="5.97444">
        <ele>306</ele>
        <time>2012-12-02T11:05:23.25Z</time>
      </trkpt>
      <trkpt lat="45.57004" lon="5.97447">
        <ele>306</ele>
        <time>2012-12-02T11:05:25.26Z</time>
      </trkpt>
      <trkpt lat="45.56999" lon="5.97451">
        <ele>306</ele>
        <time>2012-12-02T11:05:27.27Z</time>
      </trkpt>
      <trkpt lat="45.56995" lon="5.9745">
        <ele>306</ele>
        <time>2012-12-02T11:05:29.28Z</time>
      </trkpt>
      <trkpt lat="45.56991" lon="5.97451">
        <ele>305</ele>
        <time>2012-12-02T11:05:31.27Z</time>
      </trkpt>
      <trkpt lat="45.5699" lon="5.97446">
        <ele>305</ele>
        <time>2012-12-02T11:05:33.27Z</time>
      </trkpt>
      <trkpt lat="45.56988" lon="5.97446">
        <ele>305</ele>
        <time>2012-12-02T11:05:35.25Z</time>
      </trkpt>
      <trkpt lat="45.56986" lon="5.97449">
        <ele>305</ele>
        <time>2012-12-02T11:05:37.26Z</time>
      </trkpt>
      <trkpt lat="45.56987" lon="5.97456">
        <ele>306</ele>
        <time>2012-12-02T11:05:39.26Z</time>
      </trkpt>
      <trkpt lat="45.56986" lon="5.97464">
        <ele>306</ele>
        <time>2012-12-02T11:05:41.26Z</time>
      </trkpt>
      <trkpt lat="45.56986" lon="5.97472">
        <ele>306</ele>
        <time>2012-12-02T11:05:43.27Z</time>
      </trkpt>
      <trkpt lat="45.56986" lon="5.97479">
        <ele>306</ele>
        <time>2012-12-02T11:05:45.28Z</time>
      </trkpt>
      <trkpt lat="45.56986" lon="5.97487">
        <ele>306</ele>
        <time>2012-12-02T11:05:47.29Z</time>
      </trkpt>
      <trkpt lat="45.56986" lon="5.97495">
        <ele>306</ele>
        <time>2012-12-02T11:05:49.26Z</time>
      </trkpt>
      <trkpt lat="45.56987" lon="5.97503">
        <ele>306</ele>
        <time>2012-12-02T11:05:51.25Z</time>
      </trkpt>
      <trkpt lat="45.56985" lon="5.97511">
        <ele>306</ele>
        <time>2012-12-02T11:05:53.28Z</time>
      </trkpt>
      <trkpt lat="45.56982" lon="5.9752">
        <ele>306</ele>
        <time>2012-12-02T11:05:55.25Z</time>
      </trkpt>
      <trkpt lat="45.5698" lon="5.97527">
        <ele>306</ele>
        <time>2012-12-02T11:05:57.27Z</time>
      </trkpt>
      <trkpt lat="45.56981" lon="5.97536">
        <ele>306</ele>
        <time>2012-12-02T11:05:59.27Z</time>
      </trkpt>
      <trkpt lat="45.56981" lon="5.97544">
        <ele>306</ele>
        <time>2012-12-02T11:06:01.28Z</time>
      </trkpt>
      <trkpt lat="45.5698" lon="5.97552">
        <ele>306</ele>
        <time>2012-12-02T11:06:03.28Z</time>
      </trkpt>
      <trkpt lat="45.56977" lon="5.9756">
        <ele>306</ele>
        <time>2012-12-02T11:06:05.26Z</time>
      </trkpt>
      <trkpt lat="45.56974" lon="5.97567">
        <ele>306</ele>
        <time>2012-12-02T11:06:07.26Z</time>
      </trkpt>
      <trkpt lat="45.56974" lon="5.97573">
        <ele>306</ele>
        <time>2012-12-02T11:06:09.31Z</time>
      </trkpt>
      <trkpt lat="45.56975" lon="5.97579">
        <ele>306</ele>
        <time>2012-12-02T11:06:11.25Z</time>
      </trkpt>
      <trkpt lat="45.56975" lon="5.97587">
        <ele>306</ele>
        <time>2012-12-02T11:06:13.26Z</time>
      </trkpt>
      <trkpt lat="45.56976" lon="5.97596">
        <ele>306</ele>
        <time>2012-12-02T11:06:15.28Z</time>
      </trkpt>
      <trkpt lat="45.56973" lon="5.97604">
        <ele>306</ele>
        <time>2012-12-02T11:06:17.28Z</time>
      </trkpt>
      <trkpt lat="45.56967" lon="5.97609">
        <ele>306</ele>
        <time>2012-12-02T11:06:19.29Z</time>
      </trkpt>
      <trkpt lat="45.56964" lon="5.97615">
        <ele>306</ele>
        <time>2012-12-02T11:06:21.27Z</time>
      </trkpt>
      <trkpt lat="45.56961" lon="5.9762">
        <ele>306</ele>
        <time>2012-12-02T11:06:23.25Z</time>
      </trkpt>
      <trkpt lat="45.56954" lon="5.97623">
        <ele>306</ele>
        <time>2012-12-02T11:06:25.26Z</time>
      </trkpt>
      <trkpt lat="45.56948" lon="5.97626">
        <ele>306</ele>
        <time>2012-12-02T11:06:27.27Z</time>
      </trkpt>
      <trkpt lat="45.56942" lon="5.97629">
        <ele>306</ele>
        <time>2012-12-02T11:06:29.27Z</time>
      </trkpt>
      <trkpt lat="45.5694" lon="5.97636">
        <ele>306</ele>
        <time>2012-12-02T11:06:31.27Z</time>
      </trkpt>
      <trkpt lat="45.56941" lon="5.97644">
        <ele>306</ele>
        <time>2012-12-02T11:06:33.27Z</time>
      </trkpt>
      <trkpt lat="45.56942" lon="5.97651">
        <ele>306</ele>
        <time>2012-12-02T11:06:35.27Z</time>
      </trkpt>
      <trkpt lat="45.56944" lon="5.97659">
        <ele>306</ele>
        <time>2012-12-02T11:06:37.26Z</time>
      </trkpt>
      <trkpt lat="45.56946" lon="5.97667">
        <ele>306</ele>
        <time>2012-12-02T11:06:39.26Z</time>
      </trkpt>
      <trkpt lat="45.56947" lon="5.97674">
        <ele>306</ele>
        <time>2012-12-02T11:06:41.25Z</time>
      </trkpt>
      <trkpt lat="45.56949" lon="5.9768">
        <ele>306</ele>
        <time>2012-12-02T11:06:43.25Z</time>
      </trkpt>
      <trkpt lat="45.56951" lon="5.97687">
        <ele>307</ele>
        <time>2012-12-02T11:06:45.26Z</time>
      </trkpt>
      <trkpt lat="45.56953" lon="5.97694">
        <ele>307</ele>
        <time>2012-12-02T11:06:47.27Z</time>
      </trkpt>
      <trkpt lat="45.56955" lon="5.977">
        <ele>307</ele>
        <time>2012-12-02T11:06:49.32Z</time>
      </trkpt>
      <trkpt lat="45.56956" lon="5.97706">
        <ele>307</ele>
        <time>2012-12-02T11:06:51.28Z</time>
      </trkpt>
      <trkpt lat="45.56958" lon="5.97713">
        <ele>307</ele>
        <time>2012-12-02T11:06:53.27Z</time>
      </trkpt>
      <trkpt lat="45.56959" lon="5.97719">
        <ele>307</ele>
        <time>2012-12-02T11:06:55.25Z</time>
      </trkpt>
      <trkpt lat="45.5696" lon="5.97726">
        <ele>307</ele>
        <time>2012-12-02T11:06:57.25Z</time>
      </trkpt>
      <trkpt lat="45.56962" lon="5.97732">
        <ele>307</ele>
        <time>2012-12-02T11:06:59.24Z</time>
      </trkpt>
      <trkpt lat="45.56964" lon="5.97738">
        <ele>307</ele>
        <time>2012-12-02T11:07:01.26Z</time>
      </trkpt>
      <trkpt lat="45.56966" lon="5.97746">
        <ele>308</ele>
        <time>2012-12-02T11:07:03.28Z</time>
      </trkpt>
      <trkpt lat="45.56967" lon="5.97754">
        <ele>308</ele>
        <time>2012-12-02T11:07:05.26Z</time>
      </trkpt>
      <trkpt lat="45.56967" lon="5.97761">
        <ele>308</ele>
        <time>2012-12-02T11:07:07.29Z</time>
      </trkpt>
      <trkpt lat="45.56971" lon="5.97769">
        <ele>308</ele>
        <time>2012-12-02T11:07:09.27Z</time>
      </trkpt>
      <trkpt lat="45.56976" lon="5.97776">
        <ele>308</ele>
        <time>2012-12-02T11:07:11.26Z</time>
      </trkpt>
      <trkpt lat="45.56979" lon="5.97782">
        <ele>309</ele>
        <time>2012-12-02T11:07:13.3Z</time>
      </trkpt>
      <trkpt lat="45.5698" lon="5.97788">
        <ele>309</ele>
        <time>2012-12-02T11:07:15.28Z</time>
      </trkpt>
      <trkpt lat="45.56983" lon="5.97794">
        <ele>309</ele>
        <time>2012-12-02T11:07:17.25Z</time>
      </trkpt>
      <trkpt lat="45.56987" lon="5.97802">
        <ele>309</ele>
        <time>2012-12-02T11:07:19.28Z</time>
      </trkpt>
      <trkpt lat="45.56989" lon="5.9781">
        <ele>310</ele>
        <time>2012-12-02T11:07:21.29Z</time>
      </trkpt>
      <trkpt lat="45.56991" lon="5.97817">
        <ele>310</ele>
        <time>2012-12-02T11:07:23.26Z</time>
      </trkpt>
      <trkpt lat="45.56991" lon="5.97824">
        <ele>310</ele>
        <time>2012-12-02T11:07:25.26Z</time>
      </trkpt>
      <trkpt lat="45.56989" lon="5.97831">
        <ele>310</ele>
        <time>2012-12-02T11:07:27.25Z</time>
      </trkpt>
      <trkpt lat="45.56987" lon="5.97838">
        <ele>310</ele>
        <time>2012-12-02T11:07:29.28Z</time>
      </trkpt>
      <trkpt lat="45.56985" lon="5.97843">
        <ele>310</ele>
        <time>2012-12-02T11:07:31.24Z</time>
      </trkpt>
      <trkpt lat="45.56985" lon="5.9785">
        <ele>310</ele>
        <time>2012-12-02T11:07:33.26Z</time>
      </trkpt>
      <trkpt lat="45.56985" lon="5.97856">
        <ele>310</ele>
        <time>2012-12-02T11:07:35.24Z</time>
      </trkpt>
      <trkpt lat="45.56984" lon="5.97864">
        <ele>310</ele>
        <time>2012-12-02T11:07:37.26Z</time>
      </trkpt>
      <trkpt lat="45.56987" lon="5.97872">
        <ele>310</ele>
        <time>2012-12-02T11:07:39.3Z</time>
      </trkpt>
      <trkpt lat="45.56987" lon="5.9788">
        <ele>310</ele>
        <time>2012-12-02T11:07:41.26Z</time>
      </trkpt>
      <trkpt lat="45.56987" lon="5.97889">
        <ele>311</ele>
        <time>2012-12-02T11:07:43.25Z</time>
      </trkpt>
      <trkpt lat="45.56989" lon="5.97897">
        <ele>311</ele>
        <time>2012-12-02T11:07:45.25Z</time>
      </trkpt>
      <trkpt lat="45.56989" lon="5.97903">
        <ele>311</ele>
        <time>2012-12-02T11:07:47.22Z</time>
      </trkpt>
      <trkpt lat="45.56986" lon="5.97907">
        <ele>310</ele>
        <time>2012-12-02T11:07:49.29Z</time>
      </trkpt>
      <trkpt lat="45.5698" lon="5.9791">
        <ele>310</ele>
        <time>2012-12-02T11:07:51.27Z</time>
      </trkpt>
      <trkpt lat="45.56975" lon="5.97916">
        <ele>310</ele>
        <time>2012-12-02T11:07:53.29Z</time>
      </trkpt>
      <trkpt lat="45.56969" lon="5.97923">
        <ele>309</ele>
        <time>2012-12-02T11:07:55.33Z</time>
      </trkpt>
      <trkpt lat="45.56964" lon="5.97931">
        <ele>309</ele>
        <time>2012-12-02T11:07:57.3Z</time>
      </trkpt>
      <trkpt lat="45.56959" lon="5.97938">
        <ele>309</ele>
        <time>2012-12-02T11:07:59.24Z</time>
      </trkpt>
      <trkpt lat="45.56954" lon="5.97943">
        <ele>308</ele>
        <time>2012-12-02T11:08:01.32Z</time>
      </trkpt>
      <trkpt lat="45.56949" lon="5.97946">
        <ele>308</ele>
        <time>2012-12-02T11:08:03.25Z</time>
      </trkpt>
      <trkpt lat="45.56944" lon="5.97951">
        <ele>308</ele>
        <time>2012-12-02T11:08:05.26Z</time>
      </trkpt>
      <trkpt lat="45.56939" lon="5.97956">
        <ele>307</ele>
        <time>2012-12-02T11:08:07.27Z</time>
      </trkpt>
      <trkpt lat="45.56935" lon="5.9796">
        <ele>307</ele>
        <time>2012-12-02T11:08:09.25Z</time>
      </trkpt>
      <trkpt lat="45.5693" lon="5.97966">
        <ele>307</ele>
        <time>2012-12-02T11:08:11.27Z</time>
      </trkpt>
      <trkpt lat="45.56924" lon="5.9797">
        <ele>306</ele>
        <time>2012-12-02T11:08:13.23Z</time>
      </trkpt>
      <trkpt lat="45.56918" lon="5.97974">
        <ele>306</ele>
        <time>2012-12-02T11:08:15.25Z</time>
      </trkpt>
      <trkpt lat="45.56912" lon="5.97978">
        <ele>305</ele>
        <time>2012-12-02T11:08:17.26Z</time>
      </trkpt>
      <trkpt lat="45.56907" lon="5.97982">
        <ele>305</ele>
        <time>2012-12-02T11:08:19.25Z</time>
      </trkpt>
      <trkpt lat="45.56901" lon="5.97985">
        <ele>305</ele>
        <time>2012-12-02T11:08:21.26Z</time>
      </trkpt>
      <trkpt lat="45.56897" lon="5.97987">
        <ele>304</ele>
        <time>2012-12-02T11:08:23.28Z</time>
      </trkpt>
      <trkpt lat="45.56894" lon="5.97989">
        <ele>304</ele>
        <time>2012-12-02T11:08:25.32Z</time>
      </trkpt>
      <trkpt lat="45.56889" lon="5.97991">
        <ele>304</ele>
        <time>2012-12-02T11:08:27.3Z</time>
      </trkpt>
      <trkpt lat="45.56886" lon="5.97994">
        <ele>304</ele>
        <time>2012-12-02T11:08:29.25Z</time>
      </trkpt>
      <trkpt lat="45.56882" lon="5.97996">
        <ele>303</ele>
        <time>2012-12-02T11:08:31.23Z</time>
      </trkpt>
      <trkpt lat="45.56878" lon="5.97997">
        <ele>303</ele>
        <time>2012-12-02T11:08:33.23Z</time>
      </trkpt>
      <trkpt lat="45.56871" lon="5.97997">
        <ele>303</ele>
        <time>2012-12-02T11:08:35.27Z</time>
      </trkpt>
      <trkpt lat="45.56865" lon="5.97997">
        <ele>302</ele>
        <time>2012-12-02T11:08:37.29Z</time>
      </trkpt>
      <trkpt lat="45.56862" lon="5.97995">
        <ele>302</ele>
        <time>2012-12-02T11:08:39.27Z</time>
      </trkpt>
      <trkpt lat="45.56858" lon="5.97995">
        <ele>302</ele>
        <time>2012-12-02T11:08:41.26Z</time>
      </trkpt>
      <trkpt lat="45.56854" lon="5.97995">
        <ele>302</ele>
        <time>2012-12-02T11:08:43.27Z</time>
      </trkpt>
      <trkpt lat="45.56851" lon="5.97995">
        <ele>301</ele>
        <time>2012-12-02T11:08:45.28Z</time>
      </trkpt>
      <trkpt lat="45.5685" lon="5.97998">
        <ele>301</ele>
        <time>2012-12-02T11:08:47.26Z</time>
      </trkpt>
      <trkpt lat="45.5685" lon="5.98004">
        <ele>301</ele>
        <time>2012-12-02T11:08:49.24Z</time>
      </trkpt>
      <trkpt lat="45.5685" lon="5.98013">
        <ele>301</ele>
        <time>2012-12-02T11:08:51.27Z</time>
      </trkpt>
      <trkpt lat="45.56851" lon="5.98021">
        <ele>301</ele>
        <time>2012-12-02T11:08:53.27Z</time>
      </trkpt>
      <trkpt lat="45.56853" lon="5.98029">
        <ele>301</ele>
        <time>2012-12-02T11:08:55.31Z</time>
      </trkpt>
      <trkpt lat="45.56854" lon="5.98035">
        <ele>302</ele>
        <time>2012-12-02T11:08:57.28Z</time>
      </trkpt>
      <trkpt lat="45.56855" lon="5.98041">
        <ele>302</ele>
        <time>2012-12-02T11:08:59.28Z</time>
      </trkpt>
      <trkpt lat="45.56857" lon="5.98048">
        <ele>302</ele>
        <time>2012-12-02T11:09:01.26Z</time>
      </trkpt>
      <trkpt lat="45.5686" lon="5.98054">
        <ele>302</ele>
        <time>2012-12-02T11:09:03.27Z</time>
      </trkpt>
      <trkpt lat="45.56861" lon="5.98059">
        <ele>302</ele>
        <time>2012-12-02T11:09:05.26Z</time>
      </trkpt>
      <trkpt lat="45.56863" lon="5.98067">
        <ele>302</ele>
        <time>2012-12-02T11:09:07.28Z</time>
      </trkpt>
      <trkpt lat="45.56864" lon="5.98073">
        <ele>302</ele>
        <time>2012-12-02T11:09:09.26Z</time>
      </trkpt>
      <trkpt lat="45.56866" lon="5.98078">
        <ele>302</ele>
        <time>2012-12-02T11:09:11.3Z</time>
      </trkpt>
      <trkpt lat="45.56867" lon="5.98082">
        <ele>302</ele>
        <time>2012-12-02T11:09:13.3Z</time>
      </trkpt>
      <trkpt lat="45.56868" lon="5.98087">
        <ele>303</ele>
        <time>2012-12-02T11:09:15.27Z</time>
      </trkpt>
      <trkpt lat="45.56871" lon="5.98092">
        <ele>303</ele>
        <time>2012-12-02T11:09:17.25Z</time>
      </trkpt>
      <trkpt lat="45.56871" lon="5.98096">
        <ele>303</ele>
        <time>2012-12-02T11:09:19.25Z</time>
      </trkpt>
      <trkpt lat="45.56872" lon="5.98103">
        <ele>303</ele>
        <time>2012-12-02T11:09:21.28Z</time>
      </trkpt>
      <trkpt lat="45.56873" lon="5.98112">
        <ele>303</ele>
        <time>2012-12-02T11:09:23.25Z</time>
      </trkpt>
      <trkpt lat="45.56875" lon="5.98119">
        <ele>303</ele>
        <time>2012-12-02T11:09:25.24Z</time>
      </trkpt>
      <trkpt lat="45.56878" lon="5.98125">
        <ele>303</ele>
        <time>2012-12-02T11:09:27.24Z</time>
      </trkpt>
      <trkpt lat="45.5688" lon="5.98132">
        <ele>303</ele>
        <time>2012-12-02T11:09:29.26Z</time>
      </trkpt>
      <trkpt lat="45.56882" lon="5.98137">
        <ele>304</ele>
        <time>2012-12-02T11:09:31.31Z</time>
      </trkpt>
      <trkpt lat="45.56883" lon="5.98144">
        <ele>304</ele>
        <time>2012-12-02T11:09:33.26Z</time>
      </trkpt>
      <trkpt lat="45.56885" lon="5.98151">
        <ele>304</ele>
        <time>2012-12-02T11:09:35.24Z</time>
      </trkpt>
      <trkpt lat="45.56887" lon="5.98157">
        <ele>304</ele>
        <time>2012-12-02T11:09:37.26Z</time>
      </trkpt>
      <trkpt lat="45.56889" lon="5.98163">
        <ele>305</ele>
        <time>2012-12-02T11:09:39.27Z</time>
      </trkpt>
      <trkpt lat="45.56891" lon="5.98168">
        <ele>305</ele>
        <time>2012-12-02T11:09:41.27Z</time>
      </trkpt>
      <trkpt lat="45.56892" lon="5.98174">
        <ele>305</ele>
        <time>2012-12-02T11:09:43.32Z</time>
      </trkpt>
      <trkpt lat="45.56894" lon="5.98181">
        <ele>305</ele>
        <time>2012-12-02T11:09:45.26Z</time>
      </trkpt>
      <trkpt lat="45.56894" lon="5.98187">
        <ele>306</ele>
        <time>2012-12-02T11:09:47.28Z</time>
      </trkpt>
      <trkpt lat="45.56896" lon="5.98192">
        <ele>306</ele>
        <time>2012-12-02T11:09:49.28Z</time>
      </trkpt>
      <trkpt lat="45.56898" lon="5.98199">
        <ele>306</ele>
        <time>2012-12-02T11:09:51.24Z</time>
      </trkpt>
      <trkpt lat="45.56899" lon="5.98207">
        <ele>307</ele>
        <time>2012-12-02T11:09:53.24Z</time>
      </trkpt>
      <trkpt lat="45.56901" lon="5.98213">
        <ele>307</ele>
        <time>2012-12-02T11:09:55.32Z</time>
      </trkpt>
      <trkpt lat="45.56903" lon="5.98218">
        <ele>308</ele>
        <time>2012-12-02T11:09:57.25Z</time>
      </trkpt>
      <trkpt lat="45.56905" lon="5.98221">
        <ele>308</ele>
        <time>2012-12-02T11:09:59.27Z</time>
      </trkpt>
      <trkpt lat="45.56908" lon="5.98222">
        <ele>308</ele>
        <time>2012-12-02T11:10:01.28Z</time>
      </trkpt>
      <trkpt lat="45.56911" lon="5.9822">
        <ele>309</ele>
        <time>2012-12-02T11:10:03.28Z</time>
      </trkpt>
      <trkpt lat="45.56914" lon="5.98218">
        <ele>309</ele>
        <time>2012-12-02T11:10:05.26Z</time>
      </trkpt>
      <trkpt lat="45.56915" lon="5.98215">
        <ele>309</ele>
        <time>2012-12-02T11:10:07.24Z</time>
      </trkpt>
      <trkpt lat="45.56919" lon="5.98218">
        <ele>310</ele>
        <time>2012-12-02T11:10:09.25Z</time>
      </trkpt>
      <trkpt lat="45.56923" lon="5.98221">
        <ele>310</ele>
        <time>2012-12-02T11:10:11.26Z</time>
      </trkpt>
      <trkpt lat="45.56928" lon="5.9822">
        <ele>310</ele>
        <time>2012-12-02T11:10:13.24Z</time>
      </trkpt>
      <trkpt lat="45.56932" lon="5.98221">
        <ele>311</ele>
        <time>2012-12-02T11:10:15.27Z</time>
      </trkpt>
      <trkpt lat="45.56936" lon="5.98219">
        <ele>311</ele>
        <time>2012-12-02T11:10:17.25Z</time>
      </trkpt>
      <trkpt lat="45.56942" lon="5.98216">
        <ele>311</ele>
        <time>2012-12-02T11:10:19.3Z</time>
      </trkpt>
      <trkpt lat="45.56947" lon="5.98214">
        <ele>312</ele>
        <time>2012-12-02T11:10:21.27Z</time>
      </trkpt>
      <trkpt lat="45.56952" lon="5.98209">
        <ele>312</ele>
        <time>2012-12-02T11:10:23.27Z</time>
      </trkpt>
      <trkpt lat="45.56956" lon="5.98204">
        <ele>312</ele>
        <time>2012-12-02T11:10:25.26Z</time>
      </trkpt>
      <trkpt lat="45.56959" lon="5.98201">
        <ele>312</ele>
        <time>2012-12-02T11:10:27.27Z</time>
      </trkpt>
      <trkpt lat="45.56963" lon="5.982">
        <ele>312</ele>
        <time>2012-12-02T11:10:29.27Z</time>
      </trkpt>
      <trkpt lat="45.56967" lon="5.98198">
        <ele>313</ele>
        <time>2012-12-02T11:10:31.25Z</time>
      </trkpt>
      <trkpt lat="45.56971" lon="5.98196">
        <ele>313</ele>
        <time>2012-12-02T11:10:33.25Z</time>
      </trkpt>
      <trkpt lat="45.56976" lon="5.98195">
        <ele>314</ele>
        <time>2012-12-02T11:10:35.27Z</time>
      </trkpt>
      <trkpt lat="45.5698" lon="5.98192">
        <ele>314</ele>
        <time>2012-12-02T11:10:37.25Z</time>
      </trkpt>
      <trkpt lat="45.56984" lon="5.98189">
        <ele>314</ele>
        <time>2012-12-02T11:10:39.25Z</time>
      </trkpt>
      <trkpt lat="45.56987" lon="5.98187">
        <ele>315</ele>
        <time>2012-12-02T11:10:41.23Z</time>
      </trkpt>
      <trkpt lat="45.5699" lon="5.98184">
        <ele>315</ele>
        <time>2012-12-02T11:10:43.22Z</time>
      </trkpt>
      <trkpt lat="45.56993" lon="5.98181">
        <ele>315</ele>
        <time>2012-12-02T11:10:45.25Z</time>
      </trkpt>
      <trkpt lat="45.56997" lon="5.98177">
        <ele>315</ele>
        <time>2012-12-02T11:10:47.24Z</time>
      </trkpt>
      <trkpt lat="45.57002" lon="5.98174">
        <ele>315</ele>
        <time>2012-12-02T11:10:49.32Z</time>
      </trkpt>
      <trkpt lat="45.57006" lon="5.98172">
        <ele>315</ele>
        <time>2012-12-02T11:10:51.26Z</time>
      </trkpt>
      <trkpt lat="45.57009" lon="5.98169">
        <ele>316</ele>
        <time>2012-12-02T11:10:53.24Z</time>
      </trkpt>
      <trkpt lat="45.57012" lon="5.98168">
        <ele>316</ele>
        <time>2012-12-02T11:10:55.24Z</time>
      </trkpt>
      <trkpt lat="45.57017" lon="5.98169">
        <ele>316</ele>
        <time>2012-12-02T11:10:57.23Z</time>
      </trkpt>
      <trkpt lat="45.57022" lon="5.9817">
        <ele>316</ele>
        <time>2012-12-02T11:10:59.26Z</time>
      </trkpt>
      <trkpt lat="45.57028" lon="5.98176">
        <ele>316</ele>
        <time>2012-12-02T11:11:01.28Z</time>
      </trkpt>
      <trkpt lat="45.57034" lon="5.98184">
        <ele>316</ele>
        <time>2012-12-02T11:11:03.26Z</time>
      </trkpt>
      <trkpt lat="45.57038" lon="5.98189">
        <ele>317</ele>
        <time>2012-12-02T11:11:05.24Z</time>
      </trkpt>
      <trkpt lat="45.57042" lon="5.98191">
        <ele>317</ele>
        <time>2012-12-02T11:11:07.29Z</time>
      </trkpt>
      <trkpt lat="45.57048" lon="5.98195">
        <ele>317</ele>
        <time>2012-12-02T11:11:09.26Z</time>
      </trkpt>
      <trkpt lat="45.57055" lon="5.98196">
        <ele>317</ele>
        <time>2012-12-02T11:11:11.25Z</time>
      </trkpt>
      <trkpt lat="45.57058" lon="5.98191">
        <ele>317</ele>
        <time>2012-12-02T11:11:13.3Z</time>
      </trkpt>
      <trkpt lat="45.57061" lon="5.98185">
        <ele>317</ele>
        <time>2012-12-02T11:11:15.25Z</time>
      </trkpt>
      <trkpt lat="45.57065" lon="5.98181">
        <ele>317</ele>
        <time>2012-12-02T11:11:17.25Z</time>
      </trkpt>
      <trkpt lat="45.5707" lon="5.98175">
        <ele>317</ele>
        <time>2012-12-02T11:11:19.28Z</time>
      </trkpt>
      <trkpt lat="45.57073" lon="5.98169">
        <ele>317</ele>
        <time>2012-12-02T11:11:21.29Z</time>
      </trkpt>
      <trkpt lat="45.57075" lon="5.98164">
        <ele>317</ele>
        <time>2012-12-02T11:11:23.32Z</time>
      </trkpt>
      <trkpt lat="45.57079" lon="5.98162">
        <ele>317</ele>
        <time>2012-12-02T11:11:25.36Z</time>
      </trkpt>
      <trkpt lat="45.57082" lon="5.98158">
        <ele>317</ele>
        <time>2012-12-02T11:11:27.3Z</time>
      </trkpt>
      <trkpt lat="45.57085" lon="5.98154">
        <ele>317</ele>
        <time>2012-12-02T11:11:29.26Z</time>
      </trkpt>
      <trkpt lat="45.57089" lon="5.9815">
        <ele>317</ele>
        <time>2012-12-02T11:11:31.24Z</time>
      </trkpt>
      <trkpt lat="45.57092" lon="5.98148">
        <ele>317</ele>
        <time>2012-12-02T11:11:33.27Z</time>
      </trkpt>
      <trkpt lat="45.57094" lon="5.98146">
        <ele>317</ele>
        <time>2012-12-02T11:11:35.29Z</time>
      </trkpt>
      <trkpt lat="45.57098" lon="5.98141">
        <ele>317</ele>
        <time>2012-12-02T11:11:37.29Z</time>
      </trkpt>
      <trkpt lat="45.57103" lon="5.98137">
        <ele>317</ele>
        <time>2012-12-02T11:11:39.28Z</time>
      </trkpt>
      <trkpt lat="45.57107" lon="5.98132">
        <ele>317</ele>
        <time>2012-12-02T11:11:41.26Z</time>
      </trkpt>
      <trkpt lat="45.57111" lon="5.98127">
        <ele>317</ele>
        <time>2012-12-02T11:11:43.25Z</time>
      </trkpt>
      <trkpt lat="45.57117" lon="5.98123">
        <ele>317</ele>
        <time>2012-12-02T11:11:45.26Z</time>
      </trkpt>
      <trkpt lat="45.57121" lon="5.98121">
        <ele>317</ele>
        <time>2012-12-02T11:11:47.25Z</time>
      </trkpt>
      <trkpt lat="45.57123" lon="5.98119">
        <ele>317</ele>
        <time>2012-12-02T11:11:49.27Z</time>
      </trkpt>
      <trkpt lat="45.57126" lon="5.98116">
        <ele>317</ele>
        <time>2012-12-02T11:11:51.28Z</time>
      </trkpt>
      <trkpt lat="45.57131" lon="5.98112">
        <ele>317</ele>
        <time>2012-12-02T11:11:53.27Z</time>
      </trkpt>
      <trkpt lat="45.57135" lon="5.98109">
        <ele>317</ele>
        <time>2012-12-02T11:11:55.28Z</time>
      </trkpt>
      <trkpt lat="45.57139" lon="5.98107">
        <ele>317</ele>
        <time>2012-12-02T11:11:57.27Z</time>
      </trkpt>
      <trkpt lat="45.57143" lon="5.98103">
        <ele>317</ele>
        <time>2012-12-02T11:11:59.29Z</time>
      </trkpt>
      <trkpt lat="45.57147" lon="5.98099">
        <ele>317</ele>
        <time>2012-12-02T11:12:01.31Z</time>
      </trkpt>
      <trkpt lat="45.57152" lon="5.98096">
        <ele>317</ele>
        <time>2012-12-02T11:12:03.27Z</time>
      </trkpt>
      <trkpt lat="45.57156" lon="5.98093">
        <ele>316</ele>
        <time>2012-12-02T11:12:05.26Z</time>
      </trkpt>
      <trkpt lat="45.57161" lon="5.98088">
        <ele>316</ele>
        <time>2012-12-02T11:12:07.26Z</time>
      </trkpt>
      <trkpt lat="45.57164" lon="5.98083">
        <ele>316</ele>
        <time>2012-12-02T11:12:09.27Z</time>
      </trkpt>
      <trkpt lat="45.57168" lon="5.98078">
        <ele>316</ele>
        <time>2012-12-02T11:12:11.27Z</time>
      </trkpt>
      <trkpt lat="45.57172" lon="5.98075">
        <ele>316</ele>
        <time>2012-12-02T11:12:13.25Z</time>
      </trkpt>
      <trkpt lat="45.57177" lon="5.98073">
        <ele>316</ele>
        <time>2012-12-02T11:12:15.26Z</time>
      </trkpt>
      <trkpt lat="45.57183" lon="5.9807">
        <ele>316</ele>
        <time>2012-12-02T11:12:17.26Z</time>
      </trkpt>
      <trkpt lat="45.57187" lon="5.98067">
        <ele>316</ele>
        <time>2012-12-02T11:12:19.28Z</time>
      </trkpt>
      <trkpt lat="45.57192" lon="5.98064">
        <ele>316</ele>
        <time>2012-12-02T11:12:21.28Z</time>
      </trkpt>
      <trkpt lat="45.57196" lon="5.98061">
        <ele>316</ele>
        <time>2012-12-02T11:12:23.26Z</time>
      </trkpt>
      <trkpt lat="45.57199" lon="5.98058">
        <ele>316</ele>
        <time>2012-12-02T11:12:25.31Z</time>
      </trkpt>
      <trkpt lat="45.57201" lon="5.98052">
        <ele>316</ele>
        <time>2012-12-02T11:12:27.31Z</time>
      </trkpt>
      <trkpt lat="45.57201" lon="5.98046">
        <ele>317</ele>
        <time>2012-12-02T11:12:29.27Z</time>
      </trkpt>
      <trkpt lat="45.572" lon="5.9804">
        <ele>317</ele>
        <time>2012-12-02T11:12:31.28Z</time>
      </trkpt>
      <trkpt lat="45.57198" lon="5.98035">
        <ele>317</ele>
        <time>2012-12-02T11:12:33.25Z</time>
      </trkpt>
      <trkpt lat="45.57196" lon="5.98031">
        <ele>317</ele>
        <time>2012-12-02T11:12:35.27Z</time>
      </trkpt>
      <trkpt lat="45.57195" lon="5.98024">
        <ele>316</ele>
        <time>2012-12-02T11:12:37.25Z</time>
      </trkpt>
      <trkpt lat="45.57195" lon="5.98017">
        <ele>316</ele>
        <time>2012-12-02T11:12:39.28Z</time>
      </trkpt>
      <trkpt lat="45.57194" lon="5.9801">
        <ele>316</ele>
        <time>2012-12-02T11:12:41.28Z</time>
      </trkpt>
      <trkpt lat="45.57194" lon="5.98004">
        <ele>316</ele>
        <time>2012-12-02T11:12:43.31Z</time>
      </trkpt>
      <trkpt lat="45.57191" lon="5.97998">
        <ele>316</ele>
        <time>2012-12-02T11:12:45.3Z</time>
      </trkpt>
      <trkpt lat="45.5719" lon="5.97993">
        <ele>316</ele>
        <time>2012-12-02T11:12:47.29Z</time>
      </trkpt>
      <trkpt lat="45.57188" lon="5.97987">
        <ele>316</ele>
        <time>2012-12-02T11:12:49.25Z</time>
      </trkpt>
      <trkpt lat="45.57188" lon="5.97979">
        <ele>316</ele>
        <time>2012-12-02T11:12:51.26Z</time>
      </trkpt>
      <trkpt lat="45.57188" lon="5.97972">
        <ele>316</ele>
        <time>2012-12-02T11:12:53.28Z</time>
      </trkpt>
      <trkpt lat="45.57185" lon="5.97964">
        <ele>316</ele>
        <time>2012-12-02T11:12:55.27Z</time>
      </trkpt>
      <trkpt lat="45.57182" lon="5.97958">
        <ele>316</ele>
        <time>2012-12-02T11:12:57.24Z</time>
      </trkpt>
      <trkpt lat="45.57179" lon="5.97953">
        <ele>316</ele>
        <time>2012-12-02T11:12:59.25Z</time>
      </trkpt>
      <trkpt lat="45.57177" lon="5.97946">
        <ele>315</ele>
        <time>2012-12-02T11:13:01.33Z</time>
      </trkpt>
      <trkpt lat="45.57175" lon="5.97944">
        <ele>315</ele>
        <time>2012-12-02T11:13:03.27Z</time>
      </trkpt>
      <trkpt lat="45.57171" lon="5.97937">
        <ele>315</ele>
        <time>2012-12-02T11:13:05.26Z</time>
      </trkpt>
      <trkpt lat="45.57167" lon="5.97932">
        <ele>315</ele>
        <time>2012-12-02T11:13:07.27Z</time>
      </trkpt>
      <trkpt lat="45.57164" lon="5.97927">
        <ele>315</ele>
        <time>2012-12-02T11:13:09.26Z</time>
      </trkpt>
      <trkpt lat="45.57159" lon="5.97919">
        <ele>315</ele>
        <time>2012-12-02T11:13:11.27Z</time>
      </trkpt>
      <trkpt lat="45.57153" lon="5.97914">
        <ele>315</ele>
        <time>2012-12-02T11:13:13.28Z</time>
      </trkpt>
      <trkpt lat="45.57146" lon="5.97911">
        <ele>314</ele>
        <time>2012-12-02T11:13:15.27Z</time>
      </trkpt>
      <trkpt lat="45.57141" lon="5.97908">
        <ele>314</ele>
        <time>2012-12-02T11:13:17.25Z</time>
      </trkpt>
      <trkpt lat="45.57135" lon="5.97901">
        <ele>314</ele>
        <time>2012-12-02T11:13:19.31Z</time>
      </trkpt>
      <trkpt lat="45.57127" lon="5.97896">
        <ele>314</ele>
        <time>2012-12-02T11:13:21.27Z</time>
      </trkpt>
      <trkpt lat="45.5712" lon="5.97893">
        <ele>314</ele>
        <time>2012-12-02T11:13:23.27Z</time>
      </trkpt>
      <trkpt lat="45.57112" lon="5.97891">
        <ele>314</ele>
        <time>2012-12-02T11:13:25.28Z</time>
      </trkpt>
      <trkpt lat="45.57105" lon="5.97887">
        <ele>313</ele>
        <time>2012-12-02T11:13:27.28Z</time>
      </trkpt>
      <trkpt lat="45.57099" lon="5.97883">
        <ele>313</ele>
        <time>2012-12-02T11:13:29.26Z</time>
      </trkpt>
      <trkpt lat="45.57097" lon="5.97877">
        <ele>313</ele>
        <time>2012-12-02T11:13:31.24Z</time>
      </trkpt>
      <trkpt lat="45.57101" lon="5.97872">
        <ele>313</ele>
        <time>2012-12-02T11:13:33.28Z</time>
      </trkpt>
      <trkpt lat="45.57103" lon="5.9787">
        <ele>313</ele>
        <time>2012-12-02T11:13:35.25Z</time>
      </trkpt>
      <trkpt lat="45.57103" lon="5.97868">
        <ele>313</ele>
        <time>2012-12-02T11:13:37.26Z</time>
      </trkpt>
      <trkpt lat="45.57104" lon="5.97867">
        <ele>313</ele>
        <time>2012-12-02T11:13:39.27Z</time>
      </trkpt>
      <trkpt lat="45.57104" lon="5.97865">
        <ele>313</ele>
        <time>2012-12-02T11:13:41.28Z</time>
      </trkpt>
      <trkpt lat="45.57105" lon="5.97862">
        <ele>313</ele>
        <time>2012-12-02T11:13:43.25Z</time>
      </trkpt>
      <trkpt lat="45.57106" lon="5.97859">
        <ele>313</ele>
        <time>2012-12-02T11:13:45.27Z</time>
      </trkpt>
      <trkpt lat="45.57108" lon="5.97856">
        <ele>313</ele>
        <time>2012-12-02T11:13:47.27Z</time>
      </trkpt>
      <trkpt lat="45.57109" lon="5.97852">
        <ele>313</ele>
        <time>2012-12-02T11:13:49.26Z</time>
      </trkpt>
      <trkpt lat="45.57109" lon="5.97849">
        <ele>313</ele>
        <time>2012-12-02T11:13:51.22Z</time>
      </trkpt>
      <trkpt lat="45.57109" lon="5.97849">
        <ele>313</ele>
        <time>2012-12-02T11:13:53.24Z</time>
      </trkpt>
      <trkpt lat="45.57109" lon="5.97848">
        <ele>313</ele>
        <time>2012-12-02T11:13:55.26Z</time>
      </trkpt>
      <trkpt lat="45.57109" lon="5.97848">
        <ele>313</ele>
        <time>2012-12-02T11:13:59Z</time>
      </trkpt>
    </trkseg>
  </trk>
</gpx>